ftp/pub/palmer/observations_modified/2019/August/AR190815_BASE.txt

Download

Sample DateTime	Unit Id	WS Avg 2min	WD Avg 2min	WGS 10min	WGD 10min	Air Temp	Rel Humidity	Dew Point	Pyranometer	Quantum	Air Pressure	Snow Level	Rainfall	PW Current	Visibility	CBase 1	CBase 2	CBase 3	Vert Vis
2019/08/15  00:00:01  BASE  5.16852  346  5.62716  354  -1.4  100   -1.4  0     0     983.6    NA       0.0000   -SN      9999  0     0    
2019/08/15  00:01:01  BASE  5.25084  349  5.92704  349  -1.4  100   -1.4  0     0     983.5    NA       0.0000   -SN      9999  0     0    
2019/08/15  00:02:01  BASE  5.439    348  6.13872  1    -1.4  100   -1.4  0     0     983.5    NA       0.0000   -SN      9999  0     0    
2019/08/15  00:03:01  BASE  5.52132  348  6.13872  1    -1.4  100   -1.4  0     0     983.5    NA       0.0000   -SN      9999  0     0    
2019/08/15  00:04:01  BASE  5.6154   355  6.13872  1    -1.4  100   -1.4  0     0     983.5    NA       0.0000   -SN      9999  0     0    
2019/08/15  00:05:01  BASE  5.83296  359  6.62676  360  -1.4  100   -1.4  0     0     983.5    NA       0.0000   -SN      9999  0     0    
2019/08/15  00:06:01  BASE  6.22692  359  6.89724  360  -1.4  100   -1.4  0     0     983.5    NA       0.0000   -SN      9999  0     0    
2019/08/15  00:07:01  BASE  6.70908  360  7.19712  1    -1.4  100   -1.4  0     0     983.5    NA       0.0000   -SN      9999  0     0    
2019/08/15  00:08:01  BASE  6.98544  3    7.35     8    -1.4  100   -1.4  0     0     983.5    NA       0.0000   -SN      9999  0     0    
2019/08/15  00:09:01  BASE  7.06188  3    7.4088   2    -1.4  100   -1.4  0     0     983.5    NA       0.0000   -SN      9999  0     0    
2019/08/15  00:10:01  BASE  6.78552  3    7.4088   2    -1.4  100   -1.4  0     0     983.5    NA       0.0000   -SN      9999  0     0    
2019/08/15  00:11:01  BASE  6.72672  5    7.4088   2    -1.4  100   -1.4  0     0     983.4    NA       0.0000   -SN      9999  0     0    
2019/08/15  00:12:01  BASE  6.69144  3    7.4088   2    -1.4  100   -1.4  0     0     983.4    NA       0.0000   -SN      9999  0     0    
2019/08/15  00:13:01  BASE  6.86784  3    7.74396  10   -1.4  100   -1.4  0     0     983.4    NA       0.0000   -SN      9999  230   0    
2019/08/15  00:14:01  BASE  6.95016  4    7.74396  10   -1.4  100   -1.4  0     0     983.4    NA       0.0000   -SN      9999  260   0    
2019/08/15  00:15:01  BASE  6.78552  4    7.74396  10   -1.4  100   -1.4  0     0     983.4    NA       0.0000   -SN      9999  1120  0    
2019/08/15  00:16:01  BASE  6.7914   4    7.74396  10   -1.4  100   -1.4  0     0     983.4    NA       0.0000   -SN      9999  260   0    
2019/08/15  00:17:01  BASE  6.63264  5    7.74396  10   -1.4  100   -1.4  0     0     983.4    NA       0.0000   -SN      9999  260   0    
2019/08/15  00:18:01  BASE  6.21516  7    7.74396  10   -1.3  100   -1.3  0     0     983.4    NA       0.0000   -SN      9999  0     0    
2019/08/15  00:19:01  BASE  6.0564   10   7.74396  10   -1.3  100   -1.3  0     0     983.3    NA       0.0000   -SN      9999  0     0    
2019/08/15  00:20:01  BASE  6.43272  11   7.74396  10   -1.3  100   -1.3  0     0     983.3    NA       0.0000   -SN      7000  0     0    
2019/08/15  00:21:01  BASE  6.65028  13   7.74396  10   -1.3  100   -1.3  0     0     983.3    NA       0.0000   -SN      5000  260   0    
2019/08/15  00:22:01  BASE  6.62676  12   7.74396  10   -1.3  100   -1.3  0     0     983.3    NA       0.0000   -SN      BR    7000  260  
2019/08/15  00:23:01  BASE  6.13284  10   7.35     7    -1.3  100   -1.3  0     0     983.3    NA       0.0000   -SN      BR    9000  230  
2019/08/15  00:24:01  BASE  5.80944  8    7.35     7    -1.3  100   -1.3  0     0     983.3    NA       0.0000   -SN      BR    8000  230  
2019/08/15  00:25:01  BASE  5.88     8    7.2618   360  -1.3  100   -1.3  0     0     983.3    NA       0.0000   -SN      BR    8000  0    
2019/08/15  00:26:01  BASE  5.76828  10   7.19712  8    -1.3  100   -1.3  0     0     983.3    NA       0.0000   -SN      BR    9999  0    
2019/08/15  00:27:01  BASE  5.69772  11   7.19712  8    -1.3  100   -1.3  0     0     983.3    NA       0.0000   -SN      BR    9000  230  
2019/08/15  00:28:01  BASE  5.69772  8    7.19712  8    -1.3  100   -1.3  0     0     983.3    NA       0.0000   -SN      BR    9000  260  
2019/08/15  00:29:01  BASE  5.80944  7    7.19712  8    -1.3  100   -1.3  0     0     983.3    NA       0.0000   -SN      BR    9999  230  
2019/08/15  00:30:01  BASE  5.88     8    7.19712  8    -1.3  100   -1.3  0     0     983.3    NA       0.0000   -SN      BR    9999  0    
2019/08/15  00:31:01  BASE  5.8506   10   7.19712  8    -1.3  100   -1.3  0     0     983.3    NA       0.0000   -SN      BR    9999  260  
2019/08/15  00:32:01  BASE  5.90352  13   6.65616  6    -1.3  100   -1.3  0     0     983.3    NA       0.0000   -SN      BR    8000  260  
2019/08/15  00:33:01  BASE  6.01524  14   6.65616  6    -1.3  100   -1.3  0     0     983.3    NA       0.0000   -SN      BR    6000  0    
2019/08/15  00:34:01  BASE  6.00348  13   6.47388  4    -1.3  100   -1.3  0     0     983.3    NA       0.0000   -SN      BR    6000  0    
2019/08/15  00:35:01  BASE  5.92704  12   6.47388  10   -1.3  100   -1.3  0     0     983.3    NA       0.0000   -SN      BR    7000  0    
2019/08/15  00:36:01  BASE  6.07992  13   6.74436  15   -1.3  100   -1.3  0     0     983.3    NA       0.0000   -SN      BR    6000  0    
2019/08/15  00:37:01  BASE  6.21516  12   6.95604  14   -1.3  100   -1.3  0     0     983.2    NA       0.0000   -SN      BR    5000  0    
2019/08/15  00:38:01  BASE  6.18576  11   6.95604  14   -1.3  100   -1.3  0     0     983.2    NA       0.0000   -SN      BR    6000  0    
2019/08/15  00:39:01  BASE  6.40332  14   7.35     8    -1.3  100   -1.3  0     0     983.2    NA       0.0000   -SN      BR    8000  0    
2019/08/15  00:40:01  BASE  6.87372  12   7.47348  9    -1.3  100   -1.3  0     0     983.2    NA       0.0000   -SN      BR    9000  260  
2019/08/15  00:41:01  BASE  6.86196  10   7.47348  9    -1.3  100   -1.3  0     0     983.2    NA       0.0000   -SN      BR    9999  230  
2019/08/15  00:42:01  BASE  6.69732  11   7.47348  9    -1.3  100   -1.3  0     0     983.2    NA       0.0000   -SN      BR    9999  0    
2019/08/15  00:43:01  BASE  6.69732  12   7.47348  9    -1.3  100   -1.3  0     0     983.2    NA       0.0000   -SN      BR    7000  0    
2019/08/15  00:44:01  BASE  6.35628  11   7.47348  9    -1.3  100   -1.3  0     0     983.2    NA       0.0000   -SN      BR    6000  0    
2019/08/15  00:45:01  BASE  6.30924  11   7.47348  9    -1.3  100   -1.3  0     0     983.2    NA       0.0000   -SN      BR    8000  0    
2019/08/15  00:46:01  BASE  6.45624  12   7.47348  9    -1.3  100   -1.3  0     0     983.2    NA       0.0000   -SN      BR    8000  0    
2019/08/15  00:47:01  BASE  6.28572  12   7.47348  9    -1.3  100   -1.3  0     0     983.2    NA       0.0000   -SN      BR    6000  0    
2019/08/15  00:48:01  BASE  6.12108  14   7.47348  9    -1.3  100   -1.3  0     0     983.2    NA       0.0000   -SN      BR    7000  0    
2019/08/15  00:49:01  BASE  6.34452  16   7.47348  9    -1.3  100   -1.3  0     0     983.2    NA       0.0000   -SN      BR    6000  0    
2019/08/15  00:50:01  BASE  6.468    18   7.2324   8    -1.3  100   -1.3  0     0     983.2    NA       0.0000   -SN      BR    5000  0    
2019/08/15  00:51:01  BASE  6.47976  17   7.2324   8    -1.3  100   -1.3  0     0     983.2    NA       0.0000   -SN      BR    5000  0    
2019/08/15  00:52:01  BASE  6.5856   17   7.19712  18   -1.3  100   -1.3  0     0     983.2    NA       0.0000   -SN      BR    5000  0    
2019/08/15  00:53:01  BASE  6.36216  18   7.19712  18   -1.3  100   -1.3  0     0     983.2    NA       0.0000   -SN      BR    6000  0    
2019/08/15  00:54:01  BASE  6.30924  17   7.19712  18   -1.3  100   -1.3  0     0     983.2    NA       0.0000   -SN      BR    5000  0    
2019/08/15  00:55:01  BASE  6.27396  15   7.19712  18   -1.3  100   -1.3  0     0     983.2    NA       0.0000   -SN      BR    5000  0    
2019/08/15  00:56:01  BASE  6.02112  16   7.19712  18   -1.4  100   -1.4  0     0     983.2    NA       0.0000   -SN      BR    7000  0    
2019/08/15  00:57:01  BASE  6.0564   15   7.19712  18   -1.4  100   -1.4  0     0     983.2    NA       0.0000   -SN      BR    7000  0    
2019/08/15  00:58:01  BASE  6.321    15   7.19712  18   -1.4  100   -1.4  0     0     983.2    NA       0.0000   -SN      BR    8000  0    
2019/08/15  00:59:01  BASE  6.48564  16   7.19712  18   -1.4  100   -1.4  0     0     983.2    NA       0.0000   -SN      BR    7000  0    
2019/08/15  01:00:01  BASE  6.2622   17   7.19712  18   -1.4  100   -1.4  0     0     983.1    NA       0.0000   -SN      BR    7000  0    
2019/08/15  01:01:01  BASE  6.09168  18   7.19712  18   -1.4  100   -1.4  0     0     983.1    NA       0.0000   -SN      BR    8000  0    
2019/08/15  01:02:01  BASE  6.3504   19   6.98544  15   -1.4  100   -1.4  0     0     983.1    NA       0.0000   -SN      BR    8000  0    
2019/08/15  01:03:01  BASE  6.56208  20   7.02072  23   -1.4  100   -1.4  0     0     983.1    NA       0.0000   -SN      BR    7000  0    
2019/08/15  01:04:01  BASE  6.78552  20   7.19712  22   -1.4  100   -1.4  0     0     983.1    NA       0.0000   -SN      BR    8000  0    
2019/08/15  01:05:01  BASE  7.00308  22   7.59108  22   -1.3  100   -1.3  0     0     983.1    NA       0.0000   -SN      BR    7000  0    
2019/08/15  01:06:01  BASE  6.81492  21   7.59108  22   -1.3  100   -1.3  0     0     983.1    NA       0.0000   -SN      BR    6000  850  
2019/08/15  01:07:01  BASE  6.4092   21   7.59108  22   -1.3  100   -1.3  0     0     983.1    NA       0.0000   -SN      BR    7000  0    
2019/08/15  01:08:01  BASE  6.62088  21   7.59108  22   -1.3  100   -1.3  0     0     983.0    NA       0.0000   -SN      BR    7000  0    
2019/08/15  01:09:01  BASE  6.97368  20   7.59108  22   -1.3  100   -1.3  0     0     983.0    NA       0.0000   -SN      BR    7000  0    
2019/08/15  01:10:01  BASE  7.09716  22   7.71456  25   -1.3  100   -1.3  0     0     982.9    NA       0.0000   -SN      BR    6000  0    
2019/08/15  01:11:01  BASE  7.00308  22   7.71456  25   -1.3  100   -1.3  0     0     982.9    NA       0.0000   -SN      BR    4800  0    
2019/08/15  01:12:01  BASE  6.9384   22   7.83216  21   -1.3  100   -1.3  0     0     982.9    NA       0.0000   -SN      BR    5000  0    
2019/08/15  01:13:01  BASE  6.95016  22   7.83216  21   -1.3  100   -1.3  0     0     982.9    NA       0.0000   -SN      BR    5000  0    
2019/08/15  01:14:01  BASE  7.19712  22   7.95564  22   -1.3  100   -1.3  0     0     982.9    NA       0.0000   -SN      BR    4900  0    
2019/08/15  01:15:01  BASE  7.54404  21   7.98504  17   -1.3  100   -1.3  0     0     982.9    NA       0.0000   -SN      BR    4700  0    
2019/08/15  01:16:01  BASE  7.45584  19   7.98504  17   -1.3  100   -1.3  0     0     982.9    NA       0.0000   -SN      BR    5000  0    
2019/08/15  01:17:01  BASE  7.45584  19   7.98504  17   -1.3  100   -1.3  0     0     982.9    NA       0.0000   -SN      BR    6000  0    
2019/08/15  01:18:01  BASE  7.38528  21   8.07912  24   -1.2  100   -1.2  0     0     982.9    NA       0.0000   -SN      BR    5000  0    
2019/08/15  01:19:01  BASE  7.33824  23   8.07912  24   -1.2  100   -1.2  0     0     982.9    NA       0.0000   -SN      BR    5000  0    
2019/08/15  01:20:01  BASE  7.35588  23   8.07912  24   -1.2  100   -1.2  0     0     982.9    NA       0.0000   -SN      BR    5000  0    
2019/08/15  01:21:01  BASE  7.22652  23   8.07912  24   -1.2  100   -1.2  0     0     982.9    NA       0.0000   -SN      BR    6000  0    
2019/08/15  01:22:01  BASE  7.13832  22   8.07912  24   -1.2  100   -1.2  0     0     982.9    NA       0.0000   -SN      BR    6000  0    
2019/08/15  01:23:01  BASE  7.03248  22   8.07912  24   -1.2  100   -1.2  0     0     982.9    NA       0.0000   -SN      BR    7000  0    
2019/08/15  01:24:01  BASE  6.62676  23   8.07912  24   -1.2  100   -1.2  0     0     982.9    NA       0.0000   -SN      BR    8000  0    
2019/08/15  01:25:01  BASE  6.59148  24   8.07912  24   -1.2  100   -1.2  0     0     982.9    NA       0.0000   -SN      BR    9000  0    
2019/08/15  01:26:01  BASE  6.95016  23   8.07912  24   -1.2  100   -1.2  0     0     982.8    NA       0.0000   -SN      BR    9999  0    
2019/08/15  01:27:01  BASE  7.1148   22   8.07912  24   -1.2  100   -1.2  0     0     982.8    NA       0.0000   -SN      BR    7000  260  
2019/08/15  01:28:01  BASE  7.2618   21   7.80276  21   -1.2  100   -1.2  0     0     982.8    NA       0.0000   -SN      BR    8000  230  
2019/08/15  01:29:01  BASE  7.2324   20   7.77336  23   -1.2  100   -1.2  0     0     982.8    NA       0.0000   -SN      BR    9999  260  
2019/08/15  01:30:01  BASE  7.25592  20   7.98504  18   -1.2  100   -1.2  0     0     982.8    NA       0.0000   -SN      BR    9999  230  
2019/08/15  01:31:01  BASE  7.50288  18   8.19672  12   -1.2  100   -1.2  0     0     982.8    NA       0.0000   -SN      BR    9000  230  
2019/08/15  01:32:01  BASE  7.56756  17   8.19672  12   -1.2  100   -1.2  0     0     982.7    NA       0.0000   -SN      BR    9999  230  
2019/08/15  01:33:01  BASE  7.45584  19   8.19672  12   -1.2  100   -1.2  0     0     982.7    NA       0.0000   -SN      BR    9000  230  
2019/08/15  01:34:01  BASE  7.56168  20   8.2908   22   -1.2  100   -1.2  0     0     982.7    NA       0.0000   -SN      BR    8000  0    
2019/08/15  01:35:01  BASE  7.47348  20   8.2908   22   -1.2  100   -1.2  0     0     982.8    NA       0.0000   -SN      BR    7000  260  
2019/08/15  01:36:01  BASE  7.37352  21   8.2908   22   -1.2  100   -1.2  0     0     982.7    NA       0.0000   -SN      BR    7000  0    
2019/08/15  01:37:01  BASE  7.39116  21   8.2908   22   -1.2  100   -1.2  0     0     982.8    NA       0.0000   -SN      BR    9000  260  
2019/08/15  01:38:01  BASE  7.10892  20   8.2908   22   -1.1  100   -1.1  0     0     982.7    NA       0.0000   -SN      BR    9000  260  
2019/08/15  01:39:01  BASE  7.13244  20   8.2908   22   -1.1  100   -1.1  0     0     982.7    NA       0.0000   -SN      BR    8000  0    
2019/08/15  01:40:01  BASE  7.1148   20   8.2908   22   -1.1  100   -1.1  0     0     982.7    NA       0.0000   -SN      BR    7000  0    
2019/08/15  01:41:01  BASE  7.10304  21   8.2908   22   -1.1  100   -1.1  0     0     982.7    NA       0.0000   -SN      BR    8000  0    
2019/08/15  01:42:01  BASE  7.00308  20   8.2908   22   -1.1  100   -1.1  0     0     982.7    NA       0.0000   -SN      BR    8000  0    
2019/08/15  01:43:01  BASE  6.78552  19   8.2908   22   -1.1  100   -1.1  0     0     982.7    NA       0.0000   -SN      BR    9000  0    
2019/08/15  01:44:01  BASE  6.87372  21   8.04384  23   -1.1  100   -1.1  0     0     982.7    NA       0.0000   -SN      BR    8000  0    
2019/08/15  01:45:01  BASE  6.77376  22   8.04384  23   -1.1  100   -1.1  0     0     982.7    NA       0.0000   -SN      BR    9999  0    
2019/08/15  01:46:01  BASE  6.71496  22   8.04384  23   -1.1  100   -1.1  0     0     982.7    NA       0.0000   -SN      BR    9999  0    
2019/08/15  01:47:01  BASE  6.74436  20   7.80276  19   -1.1  100   -1.1  0     0     982.6    NA       0.0000   -SN      BR    9999  330  
2019/08/15  01:48:01  BASE  6.79728  19   7.65576  20   -1.1  100   -1.1  0     0     982.6    NA       0.0000   -SN      BR    9999  0    
2019/08/15  01:49:01  BASE  6.84432  20   7.65576  20   -1.1  100   -1.1  0     0     982.7    NA       0.0000   -SN      9999  0     0    
2019/08/15  01:50:01  BASE  6.60324  19   7.65576  20   -1.1  100   -1.1  0     0     982.7    NA       0.0000   -SN      9999  330   0    
2019/08/15  01:51:01  BASE  6.44448  20   7.50288  17   -1.1  100   -1.1  0     0     982.6    NA       0.0000   -SN      9999  0     0    
2019/08/15  01:52:01  BASE  6.63852  20   7.50288  17   -1.1  100   -1.1  0     0     982.6    NA       0.0000   -SN      9999  0     0    
2019/08/15  01:53:01  BASE  6.83844  20   7.50288  17   -1.1  100   -1.1  0     0     982.6    NA       0.0000   -SN      9999  0     0    
2019/08/15  01:54:01  BASE  6.78552  22   7.4088   16   -1.1  100   -1.1  0     0     982.6    NA       0.0000   -SN      9999  330   0    
2019/08/15  01:55:01  BASE  6.57972  23   7.4088   16   -1.1  100   -1.1  0     0     982.5    NA       0.0000   -SN      9999  330   0    
2019/08/15  01:56:01  BASE  6.66204  23   7.4088   16   -1.1  100   -1.1  0     0     982.4    NA       0.0000   -SN      9999  0     0    
2019/08/15  01:57:01  BASE  6.75612  22   7.44408  17   -1.1  100   -1.1  0     0     982.4    NA       0.0000   -SN      8000  0     0    
2019/08/15  01:58:01  BASE  6.3798   23   7.44408  17   -1.1  100   -1.1  0     0     982.4    NA       0.0000   -SN      8000  0     0    
2019/08/15  01:59:01  BASE  6.29748  24   7.44408  17   -1.1  100   -1.1  0     0     982.4    NA       0.0000   -SN      8000  330   0    
2019/08/15  02:00:01  BASE  6.4974   24   7.44408  17   -1.1  100   -1.1  0     0     982.4    NA       0.0000   -SN      7000  0     0    
2019/08/15  02:01:01  BASE  6.24456  24   7.44408  17   -1.1  100   -1.1  0     0     982.4    NA       0.0000   -SN      BR    8000  0    
2019/08/15  02:02:01  BASE  6.2034   23   7.44408  17   -1.1  100   -1.1  0     0     982.4    NA       0.0000   -SN      BR    9999  0    
2019/08/15  02:03:01  BASE  6.2916   21   7.44408  17   -1.1  100   -1.1  0     0     982.4    NA       0.0000   -SN      BR    9999  0    
2019/08/15  02:04:01  BASE  6.18576  19   7.44408  17   -1.1  100   -1.1  0     0     982.4    NA       0.0000   -SN      BR    9999  0    
2019/08/15  02:05:01  BASE  6.02112  18   7.44408  17   -1.0  100   -1.0  0     0     982.4    NA       0.0000   -SN      BR    9999  0    
2019/08/15  02:06:01  BASE  5.72124  20   7.44408  17   -1.0  100   -1.0  0     0     982.3    NA       0.0000   -SN      9999  390   0    
2019/08/15  02:07:01  BASE  5.44488  22   7.02072  24   -1.0  100   -1.0  0     0     982.3    NA       0.0000   -SN      9999  390   2400 
2019/08/15  02:08:01  BASE  5.56836  22   7.02072  24   -1.0  100   -1.0  0     0     982.3    NA       0.0000   -SN      9999  390   2400 
2019/08/15  02:09:01  BASE  5.98584  20   7.02072  24   -1.0  100   -1.0  0     0     982.3    NA       0.0000   -SN      9999  1310  2360 
2019/08/15  02:10:01  BASE  5.84472  20   7.02072  24   -1.0  100   -1.0  0     0     982.3    NA       0.0000   -SN      9999  750   2890 
2019/08/15  02:11:01  BASE  5.50956  18   7.02072  24   -1.0  100   -1.0  0     0     982.3    NA       0.0000   -SN      9999  1480  8990 
2019/08/15  02:12:01  BASE  5.65068  18   6.71496  17   -1.0  100   -1.0  0     0     982.3    NA       0.0000   -SN      9999  1350  0    
2019/08/15  02:13:01  BASE  5.69184  21   6.71496  17   -1.0  100   -1.0  0     0     982.3    NA       0.0000   -SN      9999  1180  2790 
2019/08/15  02:14:01  BASE  5.55072  20   6.50328  17   -1.0  100   -1.0  0     0     982.3    NA       0.0000   -SN      9999  460   0    
2019/08/15  02:15:01  BASE  5.53308  16   6.50328  17   -1.0  100   -1.0  0     0     982.3    NA       0.0000   -SN      9999  430   2070 
2019/08/15  02:16:01  BASE  5.30964  16   6.50328  17   -1.0  100   -1.0  0     0     982.3    NA       0.0000   -SN      9999  430   2720 
2019/08/15  02:17:01  BASE  4.89216  18   6.50328  17   -1.0  100   -1.0  0     0     982.3    NA       0.0000   9999     430   2330  0    
2019/08/15  02:18:01  BASE  4.53936  19   6.50328  17   -1.0  100   -1.0  0     0     982.3    NA       0.0000   9999     390   2300  0    
2019/08/15  02:19:01  BASE  4.45116  21   6.41508  20   -0.9  100   -0.9  0     0     982.3    NA       0.0000   9999     620   2300  0    
2019/08/15  02:20:01  BASE  4.56288  22   6.41508  20   -0.9  100   -0.9  0     0     982.3    NA       0.0000   9999     390   2260  0    
2019/08/15  02:21:01  BASE  4.76868  24   6.41508  20   -0.9  100   -0.9  0     0     982.3    NA       0.0000   9999     2230  0     0    
2019/08/15  02:22:01  BASE  4.98036  20   6.2034   9    -0.9  100   -0.9  0     0     982.2    NA       0.0000   9999     390   0     0    
2019/08/15  02:23:01  BASE  4.57464  16   6.2034   9    -0.8  100   -0.8  0     0     982.2    NA       0.0000   9999     360   2100  0    
2019/08/15  02:24:01  BASE  3.80436  17   6.02112  17   -0.8  100   -0.8  0     0     982.3    NA       0.0000   9999     360   2070  0    
2019/08/15  02:25:01  BASE  3.62208  21   5.68596  13   -0.8  100   -0.8  0     0     982.3    NA       0.0000   9999     460   2030  0    
2019/08/15  02:26:01  BASE  3.68676  27   5.68596  13   -0.8  100   -0.8  0     0     982.2    NA       0.0000   9999     390   0     0    
2019/08/15  02:27:01  BASE  3.28104  31   5.68596  13   -0.8  100   -0.8  0     0     982.3    NA       0.0000   9999     390   2260  0    
2019/08/15  02:28:01  BASE  2.96352  29   5.68596  13   -0.8  100   -0.8  0     0     982.3    NA       0.0000   9999     390   2530  0    
2019/08/15  02:29:01  BASE  2.74596  28   5.68596  13   -0.8  100   -0.8  0     0     982.3    NA       0.0000   9999     390   2530  0    
2019/08/15  02:30:01  BASE  2.34024  34   5.68596  13   -0.8  100   -0.8  0     0     982.2    NA       0.0000   9999     620   2460  0    
2019/08/15  02:31:01  BASE  2.37552  39   5.68596  13   -0.7  100   -0.7  0     0     982.2    NA       0.0000   9999     1670  0     0    
2019/08/15  02:32:01  BASE  2.40492  46   4.47468  12   -0.7  100   -0.7  0     0     982.2    NA       0.0000   9999     1710  2430  0    
2019/08/15  02:33:01  BASE  1.85808  60   4.47468  12   -0.7  100   -0.7  0     0     982.2    NA       0.0000   9999     430   0     0    
2019/08/15  02:34:01  BASE  0.78204  85   4.05132  24   -0.7  100   -0.7  0     0     982.2    NA       0.0000   9999     520   0     0    
2019/08/15  02:35:01  BASE  0.28812  121  4.02192  28   -0.8  100   -0.8  0     0     982.2    NA       0.0000   9999     620   0     0    
2019/08/15  02:36:01  BASE  0.3528   144  3.35748  15   -0.8  100   -0.8  0     0     982.2    NA       0.0000   9999     1770  0     0    
2019/08/15  02:37:01  BASE  0.28224  131  3.29868  28   -0.8  100   -0.8  0     0     982.2    NA       0.0000   9999     1800  0     0    
2019/08/15  02:38:01  BASE  0.87024  108  3.32808  133  -0.8  100   -0.8  0     0     982.3    NA       0.0000   9999     950   0     0    
2019/08/15  02:39:01  BASE  1.9992   125  3.32808  133  -0.9  100   -0.9  0     0     982.3    NA       0.0000   9999     660   0     0    
2019/08/15  02:40:01  BASE  2.44608  145  3.32808  133  -0.9  100   -0.9  0     0     982.2    NA       0.0000   -SN      9999  1770  0    
2019/08/15  02:41:01  BASE  2.76948  158  3.62796  174  -1.0  100   -1.0  0     0     982.2    NA       0.0000   -SN      9999  1740  0    
2019/08/15  02:42:01  BASE  3.28692  161  3.81024  167  -1.1  100   -1.1  0     0     982.2    NA       0.0000   -SN      9999  1670  0    
2019/08/15  02:43:01  BASE  3.40452  157  4.02192  151  -1.1  100   -1.1  0     0     982.2    NA       0.0000   -SN      9999  1740  0    
2019/08/15  02:44:01  BASE  4.12776  147  5.99172  132  -1.2  100   -1.2  0     0     982.1    NA       0.0000   -SN      9999  1570  0    
2019/08/15  02:45:01  BASE  4.98036  140  5.99172  132  -1.3  100   -1.3  0     0     982.1    NA       0.0000   -SN      9999  1610  0    
2019/08/15  02:46:01  BASE  5.54484  138  6.53268  138  -1.3  100   -1.3  0     0     982.1    NA       0.0000   -SN      9999  1670  0    
2019/08/15  02:47:01  BASE  5.91528  134  6.53268  138  -1.4  100   -1.4  0     0     982.1    NA       0.0000   -SN      8000  1670  0    
2019/08/15  02:48:01  BASE  5.48016  131  6.53268  138  -1.4  100   -1.4  0     0     982.1    NA       0.0000   -SN      7000  1670  0    
2019/08/15  02:49:01  BASE  4.6746   131  6.53268  138  -1.4  100   -1.4  0     0     982.1    NA       0.0000   -SN      BR    7000  1840 
2019/08/15  02:50:01  BASE  4.45704  132  6.53268  138  -1.5  100   -1.5  0     0     982.1    NA       0.0000   -SN      BR    7000  1940 
2019/08/15  02:51:01  BASE  4.71576  134  6.53268  138  -1.5  100   -1.5  0     0     982.1    NA       0.0000   -SN      BR    5000  820  
2019/08/15  02:52:01  BASE  4.91568  133  6.53268  138  -1.5  100   -1.5  0     0     982.0    NA       0.0000   -SN      BR    5000  950  
2019/08/15  02:53:01  BASE  5.03916  131  6.53268  138  -1.5  100   -1.5  0     0     982.1    NA       0.0000   -SN      BR    6000  820  
2019/08/15  02:54:01  BASE  5.25084  132  6.53268  138  -1.5  100   -1.5  0     0     982.0    NA       0.0000   -SN      BR    5000  1970 
2019/08/15  02:55:01  BASE  5.15676  133  6.53268  138  -1.5  100   -1.6  0     0     982.1    NA       0.0000   -SN      BR    4300  2070 
2019/08/15  02:56:01  BASE  4.96272  133  6.3798   133  -1.6  100   -1.6  0     0     982.1    NA       0.0000   -SN      BR    3800  390  
2019/08/15  02:57:01  BASE  5.28024  135  6.02112  133  -1.6  100   -1.6  0     0     982.1    NA       0.0000   -SN      BR    3600  390  
2019/08/15  02:58:01  BASE  5.6448   140  6.44448  151  -1.6  100   -1.6  0     0     982.1    NA       0.0000   -SN      BR    3500  330  
2019/08/15  02:59:01  BASE  5.9976   140  7.13832  145  -1.6  100   -1.6  0     0     982.0    NA       0.0000   -SN      BR    3300  360  
2019/08/15  03:00:00  BASE  6.32688  137  7.13832  145  -1.7  100   -1.7  0     0     982.1    NA       0.0000   -SN      BR    3300  360  
2019/08/15  03:01:01  BASE  6.6444   134  7.59108  137  -1.7  100   -1.7  0     0     982.1    NA       0.0000   -SN      BR    3200  360  
2019/08/15  03:02:01  BASE  6.93252  133  7.62048  134  -1.8  100   -1.8  0     0     982.1    NA       0.0000   -SN      BR    3200  330  
2019/08/15  03:03:00  BASE  6.53268  133  7.62048  134  -1.8  100   -1.8  0     0     982.1    NA       0.0000   -SN      BR    3600  360  
2019/08/15  03:04:01  BASE  6.03876  133  7.62048  134  -1.8  100   -1.8  0     0     982.1    NA       0.0000   -SN      BR    3400  360  
2019/08/15  03:05:01  BASE  6.54444  133  7.62048  134  -1.9  100   -1.9  0     0     982.1    NA       0.0000   -SN      BR    3300  360  
2019/08/15  03:06:00  BASE  6.96192  133  7.62048  134  -1.9  100   -1.9  0     0     982.1    NA       0.0000   -SN      BR    3100  360  
2019/08/15  03:07:00  BASE  7.36176  130  8.56128  129  -2.0  100   -2.0  0     0     982.1    NA       0.0000   -SN      BR    2800  360  
2019/08/15  03:08:01  BASE  7.5852   129  8.56128  129  -2.0  100   -2.0  0     0     982.1    NA       0.0000   -SN      BR    3000  0    
2019/08/15  03:09:00  BASE  7.15596  131  8.56128  129  -2.1  100   -2.1  0     0     982.1    NA       0.0000   -SN      BR    3000  0    
2019/08/15  03:10:00  BASE  6.97368  132  8.56128  129  -2.1  100   -2.1  0     0     982.0    NA       0.0000   -SN      BR    2800  0    
2019/08/15  03:11:00  BASE  6.45036  131  8.56128  129  -2.1  100   -2.1  0     0     982.1    NA       0.0000   -SN      BR    2800  0    
2019/08/15  03:12:01  BASE  6.2622   127  8.56128  129  -2.1  100   -2.1  0     0     982.1    NA       0.0000   -SN      BR    2600  0    
2019/08/15  03:13:01  BASE  6.52092  127  8.56128  129  -2.1  100   -2.1  0     0     982.1    NA       0.0000   -SN      BR    2500  0    
2019/08/15  03:14:01  BASE  6.33864  128  8.56128  129  -2.1  100   -2.1  0     0     982.1    NA       0.0000   -SN      BR    2600  0    
2019/08/15  03:15:00  BASE  6.1446   128  8.56128  129  -2.1  100   -2.1  0     0     982.1    NA       0.0000   -SN      BR    2400  0    
2019/08/15  03:16:01  BASE  6.47976  128  8.56128  129  -2.1  100   -2.1  0     0     982.1    NA       0.0000   -SN      BR    2400  0    
2019/08/15  03:17:00  BASE  6.9678   127  7.92624  129  -2.1  100   -2.1  0     0     982.0    NA       0.0000   -SN      BR    2600  0    
2019/08/15  03:18:01  BASE  6.88548  127  7.92624  129  -2.2  100   -2.2  0     0     982.0    NA       0.0000   -SN      BR    2400  0    
2019/08/15  03:19:00  BASE  6.63264  126  7.92624  129  -2.2  100   -2.2  0     0     982.1    NA       0.0000   -SN      BR    2200  0    
2019/08/15  03:20:00  BASE  6.762    127  7.92624  129  -2.2  100   -2.2  0     0     982.1    NA       0.0000   -SN      BR    2200  0    
2019/08/15  03:21:00  BASE  6.98544  130  8.13792  136  -2.2  100   -2.2  0     0     982.1    NA       0.0000   -SN      BR    2200  0    
2019/08/15  03:22:01  BASE  6.77376  132  8.13792  136  -2.2  100   -2.2  0     0     982.1    NA       0.0000   -SN      BR    2100  0    
2019/08/15  03:23:00  BASE  6.84432  132  8.13792  136  -2.2  100   -2.2  0     0     982.1    NA       0.0000   -SN      BR    2100  0    
2019/08/15  03:24:01  BASE  7.10304  131  8.13792  136  -2.2  100   -2.2  0     0     982.1    NA       0.0000   -SN      BR    2200  0    
2019/08/15  03:25:00  BASE  6.91488  131  8.13792  136  -2.2  100   -2.2  0     0     982.1    NA       0.0000   -SN      BR    2200  0    
2019/08/15  03:26:01  BASE  6.73848  129  8.13792  136  -2.2  100   -2.2  0     0     982.1    NA       0.0000   -SN      BR    2300  0    
2019/08/15  03:27:00  BASE  6.8502   128  8.13792  136  -2.2  100   -2.2  0     0     982.1    NA       0.0000   -SN      BR    2600  0    
2019/08/15  03:28:01  BASE  6.86196  128  8.13792  136  -2.2  100   -2.2  0     0     982.1    NA       0.0000   -SN      BR    2600  0    
2019/08/15  03:29:01  BASE  6.96192  126  8.13792  136  -2.2  100   -2.2  0     0     982.1    NA       0.0000   -SN      BR    2800  0    
2019/08/15  03:30:00  BASE  7.38528  125  8.13792  136  -2.2  100   -2.2  0     0     982.1    NA       0.0000   -SN      BR    2800  0    
2019/08/15  03:31:00  BASE  7.47348  126  8.07912  126  -2.2  100   -2.2  0     0     982.1    NA       0.0000   -SN      BR    2900  0    
2019/08/15  03:32:01  BASE  7.17948  127  8.07912  126  -2.2  100   -2.2  0     0     982.2    NA       0.0000   -SN      BR    2900  0    
2019/08/15  03:33:00  BASE  7.03248  129  8.07912  126  -2.2  100   -2.2  0     0     982.2    NA       0.0000   -SN      BR    2800  0    
2019/08/15  03:34:00  BASE  6.9678   129  8.07912  126  -2.2  100   -2.2  0     0     982.2    NA       0.0000   -SN      BR    2900  0    
2019/08/15  03:35:00  BASE  7.02072  127  8.07912  126  -2.2  100   -2.2  0     0     982.2    NA       0.0000   -SN      BR    3000  0    
2019/08/15  03:36:00  BASE  7.07364  125  8.07912  126  -2.2  100   -2.2  0     0     982.2    NA       0.0000   -SN      BR    1900  0    
2019/08/15  03:37:00  BASE  6.95016  125  8.07912  126  -2.2  100   -2.2  0     0     982.3    NA       0.0000   -SN      BR    1600  230  
2019/08/15  03:38:00  BASE  6.8796   125  8.07912  126  -2.2  100   -2.2  0     0     982.3    NA       0.0000   -SN      BR    3200  230  
2019/08/15  03:39:00  BASE  6.81492  124  8.07912  126  -2.2  100   -2.2  0     0     982.3    NA       0.0000   -SN      BR    3100  0    
2019/08/15  03:40:00  BASE  6.92076  122  7.86744  125  -2.2  100   -2.2  0     0     982.3    NA       0.0000   -SN      BR    3300  0    
2019/08/15  03:41:00  BASE  6.96192  119  7.80276  132  -2.2  100   -2.2  0     0     982.3    NA       0.0000   -SN      BR    3300  0    
2019/08/15  03:42:00  BASE  7.0266   119  7.80276  132  -2.2  100   -2.2  0     0     982.3    NA       0.0000   -SN      BR    3300  230  
2019/08/15  03:43:00  BASE  7.35     123  8.4672   135  -2.2  100   -2.2  0     0     982.2    NA       0.0000   -SN      BR    2100  230  
2019/08/15  03:44:01  BASE  7.27356  128  8.4672   135  -2.2  100   -2.2  0     0     982.2    NA       0.0000   -SN      BR    1900  260  
2019/08/15  03:45:00  BASE  6.92076  129  8.4672   135  -2.2  100   -2.2  0     0     982.2    NA       0.0000   -SN      BR    3400  230  
2019/08/15  03:46:00  BASE  6.615    129  8.4672   135  -2.2  100   -2.2  0     0     982.2    NA       0.0000   -SN      BR    2200  260  
2019/08/15  03:47:00  BASE  6.25632  126  8.4672   135  -2.2  100   -2.2  0     0     982.2    NA       0.0000   -SN      BR    1900  0    
2019/08/15  03:48:00  BASE  6.29748  127  8.4672   135  -2.2  100   -2.2  0     0     982.2    NA       0.0000   -SN      BR    3300  0    
2019/08/15  03:49:00  BASE  6.76788  129  8.4672   135  -2.2  100   -2.2  0     0     982.2    NA       0.0000   -SN      BR    2200  0    
2019/08/15  03:50:00  BASE  6.99132  130  8.4672   135  -2.2  100   -2.2  0     0     982.2    NA       0.0000   -SN      BR    1900  0    
2019/08/15  03:51:00  BASE  6.99132  131  8.4672   135  -2.2  100   -2.2  0     0     982.2    NA       0.0000   -SN      BR    2300  0    
2019/08/15  03:52:00  BASE  7.03248  130  8.4672   135  -2.2  100   -2.2  0     0     982.2    NA       0.0000   -SN      BR    1600  260  
2019/08/15  03:53:00  BASE  6.83844  131  7.80276  131  -2.2  100   -2.2  0     0     982.2    NA       0.0000   -SN      BR    1600  260  
2019/08/15  03:54:00  BASE  6.72672  131  7.80276  131  -2.2  100   -2.2  0     0     982.2    NA       0.0000   -SN      BR    1700  260  
2019/08/15  03:55:00  BASE  6.75612  130  7.74396  133  -2.2  100   -2.2  0     0     982.2    NA       0.0000   -SN      BR    1800  260  
2019/08/15  03:56:00  BASE  6.57972  128  7.74396  133  -2.3  100   -2.3  0     0     982.2    NA       0.0000   -SN      BR    2200  260  
2019/08/15  03:57:00  BASE  6.35628  124  7.74396  133  -2.3  100   -2.3  0     0     982.2    NA       0.0000   -SN      BR    3500  260  
2019/08/15  03:58:00  BASE  6.36216  124  7.74396  133  -2.3  100   -2.3  0     0     982.2    NA       0.0000   -SN      BR    3500  260  
2019/08/15  03:59:00  BASE  6.25632  126  7.74396  133  -2.3  100   -2.3  0     0     982.2    NA       0.0000   -SN      BR    2300  260  
2019/08/15  04:00:00  BASE  6.24456  127  7.74396  133  -2.2  100   -2.2  0     0     982.2    NA       0.0000   -SN      BR    1800  260  
2019/08/15  04:02:04  BASE  6.30336  126  7.74396  133  -2.2  100   -2.2  0     0     982.2    NA       0.0000   -SN      BR    2000  260  
2019/08/15  04:03:05  BASE  6.0564   125  7.4088   134  -2.2  100   -2.2  0     0     982.2    NA       0.0000   -SN      BR    2100  260  
2019/08/15  04:04:01  BASE  5.80944  123  7.4088   134  -2.2  100   -2.2  0     0     982.2    NA       0.0000   -SN      BR    2600  260  
2019/08/15  04:05:04  BASE  5.63892  122  7.2618   132  -2.2  100   -2.2  0     0     982.2    NA       0.0000   -SN      BR    3600  230  
2019/08/15  04:06:04  BASE  5.52132  119  7.13832  116  -2.2  100   -2.2  0     0     982.2    NA       0.0000   -SN      BR    3500  200  
2019/08/15  04:07:04  BASE  5.39196  119  7.13832  116  -2.2  100   -2.2  0     0     982.2    NA       0.0000   -SN      BR    3500  200  
2019/08/15  04:08:04  BASE  5.30964  119  7.13832  116  -2.1  100   -2.1  0     0     982.2    NA       0.0000   -SN      BR    3500  200  
2019/08/15  04:09:04  BASE  5.22732  119  7.13832  116  -2.1  100   -2.1  0     0     982.3    NA       0.0000   -SN      BR    3600  230  
2019/08/15  04:10:04  BASE  5.145    119  7.13832  116  -2.1  100   -2.1  0     0     982.3    NA       0.0000   -SN      BR    3600  230  
2019/08/15  04:11:04  BASE  5.0568   121  6.71496  129  -2.1  100   -2.1  0     0     982.3    NA       0.0000   -SN      BR    3700  230  
2019/08/15  04:12:04  BASE  4.83336  125  6.321    122  -2.1  100   -2.1  0     0     982.3    NA       0.0000   -SN      BR    3700  260  
2019/08/15  04:13:04  BASE  4.53936  129  6.05052  126  -2.1  100   -2.1  0     0     982.3    NA       0.0000   -SN      BR    3600  300  
2019/08/15  04:14:04  BASE  4.39236  130  5.86824  120  -2.1  100   -2.1  0     0     982.3    NA       0.0000   -SN      BR    3600  300  
2019/08/15  04:15:04  BASE  4.32768  132  5.80944  122  -2.1  100   -2.1  0     0     982.3    NA       0.0000   -SN      BR    3500  330  
2019/08/15  04:16:04  BASE  4.2336   132  5.71536  119  -2.1  100   -2.1  0     0     982.3    NA       0.0000   -SN      BR    3400  330  
2019/08/15  04:17:04  BASE  4.16892  130  5.47428  119  -2.1  100   -2.1  0     0     982.3    NA       0.0000   -SN      BR    3500  300  
2019/08/15  04:18:04  BASE  4.27476  130  5.47428  119  -2.1  100   -2.1  0     0     982.3    NA       0.0000   -SN      BR    3800  330  
2019/08/15  04:19:05  BASE  4.37472  130  5.38608  120  -2.1  100   -2.1  0     0     982.3    NA       0.0000   -SN      BR    3600  330  
2019/08/15  04:20:04  BASE  4.35708  129  5.2332   120  -2.1  100   -2.1  0     0     982.3    NA       0.0000   -SN      BR    3700  330  
2019/08/15  04:21:04  BASE  4.30416  127  4.96272  126  -2.1  100   -2.1  0     0     982.3    NA       0.0000   -SN      BR    3700  390  
2019/08/15  04:22:04  BASE  4.263    124  4.75104  118  -2.1  100   -2.1  0     0     982.3    NA       0.0000   -SN      BR    3900  360  
2019/08/15  04:23:04  BASE  4.42176  122  4.96272  125  -2.1  100   -2.1  0     0     982.3    NA       0.0000   -SN      BR    4400  300  
2019/08/15  04:24:04  BASE  4.42176  123  4.96272  125  -2.1  100   -2.1  0     0     982.3    NA       0.0000   -SN      BR    4000  330  
2019/08/15  04:25:04  BASE  4.26888  124  4.96272  125  -2.1  100   -2.1  0     0     982.3    NA       0.0000   -SN      BR    3800  360  
2019/08/15  04:26:04  BASE  4.25124  123  4.96272  125  -2.1  100   -2.1  0     0     982.3    NA       0.0000   -SN      BR    5000  360  
2019/08/15  04:27:04  BASE  4.43352  122  4.96272  125  -2.1  100   -2.1  0     0     982.3    NA       0.0000   -SN      BR    5000  0    
2019/08/15  04:28:04  BASE  4.49232  123  4.96272  125  -2.0  100   -2.0  0     0     982.3    NA       0.0000   -SN      BR    4200  0    
2019/08/15  04:29:14  BASE  4.28064  125  4.96272  125  -2.0  100   -2.0  0     0     982.3    NA       0.0000   -SN      BR    5000  360  
2019/08/15  04:30:01  BASE  4.31592  123  4.96272  125  -2.0  100   -2.0  0     0     982.3    NA       0.0000   -SN      BR    4700  330  
2019/08/15  04:31:06  BASE  4.33944  123  4.96272  125  -2.0  100   -2.0  0     0     982.3    NA       0.0000   -SN      BR    4000  360  
2019/08/15  04:32:04  BASE  4.33944  124  4.96272  125  -2.0  100   -2.0  0     0     982.3    NA       0.0000   -SN      BR    4100  0    
2019/08/15  04:33:04  BASE  4.28652  121  4.80984  127  -2.0  100   -2.0  0     0     982.3    NA       0.0000   -SN      BR    3300  0    
2019/08/15  04:34:04  BASE  4.18068  118  4.80984  127  -2.0  100   -2.0  0     0     982.3    NA       0.0000   -SN      BR    3500  0    
2019/08/15  04:35:04  BASE  4.15716  116  4.80984  127  -2.0  100   -2.0  0     0     982.3    NA       0.0000   -SN      BR    3900  330  
2019/08/15  04:36:05  BASE  4.08072  113  4.80984  127  -2.0  100   -2.0  0     0     982.3    NA       0.0000   -SN      BR    3700  330  
2019/08/15  04:37:04  BASE  4.09248  110  4.80984  127  -2.0  100   -2.0  0     0     982.3    NA       0.0000   -SN      BR    3400  330  
2019/08/15  04:38:03  BASE  4.24536  105  4.68636  124  -2.0  100   -2.0  0     0     982.3    NA       0.0000   -SN      BR    3700  360  
2019/08/15  04:39:04  BASE  4.31592  100  4.68636  124  -2.0  100   -2.0  0     0     982.3    NA       0.0000   -SN      BR    3600  330  
2019/08/15  04:40:03  BASE  4.05132  95   4.53936  125  -2.0  100   -2.0  0     0     982.3    NA       0.0000   -SN      BR    3500  360  
2019/08/15  04:41:04  BASE  3.53388  89   4.53936  125  -2.0  100   -2.0  0     0     982.2    NA       0.0000   -SN      BR    5000  360  
2019/08/15  04:42:04  BASE  3.29868  84   4.50996  113  -2.0  100   -2.0  0     0     982.2    NA       0.0000   -SN      BR    5000  2000 
2019/08/15  04:43:05  BASE  3.19872  86   4.50996  113  -2.0  100   -2.0  0     0     982.3    NA       0.0000   -SN      BR    9999  2030 
2019/08/15  04:44:05  BASE  3.12228  88   4.50996  113  -2.0  100   -2.0  0     0     982.3    NA       0.0000   -SN      BR    9999  1940 
2019/08/15  04:45:04  BASE  2.86944  94   4.47468  99   -2.0  100   -2.0  0     0     982.3    NA       0.0000   -SN      BR    9999  0    
2019/08/15  04:46:04  BASE  2.66952  105  4.47468  99   -2.0  100   -2.0  0     0     982.3    NA       0.0000   -SN      BR    9999  5220 
2019/08/15  04:47:04  BASE  2.74596  110  4.47468  99   -2.0  100   -2.0  0     0     982.3    NA       0.0000   -SN      BR    9999  2920 
2019/08/15  04:48:04  BASE  2.5872   122  4.47468  99   -2.0  100   -2.0  0     0     982.3    NA       0.0000   -SN      BR    9999  3280 
2019/08/15  04:49:05  BASE  2.47548  140  3.99252  94   -2.0  100   -2.0  0     0     982.3    NA       0.0000   -SN      BR    9999  6530 
2019/08/15  04:50:04  BASE  2.7636   157  3.62796  172  -2.1  100   -2.1  0     0     982.3    NA       0.0000   -SN      9999  6370  0    
2019/08/15  04:51:04  BASE  3.35748  170  3.81024  172  -2.1  100   -2.1  0     0     982.3    NA       0.0000   -SN      9999  5610  0    
2019/08/15  04:52:04  BASE  3.7632   172  3.96312  169  -2.1  100   -2.1  0     0     982.3    NA       0.0000   9999     5020  0     0    
2019/08/15  04:53:05  BASE  3.84552  167  4.02192  165  -2.2  100   -2.2  0     0     982.3    NA       0.0000   9999     5640  0     0    
2019/08/15  04:54:02  BASE  3.59856  161  4.02192  165  -2.2  100   -2.2  0     0     982.3    NA       0.0000   9999     6370  0     0    
2019/08/15  04:55:04  BASE  3.15756  160  4.02192  165  -2.2  100   -2.2  0     0     982.3    NA       0.0000   9999     1640  0     0    
2019/08/15  04:56:04  BASE  2.95176  154  4.02192  165  -2.3  100   -2.3  0     0     982.3    NA       0.0000   9999     0     0     0    
2019/08/15  04:57:04  BASE  2.95764  144  4.02192  165  -2.3  100   -2.3  0     0     982.3    NA       0.0000   9999     0     0     0    
2019/08/15  04:58:05  BASE  3.31632  143  4.02192  165  -2.3  100   -2.3  0     0     982.2    NA       0.0000   9999     0     0     0    
2019/08/15  04:59:05  BASE  3.41628  150  4.02192  165  -2.2  100   -2.2  0     0     982.2    NA       0.0000   9999     0     0     0    
2019/08/15  05:00:04  BASE  3.51036  154  4.2042   158  -2.2  100   -2.2  0     0     982.2    NA       0.0000   9999     0     0     0    
2019/08/15  05:01:04  BASE  3.90432  154  4.2042   158  -2.1  100   -2.1  0     0     982.2    NA       0.0000   9999     0     0     0    
2019/08/15  05:02:05  BASE  3.90432  153  4.41588  154  -2.1  100   -2.1  0     0     982.2    NA       0.0000   9999     0     0     0    
2019/08/15  05:03:06  BASE  3.66912  150  4.41588  154  -2.1  100   -2.1  0     0     982.2    NA       0.0000   9999     0     0     0    
2019/08/15  05:04:01  BASE  3.16344  145  4.41588  154  -2.1  100   -2.1  0     0     982.2    NA       0.0000   9999     0     0     0    
2019/08/15  05:05:04  BASE  2.86944  139  4.41588  154  -2.1  100   -2.1  0     0     982.2    NA       0.0000   9999     0     0     0    
2019/08/15  05:06:04  BASE  3.01056  136  4.41588  154  -2.1  100   -2.1  0     0     982.2    NA       0.0000   -SN      9999  0     0    
2019/08/15  05:07:04  BASE  3.23988  135  4.41588  154  -2.1  100   -2.1  0     0     982.2    NA       0.0000   -SN      9999  3940  0    
2019/08/15  05:08:04  BASE  3.25164  143  4.41588  154  -2.0  100   -2.0  0     0     982.1    NA       0.0000   -SN      9999  3770  0    
2019/08/15  05:09:04  BASE  2.51664  145  4.41588  154  -2.0  100   -2.0  0     0     982.1    NA       0.0000   -SN      9999  3900  0    
2019/08/15  05:10:04  BASE  2.22852  138  4.41588  154  -2.0  100   -2.0  0     0     982.1    NA       0.0000   -SN      9999  0     0    
2019/08/15  05:11:04  BASE  2.65776  138  4.41588  154  -2.0  100   -2.0  0     0     982.1    NA       0.0000   -SN      9999  4100  0    
2019/08/15  05:12:04  BASE  2.92236  125  3.86904  120  -2.0  100   -2.0  0     0     982.1    NA       0.0000   -SN      9999  4100  0    
2019/08/15  05:13:04  BASE  3.00468  118  3.86904  120  -2.0  100   -2.0  0     0     982.1    NA       0.0000   -SN      9999  4100  0    
2019/08/15  05:14:04  BASE  2.95764  120  3.86904  120  -2.0  100   -2.0  0     0     982.0    NA       0.0000   -SN      9999  4000  0    
2019/08/15  05:15:05  BASE  3.04584  115  3.86904  120  -1.9  100   -1.9  0     0     982.0    NA       0.0000   -SN      9999  3900  0    
2019/08/15  05:16:05  BASE  3.98664  111  5.08032  111  -1.9  100   -1.9  0     0     982.0    NA       0.0000   -SN      9999  0     0    
2019/08/15  05:17:05  BASE  5.20968  108  5.74476  108  -1.9  100   -1.9  0     0     982.0    NA       0.0000   -SN      9999  4070  0    
2019/08/15  05:18:05  BASE  5.60952  109  6.2622   119  -1.9  100   -1.9  0     0     982.0    NA       0.0000   -SN      9999  3280  4040 
2019/08/15  05:19:02  BASE  5.76828  109  6.2622   119  -1.8  100   -1.8  0     0     982.0    NA       0.0000   -SN      9999  6200  0    
2019/08/15  05:20:04  BASE  5.53896  111  6.2622   119  -1.8  100   -1.8  0     0     981.8    NA       0.0000   9999     3220  4330  0    
2019/08/15  05:21:05  BASE  5.31552  116  6.2622   119  -1.7  100   -1.7  0     0     981.8    NA       0.0000   9999     4130  0     0    
2019/08/15  05:22:01  BASE  5.15676  118  6.2622   119  -1.6  100   -1.6  0     0     981.8    NA       0.0000   9999     2030  0     0    
2019/08/15  05:23:04  BASE  5.15088  118  6.2622   119  -1.5  100   -1.5  0     0     981.8    NA       0.0000   9999     4170  0     0    
2019/08/15  05:24:05  BASE  5.32728  121  6.2622   119  -1.4  100   -1.4  0     0     981.7    NA       0.0000   9999     2100  0     0    
2019/08/15  05:25:05  BASE  5.18616  122  6.2622   119  -1.4  100   -1.4  0     0     981.7    NA       0.0000   9999     3970  0     0    
2019/08/15  05:26:05  BASE  5.02152  124  6.2622   119  -1.3  100   -1.3  0     0     981.7    NA       0.0000   9999     4040  0     0    
2019/08/15  05:27:01  BASE  5.42136  125  6.74436  115  -1.3  100   -1.3  0     0     981.7    NA       0.0000   9999     4000  9350  0    
2019/08/15  05:28:05  BASE  5.50956  123  6.74436  115  -1.2  100   -1.2  0     0     981.7    NA       0.0000   9999     4130  9350  0    
2019/08/15  05:29:05  BASE  4.99212  122  6.74436  115  -1.1  100   -1.1  0     0     981.7    NA       0.0000   9999     9320  0     0    
2019/08/15  05:30:04  BASE  4.82748  116  6.74436  115  -1.1  100   -1.1  0     0     981.7    NA       0.0000   9999     4170  9450  0    
2019/08/15  05:31:05  BASE  4.54524  111  6.74436  115  -1.0  100   -1.0  0     0     981.7    NA       0.0000   9999     4230  9940  0    
2019/08/15  05:32:05  BASE  4.12188  115  6.74436  115  -1.0  100   -1.0  0     0     981.7    NA       0.0000   9999     4270  0     0    
2019/08/15  05:33:04  BASE  3.69264  108  6.74436  115  -1.0  100   -1.0  0     0     981.7    NA       0.0000   9999     4170  0     0    
2019/08/15  05:34:05  BASE  3.3516   87   6.74436  115  -1.0  100   -1.0  0     0     981.7    NA       0.0000   9999     4070  0     0    
2019/08/15  05:35:01  BASE  3.25164  75   6.74436  115  -1.0  99    -1.0  0     0     981.7    NA       0.0000   9999     4130  0     0    
2019/08/15  05:36:05  BASE  3.47508  78   6.74436  115  -1.0  99    -1.2  0     0     981.7    NA       0.0000   9999     4130  0     0    
2019/08/15  05:37:02  BASE  3.42216  80   5.68596  120  -1.0  98    -1.3  0     0     981.7    NA       0.0000   9999     4200  9780  0    
2019/08/15  05:38:05  BASE  2.9106   73   5.53308  109  -0.9  96    -1.4  0     0     981.8    NA       0.0000   9999     4200  9710  0    
2019/08/15  05:39:04  BASE  2.19324  45   5.47428  103  -0.9  95    -1.6  0     0     981.8    NA       0.0000   9999     4300  0     0    
2019/08/15  05:40:04  BASE  2.05212  355  5.1744   112  -0.9  94    -1.8  0     0     981.8    NA       0.0000   9999     4070  0     0    
2019/08/15  05:41:05  BASE  2.81652  332  4.29828  109  -1.0  93    -2.0  0     0     981.7    NA       0.0000   9999     4040  0     0    
2019/08/15  05:42:04  BASE  3.1458   330  3.96312  72   -1.1  93    -2.1  0     0     981.8    NA       0.0000   9999     4100  0     0    
2019/08/15  05:43:05  BASE  2.97528  332  3.96312  72   -1.2  93    -2.3  0     0     981.8    NA       0.0000   9999     4130  0     0    
2019/08/15  05:44:05  BASE  3.0576   336  3.96312  72   -1.4  94    -2.3  0     0     981.9    NA       0.0000   9999     4170  0     0    
2019/08/15  05:45:05  BASE  2.74596  346  3.96312  72   -1.5  95    -2.2  0     0     982.0    NA       0.0000   9999     4230  0     0    
2019/08/15  05:46:04  BASE  2.13444  355  3.96312  72   -1.6  97    -2.0  0     0     982.0    NA       0.0000   9999     4230  0     0    
2019/08/15  05:47:01  BASE  1.65816  353  3.65736  320  -1.6  98    -1.8  0     0     982.0    NA       0.0000   9999     4270  0     0    
2019/08/15  05:48:04  BASE  1.74048  347  3.65736  320  -1.6  99    -1.7  0     0     982.0    NA       0.0000   9999     4300  0     0    
2019/08/15  05:49:05  BASE  2.25204  344  3.65736  320  -1.5  100   -1.6  0     0     982.0    NA       0.0000   9999     4230  0     0    
2019/08/15  05:50:04  BASE  2.74596  336  3.65736  320  -1.5  100   -1.5  0     0     982.0    NA       0.0000   9999     4270  0     0    
2019/08/15  05:51:05  BASE  2.79888  328  3.53976  339  -1.6  100   -1.6  0     0     982.0    NA       0.0000   9999     4330  0     0    
2019/08/15  05:52:01  BASE  2.29908  329  3.53976  339  -1.6  100   -1.6  0     0     982.0    NA       0.0000   9999     4400  0     0    
2019/08/15  05:53:04  BASE  1.78752  330  3.53976  339  -1.6  100   -1.6  0     0     982.1    NA       0.0000   9999     4360  0     0    
2019/08/15  05:54:04  BASE  1.4112   318  3.2046   331  -1.7  100   -1.7  0     0     982.1    NA       0.0000   9999     4430  0     0    
2019/08/15  05:55:05  BASE  1.45236  311  3.2046   331  -1.7  100   -1.7  0     0     982.1    NA       0.0000   9999     4630  0     0    
2019/08/15  05:56:05  BASE  1.35828  318  3.2046   331  -1.7  100   -1.7  0     0     982.2    NA       0.0000   9999     4490  0     0    
2019/08/15  05:57:01  BASE  1.48176  333  3.2046   331  -1.7  100   -1.7  0     0     982.2    NA       0.0000   9999     4490  0     0    
2019/08/15  05:58:05  BASE  1.8816   353  3.2046   331  -1.7  100   -1.7  0     0     982.3    NA       0.0000   9999     4630  0     0    
2019/08/15  05:59:04  BASE  2.04036  2    3.2046   331  -1.8  100   -1.8  0     0     982.3    NA       0.0000   9999     4560  0     0    
2019/08/15  06:00:04  BASE  1.92276  352  2.87532  331  -1.8  100   -1.8  0     0     982.3    NA       0.0000   9999     4720  0     0    
2019/08/15  06:01:05  BASE  1.75812  338  2.63424  331  -1.9  100   -1.9  0     0     982.3    NA       0.0000   9999     4690  0     0    
2019/08/15  06:02:01  BASE  1.56408  337  2.32848  6    -1.9  100   -1.9  0     0     982.3    NA       0.0000   9999     4590  0     0    
2019/08/15  06:03:06  BASE  0.89964  12   2.32848  6    -1.9  100   -1.9  0     0     982.3    NA       0.0000   9999     4760  0     0    
2019/08/15  06:04:01  BASE  0.22344  27   2.32848  6    -1.8  100   -1.8  0     0     982.3    NA       0.0000   9999     4760  0     0    
2019/08/15  06:05:04  BASE  0.147    34   2.32848  6    -1.8  100   -1.8  0     0     982.3    NA       0.0000   9999     4790  0     0    
2019/08/15  06:06:05  BASE  0.22932  41   2.32848  6    -1.7  100   -1.7  0     0     982.3    NA       0.0000   9999     4920  0     0    
2019/08/15  06:07:01  BASE  0.13524  3    2.32848  6    -1.7  100   -1.7  0     0     982.3    NA       0.0000   9999     5090  0     0    
2019/08/15  06:08:05  BASE  0.19404  321  2.24028  5    -1.6  100   -1.6  0     0     982.3    NA       0.0000   9999     5120  0     0    
2019/08/15  06:09:04  BASE  0.37632  289  1.9992   351  -1.6  100   -1.6  0     0     982.4    NA       0.0000   9999     4990  0     0    
2019/08/15  06:10:04  BASE  0.37044  299  1.90512  336  -1.6  100   -1.6  0     0     982.5    NA       0.0000   9999     5090  0     0    
2019/08/15  06:11:04  BASE  0.57624  24   1.69344  333  -1.6  100   -1.6  0     0     982.6    NA       0.0000   9999     5180  0     0    
2019/08/15  06:12:01  BASE  0.92904  28   1.1466   264  -1.6  100   -1.6  0     0     982.6    NA       0.0000   9999     5250  0     0    
2019/08/15  06:13:05  BASE  1.0584   356  1.39356  332  -1.7  100   -1.7  0     0     982.6    NA       0.0000   9999     5220  0     0    
2019/08/15  06:14:04  BASE  0.7056   334  1.39356  332  -1.8  100   -1.8  0     0     982.6    NA       0.0000   9999     5250  0     0    
2019/08/15  06:15:04  BASE  0.441    356  1.39356  332  -1.8  100   -1.8  0     0     982.7    NA       0.0000   9999     5350  0     0    
2019/08/15  06:16:05  BASE  0.7056   26   1.39356  332  -1.8  100   -1.8  0     0     982.7    NA       0.0000   9999     5410  0     0    
2019/08/15  06:17:01  BASE  0.77028  22   1.39356  332  -1.9  100   -1.9  0     0     982.7    NA       0.0000   9999     5410  0     0    
2019/08/15  06:18:05  BASE  0.441    347  1.39356  332  -1.8  100   -1.8  0     0     982.7    NA       0.0000   9999     5540  0     0    
2019/08/15  06:19:04  BASE  0.2058   296  1.39356  332  -1.8  100   -1.8  0     0     982.7    NA       0.0000   9999     5320  0     0    
2019/08/15  06:20:04  BASE  0.46452  260  1.39356  332  -1.8  100   -1.8  0     0     982.7    NA       0.0000   9999     5180  0     0    
2019/08/15  06:21:04  BASE  0.97608  245  1.45236  240  -1.9  100   -1.9  0     0     982.7    NA       0.0000   9999     5220  0     0    
2019/08/15  06:22:01  BASE  1.2642   242  1.45236  240  -1.9  100   -1.9  0     0     982.7    NA       0.0000   9999     5150  0     0    
2019/08/15  06:23:04  BASE  1.14072  242  1.45236  240  -1.9  100   -1.9  0     0     982.7    NA       0.0000   9999     5150  0     0    
2019/08/15  06:24:05  BASE  0.57036  236  1.45236  240  -1.9  100   -1.9  0     0     982.8    NA       0.0000   9999     5180  0     0    
2019/08/15  06:25:04  BASE  0.05292  232  1.45236  240  -1.9  100   -1.9  0     0     982.8    NA       0.0000   9999     5280  0     0    
2019/08/15  06:26:05  BASE  0        231  1.45236  240  -2.0  100   -2.0  0     0     982.9    NA       0.0000   9999     5580  0     0    
2019/08/15  06:27:01  BASE  0        231  1.45236  240  -2.0  100   -2.0  0     0     982.9    NA       0.0000   9999     5640  0     0    
2019/08/15  06:28:05  BASE  0        229  1.45236  240  -2.0  100   -2.0  0     0     982.9    NA       0.0000   9999     5540  0     0    
2019/08/15  06:29:04  BASE  0        235  1.45236  240  -2.0  100   -2.0  0     0     982.9    NA       0.0000   9999     5610  0     0    
2019/08/15  06:30:04  BASE  0        35   1.45236  240  -1.9  100   -1.9  0     0     982.9    NA       0.0000   9999     5610  0     0    
2019/08/15  06:31:05  BASE  0        82   1.32888  244  -1.9  100   -1.9  0     0     982.9    NA       0.0000   9999     5710  0     0    
2019/08/15  06:32:01  BASE  0.32928  180  1.29948  241  -1.9  100   -1.9  0     0     982.9    NA       0.0000   9999     5740  0     0    
2019/08/15  06:33:04  BASE  0.58212  212  0.75852  210  -1.9  100   -1.9  0     0     982.9    NA       0.0000   9999     5810  0     0    
2019/08/15  06:34:05  BASE  0.35868  206  0.75852  210  -1.9  100   -1.9  0     0     982.9    NA       0.0000   9999     5710  0     0    
2019/08/15  06:35:05  BASE  0.15876  197  0.75852  210  -1.9  100   -1.9  0     0     982.9    NA       0.0000   9999     6040  0     0    
2019/08/15  06:36:05  BASE  0.3528   192  0.75852  194  -1.9  100   -1.9  0     0     982.9    NA       0.0000   9999     5970  0     0    
2019/08/15  06:37:01  BASE  0.7644   194  1.0878   208  -1.9  100   -1.9  0     0     982.9    NA       0.0000   9999     5910  0     0    
2019/08/15  06:38:04  BASE  0.94668  201  1.1172   204  -1.9  100   -1.9  0     0     982.9    NA       0.0000   9999     5940  0     0    
2019/08/15  06:39:05  BASE  0.50568  192  1.1172   204  -1.9  100   -1.9  0     0     982.9    NA       0.0000   9999     5910  0     0    
2019/08/15  06:40:04  BASE  0.0294   165  1.1172   204  -2.0  100   -2.0  0     0     982.9    NA       0.0000   9999     5870  0     0    
2019/08/15  06:41:05  BASE  0        140  1.1172   204  -2.0  100   -2.0  0     0     982.9    NA       0.0000   9999     5940  0     0    
2019/08/15  06:42:02  BASE  0.0294   133  1.1172   204  -2.0  100   -2.0  0     0     982.9    NA       0.0000   9999     5970  0     0    
2019/08/15  06:43:05  BASE  0.56448  118  1.48176  94   -2.0  100   -2.0  0     0     982.9    NA       0.0000   9999     5970  0     0    
2019/08/15  06:44:04  BASE  1.18188  107  1.69344  130  -2.0  100   -2.0  0     0     982.9    NA       0.0000   9999     6000  0     0    
2019/08/15  06:45:04  BASE  1.617    112  2.35788  115  -2.0  100   -2.0  0     0     982.9    NA       0.0000   9999     5910  0     0    
2019/08/15  06:46:05  BASE  1.59936  111  2.35788  115  -2.0  100   -2.0  0     0     983.0    NA       0.0000   9999     5870  0     0    
2019/08/15  06:47:04  BASE  1.00548  111  2.35788  115  -2.0  100   -2.0  0     0     983.1    NA       0.0000   9999     5970  0     0    
2019/08/15  06:48:04  BASE  0.65856  112  2.35788  115  -2.0  100   -2.0  0     0     983.1    NA       0.0000   9999     6040  0     0    
2019/08/15  06:49:04  BASE  0.69972  125  2.35788  115  -2.0  100   -2.0  0     0     983.1    NA       0.0000   9999     5910  0     0    
2019/08/15  06:50:04  BASE  1.39356  144  2.35788  115  -2.0  100   -2.0  0     0     983.1    NA       0.0000   9999     5940  0     0    
2019/08/15  06:51:04  BASE  1.96392  156  2.35788  115  -2.0  100   -2.0  0     0     983.1    NA       0.0000   9999     5840  0     0    
2019/08/15  06:52:04  BASE  2.78124  160  4.65696  158  -2.1  100   -2.1  0     0     983.1    NA       0.0000   9999     6000  0     0    
2019/08/15  06:53:04  BASE  3.92196  159  4.86864  154  -2.0  100   -2.0  0     0     983.0    NA       0.0000   9999     5940  0     0    
2019/08/15  06:54:05  BASE  4.09248  140  4.86864  154  -2.0  100   -2.0  0     0     983.1    NA       0.0000   9999     5940  0     0    
2019/08/15  06:55:04  BASE  3.63384  120  4.86864  154  -2.0  100   -2.0  0     0     983.0    NA       0.0000   9999     5940  0     0    
2019/08/15  06:56:05  BASE  3.38688  113  4.86864  154  -1.9  100   -1.9  0     0     983.0    NA       0.0000   9999     5810  0     0    
2019/08/15  06:57:01  BASE  3.89256  118  5.145    115  -1.9  100   -1.9  0     0     983.1    NA       0.0000   9999     5580  0     0    
2019/08/15  06:58:04  BASE  4.6158   131  5.80944  139  -1.9  100   -1.9  0     0     983.1    NA       0.0000   9999     5870  0     0    
2019/08/15  06:59:05  BASE  5.02152  137  5.80944  139  -1.9  100   -1.9  0     0     983.1    NA       0.0000   9999     5870  0     0    
2019/08/15  07:00:04  BASE  4.87452  137  5.80944  139  -1.9  100   -1.9  0     0     983.2    NA       0.0000   9999     5180  0     0    
2019/08/15  07:01:04  BASE  4.7922   137  5.80944  139  -1.9  100   -1.9  0     0     983.2    NA       0.0000   9999     5220  0     0    
2019/08/15  07:02:05  BASE  4.70988  138  5.80944  139  -1.9  100   -1.9  0     0     983.2    NA       0.0000   9999     5580  0     0    
2019/08/15  07:03:06  BASE  4.45116  141  5.80944  139  -1.9  100   -1.9  0     0     983.2    NA       0.0000   9999     5840  0     0    
2019/08/15  07:04:01  BASE  4.12188  144  5.80944  139  -1.9  100   -1.9  0     0     983.2    NA       0.0000   9999     5910  0     0    
2019/08/15  07:05:04  BASE  3.53388  146  5.80944  139  -1.9  100   -1.9  0     0     983.2    NA       0.0000   9999     5870  0     0    
2019/08/15  07:06:04  BASE  3.087    143  5.80944  139  -1.9  100   -1.9  0     0     983.3    NA       0.0000   9999     5940  0     0    
2019/08/15  07:07:01  BASE  2.7636   138  5.80944  139  -1.9  100   -1.9  0     0     983.3    NA       0.0000   9999     5870  0     0    
2019/08/15  07:08:05  BASE  2.59308  136  5.68596  143  -1.9  100   -1.9  0     0     983.3    NA       0.0000   9999     6100  0     0    
2019/08/15  07:09:04  BASE  2.81652  122  5.2626   134  -1.9  100   -1.9  0     0     983.3    NA       0.0000   9999     5970  0     0    
2019/08/15  07:10:04  BASE  3.40452  108  5.2626   134  -1.9  100   -1.9  0     0     983.3    NA       0.0000   9999     6040  7510  0    
2019/08/15  07:11:05  BASE  3.49272  106  4.93332  135  -1.8  100   -1.8  0     0     983.3    NA       0.0000   9999     5970  7380  0    
2019/08/15  07:12:04  BASE  3.55152  105  4.80984  135  -1.8  100   -1.8  0     0     983.3    NA       0.0000   9999     5680  7350  0    
2019/08/15  07:13:04  BASE  3.89256  112  4.80984  136  -1.8  100   -1.8  0     0     983.3    NA       0.0000   9999     5280  5710  7350 
2019/08/15  07:14:05  BASE  3.60444  112  4.80984  136  -1.8  100   -1.8  0     0     983.3    NA       0.0000   9999     5540  7510  0    
2019/08/15  07:15:04  BASE  3.4692   106  4.80984  136  -1.9  100   -1.9  0     0     983.3    NA       0.0000   9999     5610  0     0    
2019/08/15  07:16:05  BASE  3.53388  97   4.80984  136  -1.9  100   -1.9  0     0     983.3    NA       0.0000   9999     5510  0     0    
2019/08/15  07:17:04  BASE  3.19872  92   4.80984  136  -2.0  100   -2.0  0     0     983.3    NA       0.0000   9999     5680  6990  0    
2019/08/15  07:18:05  BASE  3.08112  98   4.80984  136  -2.0  100   -2.0  0     0     983.3    NA       0.0000   9999     5680  0     0    
2019/08/15  07:19:04  BASE  3.34572  103  4.80984  136  -2.0  100   -2.0  0     0     983.3    NA       0.0000   9999     7090  0     0    
2019/08/15  07:20:04  BASE  3.49272  102  4.80984  136  -2.0  100   -2.0  0     0     983.3    NA       0.0000   9999     5510  7090  0    
2019/08/15  07:21:04  BASE  3.45156  99   4.80984  136  -2.0  100   -2.0  0     0     983.3    NA       0.0000   9999     5250  6890  0    
2019/08/15  07:22:05  BASE  3.51036  100  4.80984  136  -2.1  100   -2.1  0     0     983.3    NA       0.0000   9999     5090  0     0    
2019/08/15  07:23:05  BASE  3.51624  105  4.53936  112  -2.1  100   -2.1  0     0     983.3    NA       0.0000   9999     5150  7020  0    
2019/08/15  07:24:05  BASE  3.69264  113  4.53936  112  -2.0  100   -2.0  0     0     983.3    NA       0.0000   9999     4760  5610  6960 
2019/08/15  07:25:05  BASE  3.92784  121  4.65696  126  -2.0  100   -2.0  0     0     983.3    NA       0.0000   9999     5220  0     0    
2019/08/15  07:26:05  BASE  4.0278   122  4.65696  126  -2.0  100   -2.0  0     0     983.3    NA       0.0000   9999     5180  0     0    
2019/08/15  07:27:05  BASE  4.25124  119  4.68636  131  -2.0  100   -2.0  0     0     983.3    NA       0.0000   9999     5180  0     0    
2019/08/15  07:28:05  BASE  4.43352  116  4.99212  113  -1.9  100   -1.9  0     0     983.3    NA       0.0000   9999     5090  0     0    
2019/08/15  07:29:05  BASE  4.78632  116  5.78004  121  -1.9  100   -1.9  0     0     983.3    NA       0.0000   9999     5050  0     0    
2019/08/15  07:30:04  BASE  5.0568   114  5.78004  121  -1.9  100   -1.9  0     0     983.4    NA       0.0000   9999     5180  7250  0    
2019/08/15  07:31:05  BASE  4.4982   109  5.78004  121  -1.9  100   -1.9  0     0     983.4    NA       0.0000   9999     5410  0     0    
2019/08/15  07:32:05  BASE  4.30416  113  5.78004  121  -1.9  100   -1.9  0     0     983.4    NA       0.0000   9999     5250  0     0    
2019/08/15  07:33:05  BASE  4.48056  115  5.78004  121  -2.0  100   -2.0  0     0     983.5    NA       0.0000   9999     5350  0     0    
2019/08/15  07:34:05  BASE  4.36296  113  5.78004  121  -2.0  100   -2.0  0     0     983.5    NA       0.0000   9999     5280  0     0    
2019/08/15  07:35:05  BASE  4.01016  112  5.78004  121  -2.0  100   -2.0  0     0     983.5    NA       0.0000   9999     5120  0     0    
2019/08/15  07:36:05  BASE  3.4692   112  5.78004  121  -2.0  100   -2.0  0     0     983.5    NA       0.0000   9999     5180  7190  0    
2019/08/15  07:37:06  BASE  3.28104  117  5.78004  121  -2.0  100   -2.0  0     0     983.5    NA       0.0000   9999     5320  0     0    
2019/08/15  07:38:05  BASE  3.33984  116  5.78004  121  -2.0  100   -2.0  0     0     983.5    NA       0.0000   9999     5320  0     0    
2019/08/15  07:39:05  BASE  3.0282   104  5.74476  119  -2.0  100   -2.0  0     0     983.5    NA       0.0000   9999     5020  0     0    
2019/08/15  07:40:04  BASE  2.54016  90   4.99212  116  -2.0  100   -2.0  0     0     983.6    NA       0.0000   9999     5180  0     0    
2019/08/15  07:41:06  BASE  2.04036  76   4.99212  116  -2.1  100   -2.1  0     0     983.7    NA       0.0000   9999     5020  0     0    
2019/08/15  07:42:02  BASE  1.53468  72   4.99212  116  -2.1  100   -2.1  0     0     983.7    NA       0.0000   9999     5250  0     0    
2019/08/15  07:43:05  BASE  1.2054   88   4.99212  116  -2.1  100   -2.1  0     0     983.7    NA       0.0000   9999     5320  0     0    
2019/08/15  07:44:05  BASE  0.95256  106  4.75104  118  -2.1  100   -2.1  0     0     983.8    NA       0.0000   9999     5280  0     0    
2019/08/15  07:45:05  BASE  0.62916  106  4.1454   126  -2.1  100   -2.1  0     0     983.9    NA       0.0000   9999     4760  0     0    
2019/08/15  07:46:05  BASE  0.34104  117  4.1454   126  -2.0  100   -2.0  0     0     983.9    NA       0.0000   9999     5380  0     0    
2019/08/15  07:47:02  BASE  0.19992  131  3.41628  122  -2.0  100   -2.0  0     0     983.9    NA       0.0000   9999     5280  0     0    
2019/08/15  07:48:05  BASE  0.11172  110  3.35748  109  -1.9  100   -1.9  0     0     983.9    NA       0.0000   9999     5450  0     0    
2019/08/15  07:49:05  BASE  0.29988  104  2.69304  92   -1.8  100   -1.8  0     0     983.9    NA       0.0000   9999     5350  0     0    
2019/08/15  07:50:04  BASE  0.96432  118  2.24028  70   -1.7  100   -1.7  0     0     983.9    NA       0.0000   9999     5350  0     0    
2019/08/15  07:51:04  BASE  1.029    128  1.57584  105  -1.6  100   -1.6  0     0     984.0    NA       0.0000   9999     5320  0     0    
2019/08/15  07:52:05  BASE  0.78204  142  1.63464  142  -1.6  100   -1.6  0     0     984.0    NA       0.0000   9999     5510  0     0    
2019/08/15  07:53:04  BASE  0.69972  142  1.72284  120  -1.6  100   -1.6  0     0     984.0    NA       0.0000   9999     5410  0     0    
2019/08/15  07:54:05  BASE  0.28812  168  1.72284  120  -1.6  100   -1.6  0     0     984.0    NA       0.0000   9999     5050  0     0    
2019/08/15  07:55:04  BASE  0.18816  181  1.72284  120  -1.6  100   -1.6  0     0     984.0    NA       0.0000   9999     5510  0     0    
2019/08/15  07:56:05  BASE  0.21756  166  1.72284  120  -1.6  100   -1.6  0     0     984.0    NA       0.0000   9999     5680  0     0    
2019/08/15  07:57:04  BASE  0.0294   178  1.72284  120  -1.6  100   -1.6  0     0     984.0    NA       0.0000   9999     5680  0     0    
2019/08/15  07:58:05  BASE  0        347  1.72284  120  -1.6  100   -1.6  0     0     984.1    NA       0.0000   9999     5740  0     0    
2019/08/15  07:59:04  BASE  0.02352  22   1.72284  120  -1.6  100   -1.6  0     0     984.1    NA       0.0000   9999     5740  0     0    
2019/08/15  08:00:04  BASE  0.08232  103  1.72284  120  -1.6  100   -1.6  0     0     984.1    NA       0.0000   9999     5680  0     0    
2019/08/15  08:01:04  BASE  0.4998   177  2.72244  178  -1.6  100   -1.6  0     0     984.1    NA       0.0000   9999     5090  0     0    
2019/08/15  08:02:05  BASE  0.93492  198  2.72244  178  -1.6  100   -1.6  0     0     984.1    NA       0.0000   9999     5770  0     0    
2019/08/15  08:03:05  BASE  1.31124  122  2.72244  178  -1.6  100   -1.6  0     0     984.1    NA       0.0000   9999     5610  0     0    
2019/08/15  08:04:01  BASE  1.53468  123  2.72244  178  -1.6  100   -1.6  0     0     984.1    NA       0.0000   9999     5540  0     0    
2019/08/15  08:05:04  BASE  2.01096  129  3.32808  119  -1.6  100   -1.6  0     0     984.1    NA       0.0000   9999     5770  0     0    
2019/08/15  08:06:05  BASE  2.62248  132  3.32808  119  -1.5  100   -1.5  0     0     984.1    NA       0.0000   9999     5090  6820  0    
2019/08/15  08:07:04  BASE  2.36376  109  3.32808  119  -1.5  100   -1.5  0     0     984.1    NA       0.0000   9999     5320  7020  0    
2019/08/15  08:08:05  BASE  1.92276  57   3.32808  119  -1.5  100   -1.5  0     0     984.1    NA       0.0000   9999     5050  6920  0    
2019/08/15  08:09:04  BASE  2.04624  37   3.32808  119  -1.5  100   -1.5  0     0     984.2    NA       0.0000   9999     5320  6960  0    
2019/08/15  08:10:04  BASE  2.0874   49   3.32808  119  -1.5  100   -1.5  0     0     984.1    NA       0.0000   9999     5480  7050  0    
2019/08/15  08:11:05  BASE  1.75224  67   3.32808  119  -1.5  100   -1.5  0     0     984.2    NA       0.0000   9999     5740  6960  0    
2019/08/15  08:12:04  BASE  1.39944  94   3.32808  119  -1.5  100   -1.5  0     0     984.2    NA       0.0000   9999     5770  7020  0    
2019/08/15  08:13:05  BASE  1.1172   85   3.32808  119  -1.4  100   -1.4  0     0     984.2    NA       0.0000   9999     5770  0     0    
2019/08/15  08:14:05  BASE  1.10544  34   3.32808  119  -1.4  100   -1.4  0     0     984.2    NA       0.0000   9999     5810  6760  0    
2019/08/15  08:15:05  BASE  0.49392  28   3.2046   35   -1.5  100   -1.5  0     0     984.2    NA       0.0000   9999     5410  0     0    
2019/08/15  08:16:04  BASE  0.12936  2    3.2046   35   -1.5  100   -1.5  0     0     984.2    NA       0.0000   9999     5770  6760  0    
2019/08/15  08:17:04  BASE  0.735    280  3.2046   35   -1.6  100   -1.6  0     0     984.3    NA       0.0000   9999     5840  6860  0    
2019/08/15  08:18:04  BASE  1.54644  161  3.56916  177  -1.6  100   -1.6  0     0     984.3    NA       0.0000   9999     5740  6790  0    
2019/08/15  08:19:05  BASE  2.2932   157  3.56916  177  -1.6  100   -1.6  0     0     984.3    NA       0.0000   9999     5840  6820  0    
2019/08/15  08:20:04  BASE  2.4108   154  3.56916  177  -1.5  100   -1.5  0     0     984.3    NA       0.0000   9999     6820  0     0    
2019/08/15  08:21:05  BASE  2.6754   143  5.2038   148  -1.5  100   -1.5  0     0     984.4    NA       0.0000   9999     6920  0     0    
2019/08/15  08:22:02  BASE  3.30456  138  5.2038   148  -1.5  100   -1.5  0     0     984.4    NA       0.0000   9999     6960  0     0    
2019/08/15  08:23:05  BASE  2.84004  113  5.2038   148  -1.4  100   -1.4  0     0     984.4    NA       0.0000   9999     7020  0     0    
2019/08/15  08:24:04  BASE  1.93452  74   5.2038   148  -1.4  100   -1.4  0     0     984.5    NA       0.0000   9999     7020  0     0    
2019/08/15  08:25:04  BASE  1.5876   58   5.2038   148  -1.4  100   -1.5  0     0     984.5    NA       0.0000   9999     6990  0     0    
2019/08/15  08:26:05  BASE  1.4994   73   5.2038   148  -1.5  100   -1.5  0     0     984.5    NA       0.0000   9999     6920  0     0    
2019/08/15  08:27:04  BASE  1.176    94   5.2038   148  -1.5  100   -1.5  0     0     984.5    NA       0.0000   9999     6790  0     0    
2019/08/15  08:28:04  BASE  0.69972  77   5.2038   148  -1.5  100   -1.5  0     0     984.5    NA       0.0000   9999     6790  0     0    
2019/08/15  08:29:04  BASE  1.1172   55   5.2038   148  -1.5  99    -1.6  0     0     984.5    NA       0.0000   9999     6760  0     0    
2019/08/15  08:30:04  BASE  1.95216  44   5.2038   148  -1.6  99    -1.6  0     0     984.5    NA       0.0000   9999     6200  0     0    
2019/08/15  08:31:04  BASE  2.42256  36   4.47468  139  -1.7  99    -1.7  0     0     984.5    NA       0.0000   9999     6270  0     0    
2019/08/15  08:32:05  BASE  2.4402   31   2.78124  39   -1.8  99    -1.9  0     0     984.5    NA       0.0000   9999     6890  0     0    
2019/08/15  08:33:04  BASE  2.35788  24   2.78124  39   -2.0  99    -2.1  0     0     984.5    NA       0.0000   9999     6960  0     0    
2019/08/15  08:34:04  BASE  2.18148  24   2.78124  39   -2.1  99    -2.2  0     0     984.5    NA       0.0000   9999     6590  0     0    
2019/08/15  08:35:05  BASE  1.81104  34   2.78124  39   -2.2  100   -2.3  0     0     984.5    NA       0.0000   9999     6690  0     0    
2019/08/15  08:36:04  BASE  1.45824  42   2.78124  39   -2.3  100   -2.3  0     0     984.5    NA       0.0000   9999     6560  0     0    
2019/08/15  08:37:01  BASE  1.32888  31   2.78124  39   -2.3  100   -2.3  0     0     984.6    NA       0.0000   9999     6530  0     0    
2019/08/15  08:38:05  BASE  1.2348   18   2.78124  39   -2.3  100   -2.3  0     0     984.6    NA       0.0000   9999     6000  0     0    
2019/08/15  08:39:05  BASE  0.67032  7    2.78124  39   -2.3  100   -2.3  0     0     984.6    NA       0.0000   9999     6000  0     0    
2019/08/15  08:40:04  BASE  0.42924  347  2.78124  39   -2.3  100   -2.3  0     0     984.7    NA       0.0000   9999     5940  0     0    
2019/08/15  08:41:04  BASE  0.69384  310  2.54016  20   -2.3  100   -2.3  0     0     984.7    NA       0.0000   9999     5870  0     0    
2019/08/15  08:42:05  BASE  1.18776  249  2.54016  20   -2.2  100   -2.2  0     0     984.7    NA       0.0000   9999     5810  0     0    
2019/08/15  08:43:04  BASE  1.50528  221  2.32848  17   -2.1  100   -2.1  0     0     984.8    NA       0.0000   9999     5870  0     0    
2019/08/15  08:44:05  BASE  1.4994   225  2.32848  192  -2.1  100   -2.1  0     0     984.8    NA       0.0000   9999     7020  0     0    
2019/08/15  08:45:04  BASE  1.92864  208  3.32808  205  -2.1  100   -2.1  0     0     984.8    NA       0.0000   9999     6760  0     0    
2019/08/15  08:46:04  BASE  2.89296  171  4.08072  172  -2.1  100   -2.1  0     0     984.8    NA       0.0000   9999     6860  0     0    
2019/08/15  08:47:04  BASE  2.99292  142  4.08072  172  -2.1  100   -2.1  0     0     984.8    NA       0.0000   9999     6790  0     0    
2019/08/15  08:48:05  BASE  2.62248  145  4.08072  172  -2.2  100   -2.2  0     0     984.8    NA       0.0000   9999     6140  0     0    
2019/08/15  08:49:04  BASE  3.22224  151  4.59816  156  -2.2  100   -2.2  0     0     984.8    NA       0.0000   9999     0     0     0    
2019/08/15  08:50:04  BASE  3.675    154  4.80984  163  -2.1  100   -2.1  0     0     984.8    NA       0.0000   9999     0     0     0    
2019/08/15  08:51:04  BASE  3.53388  148  4.80984  163  -2.1  100   -2.1  0     0     984.8    NA       0.0000   9999     5680  0     0    
2019/08/15  08:52:01  BASE  3.66912  142  4.80984  163  -2.1  100   -2.1  0     0     984.8    NA       0.0000   9999     0     0     0    
2019/08/15  08:53:04  BASE  3.65148  141  4.80984  163  -2.0  100   -2.0  0     0     984.8    NA       0.0000   9999     0     0     0    
2019/08/15  08:54:04  BASE  3.78672  143  4.80984  163  -2.0  100   -2.0  0     0     984.8    NA       0.0000   9999     0     0     0    
2019/08/15  08:55:05  BASE  4.03956  150  4.80984  163  -2.0  100   -2.0  0     0     984.8    NA       0.0000   9999     0     0     0    
2019/08/15  08:56:04  BASE  3.59856  150  4.80984  163  -1.9  100   -1.9  0     0     984.8    NA       0.0000   9999     0     0     0    
2019/08/15  08:57:04  BASE  3.57504  151  4.80984  163  -1.9  100   -1.9  0     0     984.8    NA       0.0000   9999     0     0     0    
2019/08/15  08:58:05  BASE  4.00428  156  4.99212  166  -1.8  100   -1.8  0     0     984.8    NA       0.0000   9999     0     0     0    
2019/08/15  08:59:04  BASE  4.22184  155  5.41548  141  -1.8  100   -1.8  0     0     984.8    NA       0.0000   9999     0     0     0    
2019/08/15  09:00:04  BASE  4.3806   149  5.41548  141  -1.8  100   -1.8  0     0     984.8    NA       0.0000   9999     0     0     0    
2019/08/15  09:01:04  BASE  4.35708  144  5.41548  141  -1.8  100   -1.8  0     0     984.8    NA       0.0000   9999     0     0     0    
2019/08/15  09:02:04  BASE  4.16304  146  5.41548  141  -1.8  100   -1.8  0     0     984.8    NA       0.0000   9999     0     0     0    
2019/08/15  09:03:06  BASE  4.42764  149  6.41508  137  -1.9  100   -1.9  0     0     984.8    NA       0.0000   9999     0     0     0    
2019/08/15  09:04:01  BASE  4.62756  143  6.41508  137  -1.9  100   -1.9  0     0     984.9    NA       0.0000   9999     6690  0     0    
2019/08/15  09:05:04  BASE  4.54524  137  6.41508  137  -1.9  100   -1.9  0     0     984.9    NA       0.0000   9999     6660  0     0    
2019/08/15  09:06:04  BASE  3.81024  134  6.41508  137  -1.8  100   -1.8  0     0     985.0    NA       0.0000   9999     6760  0     0    
2019/08/15  09:07:04  BASE  2.7048   123  6.41508  137  -1.8  100   -1.8  0     0     985.1    NA       0.0000   9999     6730  0     0    
2019/08/15  09:08:04  BASE  2.28144  113  6.41508  137  -1.8  100   -1.8  0     0     985.1    NA       0.0000   9999     6660  7220  0    
2019/08/15  09:09:04  BASE  2.6754   113  6.41508  137  -1.8  100   -1.8  0     0     985.1    NA       0.0000   9999     6530  7050  0    
2019/08/15  09:10:04  BASE  2.8812   116  6.41508  137  -1.8  100   -1.8  0     0     985.1    NA       0.0000   9999     6500  0     0    
2019/08/15  09:11:04  BASE  2.68128  116  6.41508  137  -1.8  100   -1.8  0     0     985.1    NA       0.0000   9999     0     0     0    
2019/08/15  09:12:04  BASE  2.85768  117  6.41508  137  -1.9  100   -1.9  0     0     985.1    NA       0.0000   9999     0     0     0    
2019/08/15  09:13:04  BASE  2.82828  115  5.08032  133  -1.9  100   -1.9  0     0     985.1    NA       0.0000   9999     0     0     0    
2019/08/15  09:14:04  BASE  2.68716  121  5.08032  133  -1.9  100   -1.9  0     0     985.1    NA       0.0000   9999     0     0     0    
2019/08/15  09:15:04  BASE  2.59896  138  4.263    138  -2.0  100   -2.0  0     0     985.0    NA       0.0000   9999     0     0     0    
2019/08/15  09:16:05  BASE  2.31084  150  3.83964  120  -2.1  100   -2.1  0     0     985.0    NA       0.0000   9999     6370  0     0    
2019/08/15  09:17:01  BASE  2.49312  160  3.99252  176  -2.1  100   -2.1  0     0     985.1    NA       0.0000   9999     6300  0     0    
2019/08/15  09:18:04  BASE  3.05172  168  3.99252  176  -2.1  100   -2.1  0     0     985.0    NA       0.0000   9999     0     0     0    
2019/08/15  09:19:04  BASE  2.9106   168  3.99252  176  -2.2  100   -2.2  0     0     985.1    NA       0.0000   9999     0     0     0    
2019/08/15  09:20:04  BASE  2.89884  162  3.99252  176  -2.3  100   -2.3  0     0     985.1    NA       0.0000   9999     0     0     0    
2019/08/15  09:21:04  BASE  2.91648  164  3.99252  176  -2.3  100   -2.3  0     0     985.1    NA       0.0000   9999     0     0     0    
2019/08/15  09:22:04  BASE  2.31084  149  3.99252  176  -2.4  100   -2.4  0     0     985.1    NA       0.0000   9999     0     0     0    
2019/08/15  09:23:04  BASE  1.8816   120  3.99252  176  -2.5  100   -2.5  0     0     985.2    NA       0.0000   9999     7780  0     0    
2019/08/15  09:24:05  BASE  2.09328  111  3.99252  176  -2.5  100   -2.5  0     0     985.2    NA       0.0000   9999     7710  0     0    
2019/08/15  09:25:04  BASE  2.66364  126  3.99252  176  -2.5  100   -2.5  0     0     985.1    NA       0.0000   9999     0     0     0    
2019/08/15  09:26:04  BASE  2.8224   128  3.99252  176  -2.6  100   -2.6  0     0     985.1    NA       0.0000   9999     0     0     0    
2019/08/15  09:27:04  BASE  2.646    112  3.96312  191  -2.6  100   -2.6  0     0     985.2    NA       0.0000   9999     0     0     0    
2019/08/15  09:28:04  BASE  2.69892  120  3.51036  148  -2.5  100   -2.5  0     0     985.2    NA       0.0000   9999     0     0     0    
2019/08/15  09:29:04  BASE  2.56368  137  3.51036  148  -2.5  100   -2.5  0     0     985.2    NA       0.0000   9999     0     0     0    
2019/08/15  09:30:04  BASE  2.25204  151  3.51036  148  -2.5  100   -2.5  0     0     985.3    NA       0.0000   9999     0     0     0    
2019/08/15  09:31:04  BASE  2.30496  157  3.51036  148  -2.5  100   -2.5  0     0     985.3    NA       0.0000   9999     0     0     0    
2019/08/15  09:32:04  BASE  2.18736  151  3.51036  148  -2.6  100   -2.6  0     0     985.4    NA       0.0000   9999     0     0     0    
2019/08/15  09:33:04  BASE  2.00508  140  3.51036  148  -2.6  100   -2.6  0     0     985.4    NA       0.0000   9999     0     0     0    
2019/08/15  09:34:05  BASE  1.58172  119  3.51036  148  -2.6  100   -2.6  0     0     985.4    NA       0.0000   9999     0     0     0    
2019/08/15  09:35:04  BASE  1.61112  129  3.41628  128  -2.7  100   -2.7  0     0     985.4    NA       0.0000   9999     0     0     0    
2019/08/15  09:36:05  BASE  1.8228   134  3.41628  128  -2.7  100   -2.7  0     0     985.4    NA       0.0000   9999     0     0     0    
2019/08/15  09:37:04  BASE  1.7052   136  3.41628  128  -2.7  100   -2.7  0     0     985.5    NA       0.0000   9999     0     0     0    
2019/08/15  09:38:04  BASE  1.3818   131  3.35748  159  -2.8  100   -2.8  0     0     985.4    NA       0.0000   9999     0     0     0    
2019/08/15  09:39:04  BASE  0.88788  127  3.35748  159  -2.9  100   -2.9  0     0     985.5    NA       0.0000   9999     0     0     0    
2019/08/15  09:40:04  BASE  0.81732  157  3.35748  159  -2.9  100   -2.9  0     0     985.5    NA       0.0000   9999     0     0     0    
2019/08/15  09:41:04  BASE  1.18776  176  3.29868  186  -2.9  100   -2.9  0     0     985.5    NA       0.0000   9999     0     0     0    
2019/08/15  09:42:04  BASE  2.50488  185  4.93332  183  -2.9  100   -2.9  0     0     985.4    NA       0.0000   9999     0     0     0    
2019/08/15  09:43:04  BASE  4.7628   192  6.92664  192  -2.9  100   -2.9  0     0     985.4    NA       0.0000   9999     0     0     0    
2019/08/15  09:44:05  BASE  6.5856   196  7.68516  194  -2.7  100   -2.7  0     0     985.4    NA       0.0000   9999     8600  0     0    
2019/08/15  09:45:04  BASE  7.25592  198  8.13792  199  -2.5  100   -2.5  0     0     985.4    NA       0.0000   9999     8530  0     0    
2019/08/15  09:46:04  BASE  7.28532  200  8.13792  199  -2.3  100   -2.3  0     0     985.4    NA       0.0000   9999     8530  0     0    
2019/08/15  09:47:04  BASE  6.9384   198  8.13792  199  -2.2  100   -2.2  0     0     985.4    NA       0.0000   9999     8460  0     0    
2019/08/15  09:48:05  BASE  6.75024  196  8.13792  199  -2.0  100   -2.0  0     0     985.4    NA       0.0000   9999     8430  0     0    
2019/08/15  09:49:05  BASE  6.909    198  8.13792  199  -2.0  100   -2.0  0     0     985.4    NA       0.0000   9999     8370  0     0    
2019/08/15  09:50:04  BASE  7.12068  197  8.13792  199  -2.0  100   -2.0  0     0     985.4    NA       0.0000   9999     8270  0     0    
2019/08/15  09:51:05  BASE  7.09128  196  8.13792  199  -2.0  100   -2.0  0     0     985.4    NA       0.0000   9999     8330  0     0    
2019/08/15  09:52:04  BASE  6.82668  196  8.13792  199  -2.0  100   -2.0  0     0     985.4    NA       0.0000   9999     0     0     0    
2019/08/15  09:53:04  BASE  6.16224  195  8.13792  199  -2.0  100   -2.0  0     0     985.5    NA       0.0000   9999     0     0     0    
2019/08/15  09:54:05  BASE  5.21556  189  8.13792  199  -2.0  100   -2.0  0     0     985.6    NA       0.0000   9999     0     0     0    
2019/08/15  09:55:04  BASE  4.72164  186  7.92624  203  -2.1  100   -2.1  0     0     985.6    NA       0.0000   9999     8100  0     0    
2019/08/15  09:56:04  BASE  4.78632  192  7.77336  198  -2.2  100   -2.2  0     0     985.6    NA       0.0000   9999     8010  0     0    
2019/08/15  09:57:05  BASE  5.06268  194  7.77336  198  -2.2  100   -2.2  0     0     985.6    NA       0.0000   9999     8070  0     0    
2019/08/15  09:58:05  BASE  5.36256  192  7.77336  198  -2.3  100   -2.3  0     0     985.6    NA       0.0000   9999     8140  0     0    
2019/08/15  09:59:05  BASE  5.37432  192  7.77336  198  -2.3  100   -2.3  0     0     985.6    NA       0.0000   9999     8100  0     0    
2019/08/15  10:00:04  BASE  5.0274   194  7.71456  195  -2.3  100   -2.3  0     0     985.7    NA       0.0000   9999     8200  0     0    
2019/08/15  10:01:04  BASE  4.86276  195  7.50288  192  -2.2  100   -2.2  0     0     985.7    NA       0.0000   9999     8100  0     0    
2019/08/15  10:02:05  BASE  4.86864  194  6.2622   196  -2.2  100   -2.2  0     0     985.7    NA       0.0000   9999     8200  0     0    
2019/08/15  10:03:06  BASE  4.28652  190  5.95644  194  -2.2  100   -2.2  0     0     985.8    NA       0.0000   9999     8240  0     0    
2019/08/15  10:04:01  BASE  3.48684  188  5.95644  194  -2.3  100   -2.3  0     0     985.8    NA       0.0000   9999     8330  0     0    
2019/08/15  10:05:05  BASE  3.0576   189  5.95644  194  -2.3  100   -2.3  0     0     985.8    NA       0.0000   9999     8270  0     0    
2019/08/15  10:06:04  BASE  3.08112  192  5.95644  194  -2.4  100   -2.4  0     0     985.8    NA       0.0000   9999     8330  0     0    
2019/08/15  10:07:04  BASE  3.52212  193  5.95644  194  -2.5  100   -2.5  0     0     985.8    NA       0.0000   9999     8300  0     0    
2019/08/15  10:08:04  BASE  4.18068  194  5.95644  194  -2.5  100   -2.5  0     0     985.8    NA       0.0000   9999     8300  0     0    
2019/08/15  10:09:04  BASE  4.47468  198  5.59776  201  -2.5  100   -2.5  0     0     985.9    NA       0.0000   9999     8330  0     0    
2019/08/15  10:10:04  BASE  4.24536  200  5.59776  201  -2.4  100   -2.4  0     0     985.9    NA       0.0000   9999     8370  0     0    
2019/08/15  10:11:04  BASE  3.96312  199  5.59776  201  -2.4  100   -2.4  0     0     985.9    NA       0.0000   9999     8430  0     0    
2019/08/15  10:12:04  BASE  3.89256  197  5.145    196  -2.3  100   -2.3  0     0     985.9    NA       0.0000   9999     8500  0     0    
2019/08/15  10:13:04  BASE  3.82788  195  5.145    196  -2.3  100   -2.3  0     0     986.0    NA       0.0000   9999     8560  0     0    
2019/08/15  10:14:04  BASE  3.88668  194  5.145    196  -2.3  100   -2.3  0     0     986.0    NA       0.0000   9999     0     0     0    
2019/08/15  10:15:05  BASE  4.1454   195  5.145    196  -2.3  100   -2.3  0     0     986.0    NA       0.0000   9999     0     0     0    
2019/08/15  10:16:04  BASE  4.27476  195  5.145    196  -2.3  100   -2.3  0     0     986.0    NA       0.0000   9999     0     0     0    
2019/08/15  10:17:04  BASE  4.01016  193  5.145    196  -2.3  100   -2.3  0     0     986.0    NA       0.0000   9999     0     0     0    
2019/08/15  10:18:04  BASE  3.13992  187  5.145    196  -2.3  100   -2.3  0     0     986.0    NA       0.0000   9999     0     0     0    
2019/08/15  10:19:05  BASE  2.8518   187  4.99212  200  -2.4  100   -2.4  0     0     986.0    NA       0.0000   9999     0     0     0    
2019/08/15  10:20:04  BASE  3.19284  192  4.68636  195  -2.4  100   -2.5  0     0     986.0    NA       0.0000   9999     0     0     0    
2019/08/15  10:21:05  BASE  3.41628  192  4.68636  195  -2.5  100   -2.5  0     0     986.0    NA       0.0000   9999     7420  0     0    
2019/08/15  10:22:04  BASE  3.35748  193  4.68636  195  -2.5  99    -2.6  0     0     986.0    NA       0.0000   9999     0     0     0    
2019/08/15  10:23:04  BASE  3.46332  194  4.72164  201  -2.5  99    -2.6  0     0     986.0    NA       0.0000   9999     0     0     0    
2019/08/15  10:24:04  BASE  3.7632   192  4.72164  201  -2.5  99    -2.6  0     0     986.0    NA       0.0000   9999     0     0     0    
2019/08/15  10:25:04  BASE  3.49272  194  4.72164  201  -2.5  99    -2.6  0     0     986.1    NA       0.0000   9999     7550  0     0    
2019/08/15  10:26:05  BASE  3.11052  197  4.72164  201  -2.5  99    -2.7  0     0     986.2    NA       0.0000   9999     0     0     0    
2019/08/15  10:27:05  BASE  2.85768  193  4.72164  201  -2.5  99    -2.7  0     0     986.2    NA       0.0000   9999     7120  0     0    
2019/08/15  10:28:05  BASE  2.76948  191  4.72164  201  -2.6  99    -2.7  0     0     986.3    NA       0.0000   9999     7350  0     0    
2019/08/15  10:29:05  BASE  2.6166   196  4.72164  201  -2.6  99    -2.7  0     0     986.3    NA       0.0000   9999     7480  0     0    
2019/08/15  10:30:04  BASE  2.51664  196  4.72164  201  -2.6  99    -2.8  0     0     986.4    NA       0.0000   9999     7150  0     0    
2019/08/15  10:31:05  BASE  3.21636  195  4.75104  204  -2.7  99    -2.8  0     0     986.4    NA       0.0000   9999     7480  0     0    
2019/08/15  10:32:04  BASE  3.9102   200  4.89804  194  -2.7  99    -2.8  0     0     986.4    NA       0.0000   9999     7480  0     0    
2019/08/15  10:33:04  BASE  4.19832  203  5.2626   207  -2.7  99    -2.8  0     0     986.4    NA       0.0000   9999     7480  0     0    
2019/08/15  10:34:05  BASE  3.97488  205  5.2626   207  -2.6  99    -2.7  0     0     986.5    NA       0.0000   9999     7580  0     0    
2019/08/15  10:35:05  BASE  3.63384  209  5.2626   207  -2.5  99    -2.6  0     0     986.5    NA       0.0000   9999     7480  0     0    
2019/08/15  10:36:05  BASE  3.58092  208  5.2626   207  -2.4  99    -2.5  0     0     986.5    NA       0.0000   9999     7580  0     0    
2019/08/15  10:37:04  BASE  3.48096  207  5.2626   207  -2.4  99    -2.5  0     0     986.5    NA       0.0000   9999     0     0     0    
2019/08/15  10:38:04  BASE  3.6456   204  5.2626   207  -2.4  99    -2.5  0     0     986.5    NA       0.0000   9999     0     0     0    
2019/08/15  10:39:04  BASE  3.34572  198  5.2626   207  -2.4  99    -2.5  0     0     986.5    NA       0.0000   9999     0     0     0    
2019/08/15  10:40:04  BASE  2.69304  197  5.2626   207  -2.4  99    -2.6  0     0     986.5    NA       0.0000   9999     0     0     0    
2019/08/15  10:41:04  BASE  2.28732  201  5.2626   207  -2.5  98    -2.7  0     0     986.5    NA       0.0000   9999     0     0     0    
2019/08/15  10:42:05  BASE  1.9698   208  5.2626   207  -2.5  98    -2.8  0     0     986.5    NA       0.0000   9999     0     0     0    
2019/08/15  10:43:05  BASE  1.63464  218  4.53936  198  -2.6  97    -2.9  0     0     986.5    NA       0.0000   9999     0     0     0    
2019/08/15  10:44:05  BASE  1.28184  227  4.53936  198  -2.7  97    -3.1  0     0     986.5    NA       0.0000   9999     0     0     0    
2019/08/15  10:45:05  BASE  0.79968  240  4.53936  198  -2.8  97    -3.2  0     0     986.5    NA       0.0000   9999     0     0     0    
2019/08/15  10:46:04  BASE  0.5586   282  4.53936  198  -2.8  97    -3.2  0     0     986.6    NA       0.0000   9999     0     0     0    
2019/08/15  10:47:05  BASE  0.49392  322  4.53936  198  -2.9  97    -3.3  0     0     986.6    NA       0.0000   9999     0     0     0    
2019/08/15  10:48:04  BASE  0.65268  345  3.59856  205  -3.1  97    -3.5  0     0     986.6    NA       0.0000   9999     0     0     0    
2019/08/15  10:49:05  BASE  1.01724  2    2.93412  200  -3.2  97    -3.5  0     0     986.6    NA       0.0000   9999     0     0     0    
2019/08/15  10:50:04  BASE  0.90552  6    2.72244  196  -3.2  98    -3.5  0     0     986.6    NA       0.0000   9999     0     0     0    
2019/08/15  10:51:04  BASE  0.84084  13   2.26968  204  -3.2  98    -3.5  0     0     986.6    NA       0.0000   9999     0     0     0    
2019/08/15  10:52:05  BASE  0.90552  31   1.81692  233  -3.2  98    -3.4  0     0     986.6    NA       0.0000   9999     0     0     0    
2019/08/15  10:53:04  BASE  0.82908  19   1.54056  354  -3.1  99    -3.2  0     0     986.6    NA       0.0000   9999     0     0     0    
2019/08/15  10:54:05  BASE  1.04076  0    1.69344  349  -3.0  99    -3.0  0     0     986.5    NA       0.0000   9999     0     0     0    
2019/08/15  10:55:04  BASE  1.18188  0    1.69344  349  -2.9  100   -3.0  0     0     986.5    NA       0.0000   9999     0     0     0    
2019/08/15  10:56:05  BASE  1.2936   16   1.90512  37   -2.9  100   -2.9  0     0     986.6    NA       0.0000   9999     0     0     0    
2019/08/15  10:57:04  BASE  1.5876   52   2.56956  57   -2.9  99    -3.0  0     0     986.6    NA       0.0000   9999     0     0     0    
2019/08/15  10:58:04  BASE  1.15836  92   2.56956  57   -2.9  99    -3.0  0     0     986.6    NA       0.0000   9999     0     0     0    
2019/08/15  10:59:04  BASE  0.31164  117  2.56956  57   -2.8  99    -2.9  0     0     986.6    NA       0.0000   9999     0     0     0    
2019/08/15  11:00:04  BASE  0.63504  46   2.56956  57   -2.8  98    -3.0  0     0     986.6    NA       0.0000   9999     0     0     0    
2019/08/15  11:01:05  BASE  1.2642   33   2.63424  31   -2.8  98    -3.1  0     0     986.6    NA       0.0000   9999     0     0     0    
2019/08/15  11:02:04  BASE  1.5288   41   2.63424  31   -2.8  97    -3.2  0     0     986.6    NA       0.0000   9999     0     0     0    
2019/08/15  11:03:06  BASE  1.68756  45   2.63424  31   -2.9  97    -3.3  0     0     986.6    NA       0.0000   9999     0     0     0    
2019/08/15  11:04:01  BASE  1.68756  54   2.63424  31   -3.0  96    -3.6  0     0     986.7    NA       0.0000   9999     0     0     0    
2019/08/15  11:05:04  BASE  1.08192  67   2.63424  31   -3.0  96    -3.6  0     0     986.7    NA       0.0000   9999     0     0     0    
2019/08/15  11:06:05  BASE  0.49392  50   2.63424  31   -3.0  96    -3.6  0     0     986.7    NA       0.0000   9999     0     0     0    
2019/08/15  11:07:05  BASE  0.98196  38   2.63424  31   -3.0  96    -3.5  0     0     986.8    NA       0.0000   9999     0     0     0    
2019/08/15  11:08:04  BASE  1.09956  52   2.63424  31   -2.9  96    -3.5  0     0     986.9    NA       0.0000   9999     0     0     0    
2019/08/15  11:09:04  BASE  1.49352  56   2.63424  31   -2.9  96    -3.5  0     0     986.8    NA       0.0000   9999     0     0     0    
2019/08/15  11:10:04  BASE  1.94628  86   2.63424  31   -2.9  95    -3.6  0     0     986.9    NA       0.0000   9999     0     0     0    
2019/08/15  11:11:05  BASE  1.39356  146  2.54016  63   -2.9  95    -3.5  0     0     987.0    NA       0.0000   9999     0     0     0    
2019/08/15  11:12:04  BASE  0.64092  114  2.54016  63   -2.7  95    -3.4  0     0     987.0    NA       0.0000   9999     0     0     0    
2019/08/15  11:13:04  BASE  0.95844  41   2.54016  63   -2.7  95    -3.4  0     0     987.0    NA       0.0000   9999     0     0     0    
2019/08/15  11:14:05  BASE  1.62876  52   2.54016  63   -2.8  94    -3.6  0     0     987.1    NA       0.0000   9999     0     0     0    
2019/08/15  11:15:05  BASE  1.4994   50   2.54016  63   -2.9  93    -3.8  0     0     987.1    NA       0.0000   9999     0     0     0    
2019/08/15  11:16:04  BASE  1.1172   37   2.54016  63   -3.1  93    -4.1  0     0     987.1    NA       0.0000   9999     0     0     0    
2019/08/15  11:17:04  BASE  0.72324  22   2.54016  63   -3.3  92    -4.3  0     0     987.2    NA       0.0000   9999     0     0     0    
2019/08/15  11:18:05  BASE  0.78792  15   2.54016  63   -3.3  93    -4.3  0     0     987.2    NA       0.0000   9999     0     0     0    
2019/08/15  11:19:04  BASE  0.95844  41   2.32848  181  -3.3  93    -4.3  0     0     987.2    NA       0.0000   9999     0     0     0    
2019/08/15  11:20:04  BASE  1.08192  54   2.21088  168  -3.2  93    -4.2  0     0     987.3    NA       0.0000   9999     0     0     0    
2019/08/15  11:21:04  BASE  0.8232   69   1.87572  71   -3.2  93    -4.1  0     0     987.3    NA       0.0000   9999     0     0     0    
2019/08/15  11:22:05  BASE  0.19404  118  1.87572  71   -3.1  93    -4.0  0     0     987.3    NA       0.0000   9999     0     0     0    
2019/08/15  11:23:05  BASE  0.21756  88   1.87572  71   -3.0  93    -4.0  0     0     987.3    NA       0.0000   9999     0     0     0    
2019/08/15  11:24:05  BASE  0.21756  37   1.69344  52   -3.0  93    -4.0  0     0     987.3    NA       0.0000   9999     0     0     0    
2019/08/15  11:25:04  BASE  0.29988  335  1.69344  52   -2.9  93    -3.9  0     0     987.3    NA       0.0000   9999     0     0     0    
2019/08/15  11:26:05  BASE  0.53508  260  1.69344  52   -2.9  93    -3.9  0     0     987.3    NA       0.0000   9999     0     0     0    
2019/08/15  11:27:04  BASE  0.5292   250  1.9992   263  -2.8  93    -3.8  0     0     987.3    NA       0.0000   9999     0     0     0    
2019/08/15  11:28:05  BASE  0.84672  274  2.21088  255  -2.7  93    -3.7  0     0     987.3    NA       0.0000   9999     0     0     0    
2019/08/15  11:29:05  BASE  0.60564  274  2.21088  255  -2.6  93    -3.6  0     0     987.3    NA       0.0000   9999     0     0     0    
2019/08/15  11:30:04  BASE  0.15876  266  2.21088  255  -2.5  93    -3.4  0     0     987.3    NA       0.0000   9999     0     0     0    
2019/08/15  11:31:04  BASE  0.49392  247  2.21088  255  -2.4  93    -3.3  0     0     987.3    NA       0.0000   9999     0     0     0    
2019/08/15  11:32:04  BASE  0.48804  242  2.21088  255  -2.4  93    -3.3  0     0     987.3    NA       0.0000   9999     0     0     0    
2019/08/15  11:33:05  BASE  0.36456  294  2.21088  255  -2.4  93    -3.4  0     0     987.3    NA       0.0000   9999     0     0     0    
2019/08/15  11:34:04  BASE  0.96432  28   2.21088  255  -2.6  93    -3.6  0     0     987.4    NA       0.0000   9999     0     0     0    
2019/08/15  11:35:04  BASE  0.84084  13   2.21088  255  -2.8  94    -3.7  0     0     987.4    NA       0.0000   9999     0     0     0    
2019/08/15  11:36:04  BASE  0.5586   360  2.21088  255  -2.8  94    -3.7  0     0     987.4    NA       0.0000   9999     0     0     0    
2019/08/15  11:37:04  BASE  0.4998   34   2.21088  255  -2.9  94    -3.7  0     0     987.4    NA       0.0000   9999     0     0     0    
2019/08/15  11:38:04  BASE  0.27636  71   2.1756   33   -3.0  95    -3.7  0     0     987.4    NA       0.0000   9999     0     0     0    
2019/08/15  11:39:04  BASE  0.18228  101  2.1756   33   -2.9  95    -3.6  0     0     987.5    NA       0.0000   9999     0     0     0    
2019/08/15  11:40:04  BASE  0.0588   56   2.1756   33   -3.0  95    -3.6  0     0     987.5    NA       0.0000   9999     0     0     0    
2019/08/15  11:41:04  BASE  0.32928  15   2.1756   33   -3.0  96    -3.6  0     0     987.6    NA       0.0000   9999     0     0     0    
2019/08/15  11:42:05  BASE  0.55272  348  2.1756   33   -3.0  96    -3.5  0     0     987.6    NA       0.0000   9999     0     0     0    
2019/08/15  11:43:04  BASE  0.49392  336  2.1756   33   -3.0  96    -3.5  0     0     987.7    NA       0.0000   9999     0     0     0    
2019/08/15  11:44:05  BASE  0.75852  344  1.35828  354  -3.0  96    -3.5  0     0     987.6    NA       0.0000   9999     0     0     0    
2019/08/15  11:45:04  BASE  0.882    352  1.35828  354  -3.0  97    -3.5  0     0     987.7    NA       0.0000   9999     0     0     0    
2019/08/15  11:46:05  BASE  0.78792  0    1.51116  354  -3.1  97    -3.5  1     0     987.8    NA       0.0000   9999     0     0     0    
2019/08/15  11:47:04  BASE  1.17012  357  1.69344  1    -3.2  96    -3.7  1     0     987.8    NA       0.0000   9999     0     0     0    
2019/08/15  11:48:04  BASE  1.3818   354  1.69344  1    -3.3  96    -3.8  1     0     987.8    NA       0.0000   9999     0     0     0    
2019/08/15  11:49:04  BASE  1.25244  358  1.69344  1    -3.3  96    -3.9  1     0     987.8    NA       0.0000   9999     0     0     0    
2019/08/15  11:50:04  BASE  1.10544  359  1.69344  1    -3.4  96    -4.0  1     0     987.8    NA       0.0000   9999     0     0     0    
2019/08/15  11:51:04  BASE  1.18188  357  1.69344  1    -3.6  96    -4.1  1     0     987.8    NA       0.0000   9999     0     0     0    
2019/08/15  11:52:04  BASE  1.5288   353  1.9992   301  -3.6  96    -4.2  1     0     987.8    NA       0.0000   9999     0     0     0    
2019/08/15  11:53:04  BASE  1.59348  359  1.9992   301  -3.7  96    -4.2  1     0     987.8    NA       0.0000   9999     0     0     0    
2019/08/15  11:54:04  BASE  1.51116  1    1.9992   301  -3.8  96    -4.3  1     0     987.9    NA       0.0000   9999     0     0     0    
2019/08/15  11:55:05  BASE  1.5288   5    1.9992   301  -3.8  96    -4.3  1     0     987.9    NA       0.0000   9999     0     0     0    
2019/08/15  11:56:04  BASE  1.15836  19   1.9992   301  -3.8  96    -4.3  2     0     987.8    NA       0.0000   9999     0     0     0    
2019/08/15  11:57:04  BASE  0.86436  40   1.9992   301  -3.8  97    -4.2  2     0     987.8    NA       0.0000   9999     0     0     0    
2019/08/15  11:58:05  BASE  1.32888  45   2.0874   28   -3.7  97    -4.1  2     0     987.8    NA       0.0000   9999     0     0     0    
2019/08/15  11:59:05  BASE  1.74636  40   2.0874   28   -3.7  98    -4.0  2     0     987.8    NA       0.0000   9999     0     0     0    
2019/08/15  12:00:04  BASE  1.55232  43   2.0874   28   -3.6  98    -3.9  2     0     987.8    NA       0.0000   9999     0     0     0    
2019/08/15  12:01:05  BASE  1.53468  38   2.0874   28   -3.6  98    -3.9  2     0     987.8    NA       0.0000   9999     0     0     0    
2019/08/15  12:02:04  BASE  1.83456  30   2.1168   28   -3.7  98    -4.0  2     0     987.8    NA       0.0000   9999     0     0     0    
2019/08/15  12:03:05  BASE  1.81692  31   2.1168   28   -3.8  98    -4.0  2     0     987.8    NA       0.0000   9999     0     0     0    
2019/08/15  12:04:01  BASE  1.5876   26   2.1168   28   -3.8  98    -4.0  3     0     987.8    NA       0.0000   9999     0     0     0    
2019/08/15  12:05:04  BASE  1.53468  15   2.1168   28   -3.8  99    -4.0  3     0     987.8    NA       0.0000   9999     0     0     0    
2019/08/15  12:06:04  BASE  1.5582   14   2.1168   28   -3.8  99    -3.9  3     0     987.9    NA       0.0000   9999     0     0     0    
2019/08/15  12:07:05  BASE  1.48176  15   2.1168   28   -3.7  99    -3.8  3     0     987.9    NA       0.0000   9999     0     0     0    
2019/08/15  12:08:04  BASE  1.323    9    2.1168   28   -3.7  99    -3.8  3     0     987.9    NA       0.0000   9999     0     0     0    
2019/08/15  12:09:04  BASE  1.31712  6    2.1168   28   -3.7  100   -3.7  3     0     987.9    NA       0.0000   9999     0     0     0    
2019/08/15  12:10:05  BASE  1.3524   13   2.1168   28   -3.6  100   -3.6  4     0     987.9    NA       0.0000   9999     0     0     0    
2019/08/15  12:11:05  BASE  1.42884  17   2.1168   28   -3.5  100   -3.5  4     0     987.9    NA       0.0000   9999     0     0     0    
2019/08/15  12:12:04  BASE  1.5582   19   1.96392  28   -3.5  100   -3.5  4     0     987.9    NA       0.0000   9999     0     0     0    
2019/08/15  12:13:05  BASE  1.64052  21   1.87572  16   -3.5  100   -3.5  4     0     987.9    NA       0.0000   9999     0     0     0    
2019/08/15  12:14:05  BASE  1.72284  20   1.90512  20   -3.6  100   -3.6  4     0     987.9    NA       0.0000   9999     0     0     0    
2019/08/15  12:15:04  BASE  1.62876  18   1.90512  20   -3.6  100   -3.6  5     0     987.9    NA       0.0000   9999     0     0     0    
2019/08/15  12:16:05  BASE  1.48764  16   1.90512  20   -3.6  100   -3.6  5     0     987.9    NA       0.0000   9999     0     0     0    
2019/08/15  12:17:04  BASE  1.47588  14   1.90512  20   -3.6  100   -3.6  5     0     988.0    NA       0.0000   9999     0     0     0    
2019/08/15  12:18:04  BASE  1.57584  12   1.90512  20   -3.6  100   -3.6  5     0     988.0    NA       0.0000   9999     0     0     0    
2019/08/15  12:19:05  BASE  1.7934   11   2.0874   14   -3.6  100   -3.6  6     0     988.0    NA       0.0000   9999     0     0     0    
2019/08/15  12:20:04  BASE  1.93452  14   2.0874   20   -3.6  100   -3.6  6     0     988.0    NA       0.0000   9999     0     0     0    
2019/08/15  12:21:04  BASE  1.9992   19   2.1462   24   -3.7  100   -3.7  6     0     988.1    NA       0.0000   9999     0     0     0    
2019/08/15  12:22:04  BASE  2.058    25   2.1462   24   -3.8  100   -3.8  6     0     988.1    NA       0.0000   9999     0     0     0    
2019/08/15  12:23:05  BASE  2.03448  30   2.1462   24   -4.0  100   -4.0  6     0     988.2    NA       0.0000   9999     0     0     0    
2019/08/15  12:24:04  BASE  2.01096  30   2.1462   24   -4.1  100   -4.1  7     0     988.2    NA       0.0000   9999     0     0     0    
2019/08/15  12:25:04  BASE  2.09916  32   2.26968  31   -4.2  100   -4.2  7     0     988.2    NA       0.0000   9999     0     0     0    
2019/08/15  12:26:05  BASE  2.15208  37   2.29908  39   -4.3  100   -4.3  7     0     988.2    NA       0.0000   9999     0     0     0    
2019/08/15  12:27:04  BASE  2.13444  36   2.29908  39   -4.4  100   -4.4  7     0     988.3    NA       0.0000   9999     0     0     0    
2019/08/15  12:28:04  BASE  2.0874   36   2.29908  39   -4.5  100   -4.5  7     0     988.3    NA       0.0000   9999     0     0     0    
2019/08/15  12:29:04  BASE  1.9992   35   2.29908  39   -4.5  100   -4.5  8     0     988.3    NA       0.0000   9999     0     0     0    
2019/08/15  12:30:04  BASE  1.92864  29   2.29908  39   -4.6  100   -4.6  8     0     988.4    NA       0.0000   9999     0     0     0    
2019/08/15  12:31:04  BASE  2.01684  28   2.35788  30   -4.6  100   -4.6  8     0     988.4    NA       0.0000   9999     0     0     0    
2019/08/15  12:32:05  BASE  2.22852  32   2.45196  33   -4.6  100   -4.6  8     0     988.3    NA       0.0000   9999     0     0     0    
2019/08/15  12:33:04  BASE  2.32848  32   2.45196  33   -4.6  100   -4.6  8     0     988.3    NA       0.0000   9999     0     0     0    
2019/08/15  12:34:05  BASE  2.22852  32   2.45196  33   -4.6  100   -4.6  9     0     988.4    NA       0.0000   9999     0     0     0    
2019/08/15  12:35:04  BASE  2.01684  32   2.45196  33   -4.6  100   -4.6  9     0     988.4    NA       0.0000   9999     0     0     0    
2019/08/15  12:36:04  BASE  1.82868  31   2.45196  33   -4.6  100   -4.6  9     0     988.5    NA       0.0000   9999     0     0     0    
2019/08/15  12:37:04  BASE  1.75224  29   2.45196  33   -4.5  100   -4.5  9     0     988.5    NA       0.0000   9999     0     0     0    
2019/08/15  12:38:04  BASE  1.80516  28   2.45196  33   -4.5  100   -4.5  9     0     988.5    NA       0.0000   9999     0     0     0    
2019/08/15  12:39:05  BASE  1.90512  25   2.45196  33   -4.5  100   -4.5  10    0     988.5    NA       0.0000   9999     0     0     0    
2019/08/15  12:40:04  BASE  1.88748  24   2.45196  33   -4.5  100   -4.5  10    0     988.5    NA       0.0000   9999     0     0     0    
2019/08/15  12:41:04  BASE  1.9404   26   2.45196  33   -4.4  100   -4.4  10    0     988.5    NA       0.0000   9999     0     0     0    
2019/08/15  12:42:04  BASE  2.09916  30   2.38728  34   -4.4  100   -4.4  10    0     988.5    NA       0.0000   9999     0     0     0    
2019/08/15  12:43:04  BASE  2.14032  33   2.35788  37   -4.4  100   -4.4  11    0     988.5    NA       0.0000   9999     0     0     0    
2019/08/15  12:44:05  BASE  2.11092  34   2.48136  35   -4.5  100   -4.5  11    0     988.5    NA       0.0000   9999     0     0     0    
2019/08/15  12:45:04  BASE  2.19912  35   2.48136  35   -4.5  100   -4.5  11    0     988.5    NA       0.0000   9999     0     0     0    
2019/08/15  12:46:05  BASE  2.36964  39   2.69304  41   -4.5  100   -4.5  11    0     988.5    NA       0.0000   9999     0     0     0    
2019/08/15  12:47:04  BASE  2.47548  38   2.69304  41   -4.5  100   -4.5  12    0     988.5    NA       0.0000   9999     0     0     0    
2019/08/15  12:48:04  BASE  2.43432  31   2.69304  41   -4.5  100   -4.5  12    0     988.5    NA       0.0000   9999     0     0     0    
2019/08/15  12:49:04  BASE  2.22852  27   2.69304  41   -4.5  100   -4.5  12    0     988.6    NA       0.0000   9999     0     0     0    
2019/08/15  12:50:04  BASE  2.0286   26   2.69304  41   -4.5  100   -4.5  12    0     988.7    NA       0.0000   9999     0     0     0    
2019/08/15  12:51:05  BASE  1.90512  25   2.69304  41   -4.5  100   -4.5  13    0     988.7    NA       0.0000   9999     0     0     0    
2019/08/15  12:52:04  BASE  1.84632  26   2.69304  41   -4.6  100   -4.6  13    0     988.7    NA       0.0000   9999     0     0     0    
2019/08/15  12:53:04  BASE  1.98744  26   2.69304  41   -4.6  100   -4.6  13    0     988.7    NA       0.0000   9999     0     0     0    
2019/08/15  12:54:04  BASE  2.12856  28   2.69304  41   -4.7  100   -4.7  13    0     988.7    NA       0.0000   9999     0     0     0    
2019/08/15  12:55:04  BASE  1.93452  30   2.69304  41   -4.6  100   -4.6  14    0     988.7    NA       0.0000   9999     0     0     0    
2019/08/15  12:56:04  BASE  1.63464  30   2.66364  28   -4.6  100   -4.6  14    0     988.7    NA       0.0000   9999     0     0     0    
2019/08/15  12:57:04  BASE  1.3818   24   2.66364  28   -4.6  100   -4.6  14    0     988.7    NA       0.0000   9999     0     0     0    
2019/08/15  12:58:05  BASE  1.34652  21   2.29908  34   -4.5  100   -4.5  14    0     988.7    NA       0.0000   9999     0     0     0    
2019/08/15  12:59:05  BASE  1.53468  22   2.29908  34   -4.5  100   -4.5  15    0     988.8    NA       0.0000   9999     0     0     0    
2019/08/15  13:00:04  BASE  1.49352  21   2.29908  34   -4.4  100   -4.4  15    0     988.9    NA       0.0000   9999     0     0     0    
2019/08/15  13:01:05  BASE  1.4112   21   2.29908  34   -4.3  100   -4.3  15    0     988.9    NA       0.0000   9999     0     0     0    
2019/08/15  13:02:04  BASE  1.58172  24   2.29908  34   -4.2  100   -4.2  15    0     988.9    NA       0.0000   9999     0     0     0    
2019/08/15  13:03:06  BASE  1.72872  32   2.29908  34   -4.2  100   -4.2  15    0     988.9    NA       0.0000   9999     0     0     0    
2019/08/15  13:04:01  BASE  1.8816   38   2.1462   47   -4.2  100   -4.2  16    0     988.9    NA       0.0000   9999     0     0     0    
2019/08/15  13:05:04  BASE  2.09328  41   2.29908  46   -4.2  100   -4.2  16    0     988.9    NA       0.0000   9999     0     0     0    
2019/08/15  13:06:04  BASE  2.1462   40   2.29908  46   -4.3  100   -4.3  16    0     988.9    NA       0.0000   9999     0     0     0    
2019/08/15  13:07:04  BASE  2.15796  41   2.29908  46   -4.4  100   -4.4  16    0     988.9    NA       0.0000   9999     0     0     0    
2019/08/15  13:08:04  BASE  2.19912  42   2.29908  46   -4.5  100   -4.5  16    0     988.9    NA       0.0000   9999     0     0     0    
2019/08/15  13:09:04  BASE  2.19324  43   2.29908  45   -4.6  100   -4.6  17    0     989.0    NA       0.0000   9999     0     0     0    
2019/08/15  13:10:04  BASE  2.16384  46   2.29908  45   -4.6  100   -4.6  17    0     989.0    NA       0.0000   9999     0     0     0    
2019/08/15  13:11:04  BASE  2.28732  46   2.54016  40   -4.6  100   -4.6  17    0     989.0    NA       0.0000   9999     0     0     0    
2019/08/15  13:12:04  BASE  2.41668  42   2.63424  37   -4.6  100   -4.6  17    0     989.0    NA       0.0000   9999     0     0     0    
2019/08/15  13:13:04  BASE  2.352    41   2.63424  37   -4.6  100   -4.6  18    0     989.0    NA       0.0000   9999     0     0     0    
2019/08/15  13:14:04  BASE  2.28144  41   2.63424  37   -4.6  100   -4.6  18    0     989.0    NA       0.0000   9999     0     0     0    
2019/08/15  13:15:04  BASE  2.19324  43   2.63424  37   -4.7  100   -4.7  18    0     989.0    NA       0.0000   9999     0     0     0    
2019/08/15  13:16:04  BASE  2.0286   46   2.63424  37   -4.7  100   -4.7  18    0     989.0    NA       0.0000   9999     0     0     0    
2019/08/15  13:17:04  BASE  1.92276  46   2.63424  37   -4.6  100   -4.6  18    0     989.1    NA       0.0000   9999     0     0     0    
2019/08/15  13:18:04  BASE  1.94628  45   2.63424  37   -4.6  100   -4.6  19    0     989.1    NA       0.0000   9999     0     0     0    
2019/08/15  13:19:04  BASE  2.10504  43   2.63424  37   -4.6  100   -4.6  19    0     989.1    NA       0.0000   9999     0     0     0    
2019/08/15  13:20:04  BASE  2.2638   40   2.63424  37   -4.6  100   -4.6  19    0     989.1    NA       0.0000   9999     0     0     0    
2019/08/15  13:21:04  BASE  2.32848  38   2.63424  37   -4.6  100   -4.6  19    0     989.1    NA       0.0000   9999     0     0     0    
2019/08/15  13:22:04  BASE  2.40492  38   2.56956  37   -4.6  100   -4.6  19    0     989.1    NA       0.0000   9999     0     0     0    
2019/08/15  13:23:04  BASE  2.4108   36   2.56956  37   -4.7  100   -4.7  20    0     989.1    NA       0.0000   9999     0     0     0    
2019/08/15  13:24:04  BASE  2.31672  36   2.56956  37   -4.7  100   -4.7  20    0     989.1    NA       0.0000   9999     0     0     0    
2019/08/15  13:25:04  BASE  2.27556  40   2.56956  37   -4.7  100   -4.7  20    0     989.1    NA       0.0000   9999     0     0     0    
2019/08/15  13:26:04  BASE  2.4402   41   2.78124  38   -4.8  100   -4.8  20    0     989.1    NA       0.0000   9999     0     0     0    
2019/08/15  13:27:04  BASE  2.7048   41   3.087    41   -4.9  100   -4.9  21    0     989.1    NA       0.0000   9999     0     0     0    
2019/08/15  13:28:04  BASE  2.69892  44   3.087    41   -5.0  100   -5.0  21    0     989.1    NA       0.0000   9999     0     0     0    
2019/08/15  13:29:04  BASE  2.48136  45   3.087    41   -5.0  100   -5.0  21    0     989.2    NA       0.0000   9999     0     0     0    
2019/08/15  13:30:04  BASE  2.34612  43   3.087    41   -5.0  100   -5.0  21    0     989.2    NA       0.0000   9999     0     0     0    
2019/08/15  13:31:05  BASE  2.21676  37   3.087    41   -5.0  100   -5.0  22    0     989.3    NA       0.0000   9999     0     0     0    
2019/08/15  13:32:04  BASE  2.06388  32   3.087    41   -4.9  100   -4.9  22    0     989.4    NA       0.0000   9999     0     0     0    
2019/08/15  13:33:04  BASE  1.95216  28   3.087    41   -4.8  100   -4.8  23    0     989.4    NA       0.0000   9999     0     0     0    
2019/08/15  13:34:04  BASE  1.86396  29   3.087    41   -4.7  100   -4.7  23    0     989.4    NA       0.0000   9999     0     0     0    
2019/08/15  13:35:04  BASE  1.7934   26   3.087    41   -4.7  100   -4.7  23    0     989.4    NA       0.0000   9999     0     0     0    
2019/08/15  13:36:04  BASE  1.7052   24   3.087    41   -4.6  100   -4.6  24    0     989.5    NA       0.0000   9999     0     0     0    
2019/08/15  13:37:04  BASE  1.5582   26   2.96352  40   -4.6  100   -4.6  25    0     989.5    NA       0.0000   9999     0     0     0    
2019/08/15  13:38:04  BASE  1.4994   26   2.48136  45   -4.5  100   -4.5  38    0     989.5    NA       0.0000   9999     0     0     0    
2019/08/15  13:39:04  BASE  1.57584  24   2.45196  45   -4.5  100   -4.5  49    0     989.5    NA       0.0000   9999     0     0     0    
2019/08/15  13:40:04  BASE  1.65816  24   2.29908  41   -4.4  100   -4.4  59    0     989.5    NA       0.0000   9999     0     0     0    
2019/08/15  13:41:04  BASE  1.71696  31   2.1462   30   -4.4  100   -4.4  72    0     989.4    NA       0.0000   9999     0     0     0    
2019/08/15  13:42:04  BASE  1.86396  37   2.1462   30   -4.4  100   -4.4  81    0     989.4    NA       0.0000   9999     0     0     0    
2019/08/15  13:43:04  BASE  1.98156  42   2.1462   30   -4.3  100   -4.3  84    0     989.4    NA       0.0000   9999     0     0     0    
2019/08/15  13:44:04  BASE  1.95216  45   2.1462   48   -4.3  100   -4.3  87    0     989.4    NA       0.0000   9999     0     0     0    
2019/08/15  13:45:04  BASE  1.911    41   2.1462   48   -4.4  100   -4.4  88    0     989.5    NA       0.0000   9999     0     0     0    
2019/08/15  13:46:04  BASE  2.00508  41   2.21088  43   -4.4  100   -4.4  87    0     989.5    NA       0.0000   9999     0     0     0    
2019/08/15  13:47:04  BASE  2.10504  45   2.29908  46   -4.4  100   -4.4  82    0     989.5    NA       0.0000   9999     0     0     0    
2019/08/15  13:48:05  BASE  2.08152  45   2.29908  46   -4.4  100   -4.4  75    0     989.5    NA       0.0000   9999     0     0     0    
2019/08/15  13:49:04  BASE  2.07564  46   2.38728  51   -4.4  100   -4.4  79    0     989.5    NA       0.0000   9999     0     0     0    
2019/08/15  13:50:04  BASE  2.04624  48   2.38728  51   -4.3  100   -4.3  86    0     989.5    NA       0.0000   9999     0     0     0    
2019/08/15  13:51:04  BASE  1.89924  47   2.38728  51   -4.2  99    -4.3  95    0     989.6    NA       0.0000   9999     0     0     0    
2019/08/15  13:52:04  BASE  1.75224  45   2.38728  51   -4.1  99    -4.3  99    0     989.6    NA       0.0000   9999     0     0     0    
2019/08/15  13:53:05  BASE  1.59348  42   2.38728  51   -4.1  98    -4.3  101   0     989.6    NA       0.0000   9999     0     0     0    
2019/08/15  13:54:05  BASE  1.40532  40   2.38728  51   -4.0  98    -4.3  103   0     989.6    NA       0.0000   9999     0     0     0    
2019/08/15  13:55:01  BASE  1.36416  40   2.38728  51   -4.0  97    -4.4  104   0     989.6    NA       0.0000   9999     0     0     0    
2019/08/15  13:56:04  BASE  1.51704  43   2.38728  51   -4.0  97    -4.4  106   0     989.6    NA       0.0000   9999     0     0     0    
2019/08/15  13:57:04  BASE  1.74048  37   2.38728  51   -3.9  96    -4.5  108   0     989.6    NA       0.0000   9999     0     0     0    
2019/08/15  13:58:04  BASE  1.78752  27   2.38728  51   -3.9  96    -4.5  110   0     989.7    NA       0.0000   9999     0     0     0    
2019/08/15  13:59:04  BASE  1.65816  27   2.0874   46   -3.9  95    -4.6  111   0     989.7    NA       0.0000   9999     0     0     0    
2019/08/15  14:00:04  BASE  1.62288  29   1.9992   49   -3.9  95    -4.6  113   0     989.7    NA       0.0000   9999     0     0     0    
2019/08/15  14:01:04  BASE  1.56408  26   1.96392  25   -4.0  94    -4.8  115   0     989.7    NA       0.0000   9999     0     0     0    
2019/08/15  14:02:04  BASE  1.44648  24   1.96392  25   -4.1  94    -4.9  118   0     989.7    NA       0.0000   9999     0     0     0    
2019/08/15  14:03:05  BASE  1.38768  29   1.96392  25   -4.1  93    -5.0  121   0     989.7    NA       0.0000   9999     6370  0     0    
2019/08/15  14:04:09  BASE  1.25832  30   1.96392  25   -4.2  93    -5.1  125   0     989.7    NA       0.0000   9999     6500  0     0    
2019/08/15  14:05:04  BASE  1.16424  26   1.96392  25   -4.2  93    -5.2  129   0     989.7    NA       0.0000   9999     6590  0     0    
2019/08/15  14:06:04  BASE  1.21128  26   1.96392  25   -4.3  92    -5.3  133   0     989.7    NA       0.0000   9999     6430  0     0    
2019/08/15  14:07:04  BASE  1.31712  32   1.90512  22   -4.3  92    -5.4  138   0     989.7    NA       0.0000   9999     6400  0     0    
2019/08/15  14:08:05  BASE  1.41708  39   1.69344  28   -4.3  91    -5.5  142   0     989.8    NA       0.0000   9999     6590  0     0    
2019/08/15  14:09:04  BASE  1.45824  42   1.69344  28   -4.3  91    -5.6  142   0     989.8    NA       0.0000   9999     6530  0     0    
2019/08/15  14:10:04  BASE  1.37004  39   1.66404  48   -4.3  90    -5.7  130   0     989.8    NA       0.0000   9999     6500  0     0    
2019/08/15  14:11:04  BASE  1.30536  32   1.66404  48   -4.3  90    -5.7  109   0     989.8    NA       0.0000   9999     6630  0     0    
2019/08/15  14:12:04  BASE  1.39356  26   1.66404  48   -4.4  90    -5.8  94    0     989.8    NA       0.0000   9999     6590  0     0    
2019/08/15  14:13:04  BASE  1.45236  24   1.66404  48   -4.4  90    -5.9  109   0     989.9    NA       0.0000   9999     6590  0     0    
2019/08/15  14:14:04  BASE  1.47588  25   1.66404  48   -4.5  89    -6.0  126   0     989.9    NA       0.0000   9999     6690  0     0    
2019/08/15  14:15:04  BASE  1.51704  19   1.66404  48   -4.5  89    -6.0  141   0     989.9    NA       0.0000   9999     6560  0     0    
2019/08/15  14:16:04  BASE  1.60524  17   1.78752  22   -4.5  89    -6.1  155   0     989.9    NA       0.0000   9999     6660  0     0    
2019/08/15  14:17:04  BASE  1.59936  17   1.78752  22   -4.7  89    -6.2  159   0     989.9    NA       0.0000   9999     6790  0     0    
2019/08/15  14:18:04  BASE  1.6464   19   1.87572  25   -4.9  88    -6.5  164   0     989.9    NA       0.0000   9999     6730  0     0    
2019/08/15  14:19:04  BASE  1.764    24   1.93452  29   -5.2  88    -6.8  165   0     989.9    NA       0.0000   9999     6660  0     0    
2019/08/15  14:20:04  BASE  1.65228  19   1.93452  29   -5.4  88    -7.1  166   0     989.9    NA       0.0000   9999     6660  0     0    
2019/08/15  14:21:04  BASE  1.43472  13   1.93452  29   -5.7  88    -7.3  167   0     989.9    NA       0.0000   9999     6500  0     0    
2019/08/15  14:22:04  BASE  1.48176  22   1.93452  29   -5.8  89    -7.3  164   0     989.9    NA       0.0000   9999     6560  0     0    
2019/08/15  14:23:04  BASE  1.77576  32   2.0286   32   -5.8  91    -7.1  156   0     989.9    NA       0.0000   9999     6560  0     0    
2019/08/15  14:24:04  BASE  1.95804  30   2.24028  25   -5.7  92    -6.8  150   0     989.9    NA       0.0000   9999     6460  0     0    
2019/08/15  14:25:04  BASE  2.18148  30   2.54016  32   -5.6  93    -6.5  155   0     989.9    NA       0.0000   9999     6330  0     0    
2019/08/15  14:26:04  BASE  2.31672  32   2.54016  32   -5.4  95    -6.2  163   0     989.9    NA       0.0000   9999     0     0     0    
2019/08/15  14:27:04  BASE  2.08152  35   2.54016  32   -5.3  95    -5.9  170   0     989.9    NA       0.0000   9999     6590  0     0    
2019/08/15  14:28:04  BASE  1.77576  39   2.54016  32   -5.3  96    -5.9  171   0     989.9    NA       0.0000   9999     6100  0     0    
2019/08/15  14:29:04  BASE  1.5288   36   2.54016  32   -5.3  96    -5.9  172   0     989.9    NA       0.0000   9999     6430  0     0    
2019/08/15  14:30:04  BASE  1.38768  26   2.54016  32   -5.4  96    -5.9  172   0     989.9    NA       0.0000   9999     6430  0     0    
2019/08/15  14:31:05  BASE  1.37004  21   2.54016  32   -5.4  96    -5.9  172   0     989.9    NA       0.0000   9999     6400  0     0    
2019/08/15  14:32:04  BASE  1.28184  16   2.54016  32   -5.5  96    -5.9  173   0     990.0    NA       0.0000   9999     6430  0     0    
2019/08/15  14:33:04  BASE  1.18188  12   2.54016  32   -5.4  97    -5.9  173   0     990.1    NA       0.0000   9999     6500  0     0    
2019/08/15  14:34:04  BASE  1.22892  14   2.54016  32   -5.3  97    -5.7  174   0     990.1    NA       0.0000   9999     6630  0     0    
2019/08/15  14:35:04  BASE  1.2054   5    2.42256  34   -5.2  97    -5.6  175   0     990.1    NA       0.0000   9999     6630  0     0    
2019/08/15  14:36:04  BASE  1.05252  351  2.1462   35   -5.0  97    -5.5  176   0     990.2    NA       0.0000   9999     6560  0     0    
2019/08/15  14:37:04  BASE  1.04076  345  1.78752  42   -5.0  97    -5.4  177   0     990.2    NA       0.0000   9999     6530  0     0    
2019/08/15  14:38:04  BASE  1.05252  340  1.48176  29   -4.9  96    -5.4  177   0     990.2    NA       0.0000   9999     6590  0     0    
2019/08/15  14:39:04  BASE  1.0878   341  1.42296  20   -4.9  96    -5.4  177   0     990.2    NA       0.0000   9999     0     0     0    
2019/08/15  14:40:04  BASE  1.12896  341  1.42296  20   -4.9  95    -5.5  176   0     990.2    NA       0.0000   9999     6660  0     0    
2019/08/15  14:41:04  BASE  1.06428  338  1.35828  17   -4.9  95    -5.5  176   0     990.3    NA       0.0000   9999     6630  0     0    
2019/08/15  14:42:04  BASE  1.02312  337  1.35828  17   -4.9  95    -5.6  176   0     990.3    NA       0.0000   9999     6630  0     0    
2019/08/15  14:43:04  BASE  1.0584   340  1.35828  17   -5.0  95    -5.7  176   0     990.3    NA       0.0000   9999     6630  0     0    
2019/08/15  14:44:04  BASE  1.08192  342  1.27008  337  -5.2  95    -5.8  176   0     990.4    NA       0.0000   9999     6630  0     0    
2019/08/15  14:45:04  BASE  1.11132  337  1.27008  337  -5.3  95    -5.9  177   0     990.4    NA       0.0000   9999     6560  0     0    
2019/08/15  14:46:04  BASE  1.19364  325  1.60524  304  -5.5  96    -6.1  178   0     990.4    NA       0.0000   9999     6590  0     0    
2019/08/15  14:47:04  BASE  1.15248  327  1.60524  304  -5.7  96    -6.2  180   0     990.4    NA       0.0000   9999     0     0     0    
2019/08/15  14:48:04  BASE  1.1466   325  1.60524  304  -5.7  97    -6.1  181   0     990.4    NA       0.0000   9999     0     0     0    
2019/08/15  14:49:04  BASE  1.176    326  1.60524  304  -5.7  98    -6.0  183   0     990.4    NA       0.0000   9999     0     0     0    
2019/08/15  14:50:04  BASE  1.21128  340  1.60524  304  -5.7  98    -6.0  183   0     990.4    NA       0.0000   9999     0     0     0    
2019/08/15  14:51:05  BASE  1.31712  346  1.60524  304  -5.7  99    -5.9  184   0     990.4    NA       0.0000   9999     0     0     0    
2019/08/15  14:52:04  BASE  1.25244  348  1.60524  304  -5.7  99    -5.8  184   0     990.4    NA       0.0000   9999     0     0     0    
2019/08/15  14:53:04  BASE  1.21128  351  1.60524  304  -5.8  99    -5.9  184   0     990.4    NA       0.0000   9999     0     0     0    
2019/08/15  14:54:04  BASE  1.32888  358  1.63464  11   -5.8  100   -5.8  184   0     990.5    NA       0.0000   9999     0     0     0    
2019/08/15  14:55:04  BASE  1.44648  3    1.78752  360  -5.7  100   -5.8  184   0     990.5    NA       0.0000   9999     0     0     0    
2019/08/15  14:56:05  BASE  1.3524   9    1.78752  360  -5.7  100   -5.7  183   0     990.5    NA       0.0000   9999     0     0     0    
2019/08/15  14:57:04  BASE  1.12896  15   1.78752  360  -5.7  100   -5.7  183   0     990.5    NA       0.0000   9999     0     0     0    
2019/08/15  14:58:05  BASE  1.12896  24   1.78752  360  -5.6  100   -5.6  182   0     990.5    NA       0.0000   9999     0     0     0    
2019/08/15  14:59:04  BASE  1.18776  33   1.78752  360  -5.6  100   -5.6  182   0     990.5    NA       0.0000   9999     0     0     0    
2019/08/15  15:00:04  BASE  1.24068  31   1.78752  360  -5.5  100   -5.5  181   0     990.5    NA       0.0000   9999     0     0     0    
2019/08/15  15:01:05  BASE  1.45236  23   1.78752  360  -5.5  100   -5.5  180   0     990.5    NA       0.0000   9999     0     0     0    
2019/08/15  15:02:04  BASE  1.6464   9    1.87572  349  -5.3  100   -5.3  181   0     990.5    NA       0.0000   9999     0     0     0    
2019/08/15  15:03:06  BASE  1.41708  7    1.87572  349  -5.2  100   -5.2  180   0     990.5    NA       0.0000   9999     0     0     0    
2019/08/15  15:04:01  BASE  1.35828  12   1.87572  349  -5.1  100   -5.1  180   0     990.5    NA       0.0000   9999     0     0     0    
2019/08/15  15:05:04  BASE  1.66404  3    1.90512  352  -5.0  100   -5.1  181   0     990.5    NA       0.0000   9999     0     0     0    
2019/08/15  15:06:04  BASE  1.84044  348  2.24028  353  -4.9  99    -5.0  181   0     990.5    NA       0.0000   9999     0     0     0    
2019/08/15  15:07:04  BASE  1.75812  349  2.24028  353  -4.8  99    -4.9  181   0     990.5    NA       0.0000   9999     0     0     0    
2019/08/15  15:08:04  BASE  1.71696  357  2.45196  350  -4.8  98    -5.1  180   0     990.5    NA       0.0000   9999     0     0     0    
2019/08/15  15:09:05  BASE  1.8522   351  2.45196  350  -4.9  97    -5.3  179   0     990.5    NA       0.0000   9999     0     0     0    
2019/08/15  15:10:05  BASE  1.75224  353  2.45196  350  -4.9  97    -5.4  179   0     990.5    NA       0.0000   9999     0     0     0    
2019/08/15  15:11:05  BASE  1.69932  359  2.45196  350  -5.1  96    -5.6  178   0     990.5    NA       0.0000   9999     0     0     0    
2019/08/15  15:12:05  BASE  1.66992  2    2.45196  350  -5.2  95    -5.8  177   0     990.6    NA       0.0000   9999     0     0     0    
2019/08/15  15:13:05  BASE  1.5876   9    2.45196  350  -5.2  95    -5.8  177   0     990.7    NA       0.0000   9999     0     0     0    
2019/08/15  15:14:05  BASE  1.65228  8    2.45196  350  -5.2  95    -5.9  177   0     990.7    NA       0.0000   9999     0     0     0    
2019/08/15  15:15:04  BASE  1.80516  3    2.45196  350  -5.1  95    -5.8  176   0     990.7    NA       0.0000   9999     0     0     0    
2019/08/15  15:16:05  BASE  1.76988  2    2.45196  350  -4.9  95    -5.7  176   0     990.7    NA       0.0000   9999     0     0     0    
2019/08/15  15:17:04  BASE  1.76988  4    2.45196  350  -4.8  94    -5.6  176   0     990.7    NA       0.0000   9999     0     0     0    
2019/08/15  15:18:05  BASE  1.89336  14   2.35788  353  -4.7  94    -5.5  176   0     990.7    NA       0.0000   9999     0     0     0    
2019/08/15  15:19:04  BASE  1.80516  23   2.29908  22   -4.7  93    -5.6  176   0     990.7    NA       0.0000   9999     0     0     0    
2019/08/15  15:20:04  BASE  1.62288  17   2.29908  22   -4.7  93    -5.7  176   0     990.8    NA       0.0000   9999     0     0     0    
2019/08/15  15:21:04  BASE  1.60524  18   2.29908  22   -4.7  92    -5.7  176   0     990.8    NA       0.0000   9999     0     0     0    
2019/08/15  15:22:04  BASE  1.7934   29   2.29908  22   -4.7  92    -5.8  176   0     990.8    NA       0.0000   9999     0     0     0    
2019/08/15  15:23:04  BASE  1.98156  28   2.48136  27   -4.7  92    -5.9  176   0     990.8    NA       0.0000   9999     0     0     0    
2019/08/15  15:24:04  BASE  1.95804  27   2.48136  27   -4.8  92    -5.9  177   0     990.8    NA       0.0000   9999     0     0     0    
2019/08/15  15:25:04  BASE  1.85808  29   2.48136  27   -4.8  92    -5.9  177   0     990.8    NA       0.0000   9999     0     0     0    
2019/08/15  15:26:04  BASE  1.90512  31   2.48136  27   -4.9  92    -6.0  177   0     990.8    NA       0.0000   9999     0     0     0    
2019/08/15  15:27:04  BASE  2.0286   33   2.48136  27   -5.0  92    -6.1  178   0     990.8    NA       0.0000   9999     0     0     0    
2019/08/15  15:28:05  BASE  2.058    33   2.48136  27   -5.0  92    -6.1  178   0     990.8    NA       0.0000   9999     0     0     0    
2019/08/15  15:29:04  BASE  2.24616  35   2.78124  39   -5.1  93    -6.0  178   0     990.8    NA       0.0000   9999     0     0     0    
2019/08/15  15:30:04  BASE  2.4402   37   2.78124  39   -5.1  93    -6.0  178   0     990.8    NA       0.0000   9999     0     0     0    
2019/08/15  15:31:04  BASE  2.46372  39   2.78124  39   -5.2  94    -6.0  179   0     990.8    NA       0.0000   9999     0     0     0    
2019/08/15  15:32:04  BASE  2.59896  45   2.81064  45   -5.3  94    -6.1  179   0     990.8    NA       0.0000   9999     0     0     0    
2019/08/15  15:33:04  BASE  2.58132  48   2.81064  45   -5.3  95    -6.0  180   0     990.8    NA       0.0000   9999     0     0     0    
2019/08/15  15:34:04  BASE  2.40492  52   2.81064  45   -5.4  95    -6.0  180   0     990.8    NA       0.0000   9999     0     0     0    
2019/08/15  15:35:04  BASE  2.28144  53   2.81064  45   -5.4  96    -5.9  180   0     990.8    NA       0.0000   9999     0     0     0    
2019/08/15  15:36:04  BASE  2.21676  53   2.81064  45   -5.3  96    -5.8  180   0     990.8    NA       0.0000   9999     0     0     0    
2019/08/15  15:37:04  BASE  2.205    58   2.81064  45   -5.2  97    -5.7  181   0     990.8    NA       0.0000   9999     0     0     0    
2019/08/15  15:38:04  BASE  2.2344   59   2.81064  45   -5.2  97    -5.6  181   0     990.8    NA       0.0000   9999     0     0     0    
2019/08/15  15:39:04  BASE  2.25204  51   2.81064  45   -5.1  97    -5.5  182   0     990.8    NA       0.0000   9999     0     0     0    
2019/08/15  15:40:04  BASE  2.07564  45   2.81064  45   -5.0  97    -5.4  182   0     990.8    NA       0.0000   9999     0     0     0    
2019/08/15  15:41:04  BASE  1.9698   45   2.81064  45   -5.0  97    -5.3  183   0     990.9    NA       0.0000   9999     0     0     0    
2019/08/15  15:42:04  BASE  1.96392  44   2.72244  44   -4.9  97    -5.3  183   0     990.9    NA       0.0000   9999     0     0     0    
2019/08/15  15:43:04  BASE  1.911    45   2.54016  57   -4.9  97    -5.2  184   0     990.9    NA       0.0000   9999     0     0     0    
2019/08/15  15:44:04  BASE  1.84044  47   2.48136  57   -4.8  97    -5.2  184   0     990.9    NA       0.0000   9999     0     0     0    
2019/08/15  15:45:04  BASE  1.71696  46   2.48136  57   -4.8  97    -5.2  184   0     991.0    NA       0.0000   9999     0     0     0    
2019/08/15  15:46:04  BASE  1.52292  44   2.48136  57   -4.8  97    -5.3  184   0     991.0    NA       0.0000   9999     0     0     0    
2019/08/15  15:47:04  BASE  1.28772  46   2.48136  57   -4.8  96    -5.3  184   0     991.0    NA       0.0000   9999     0     0     0    
2019/08/15  15:48:05  BASE  1.09368  50   2.48136  57   -4.8  96    -5.3  185   0     991.0    NA       0.0000   9999     0     0     0    
2019/08/15  15:49:04  BASE  0.8526   57   2.24028  41   -4.7  96    -5.3  185   0     991.0    NA       0.0000   9999     0     0     0    
2019/08/15  15:50:04  BASE  0.44688  50   2.24028  41   -4.7  96    -5.3  185   0     991.0    NA       0.0000   9999     0     0     0    
2019/08/15  15:51:04  BASE  0.4116   45   2.0286   48   -4.6  95    -5.3  186   0     991.0    NA       0.0000   9999     0     0     0    
2019/08/15  15:52:04  BASE  0.31752  28   2.0286   48   -4.6  95    -5.3  186   0     991.0    NA       0.0000   9999     0     0     0    
2019/08/15  15:53:04  BASE  0.0294   4    1.84632  50   -4.5  94    -5.3  186   0     991.0    NA       0.0000   9999     0     0     0    
2019/08/15  15:54:04  BASE  0.3234   11   1.81692  46   -4.4  94    -5.3  186   0     991.0    NA       0.0000   9999     0     0     0    
2019/08/15  15:55:04  BASE  0.68208  9    1.54056  51   -4.4  93    -5.3  186   0     991.0    NA       0.0000   9999     0     0     0    
2019/08/15  15:56:05  BASE  0.81144  10   1.35828  40   -4.4  93    -5.4  187   0     991.0    NA       0.0000   9999     0     0     0    
2019/08/15  15:57:04  BASE  0.89964  15   1.29948  24   -4.4  92    -5.5  187   0     991.0    NA       0.0000   9999     0     0     0    
2019/08/15  15:58:04  BASE  0.98784  18   1.29948  24   -4.5  91    -5.7  187   0     991.0    NA       0.0000   9999     0     0     0    
2019/08/15  15:59:04  BASE  0.96432  24   1.29948  24   -4.6  91    -5.8  187   0     991.0    NA       0.0000   9999     0     0     0    
2019/08/15  16:00:04  BASE  0.92904  20   1.29948  24   -4.6  90    -6.0  187   0     991.0    NA       0.0000   9999     0     0     0    
2019/08/15  16:01:05  BASE  0.94668  7    1.29948  24   -4.7  90    -6.0  187   0     991.0    NA       0.0000   9999     0     0     0    
2019/08/15  16:02:04  BASE  1.029    354  1.29948  24   -4.7  90    -6.1  188   0     991.0    NA       0.0000   9999     0     0     0    
2019/08/15  16:03:05  BASE  1.10544  342  1.29948  24   -4.8  90    -6.1  188   0     991.0    NA       0.0000   9999     0     0     0    
2019/08/15  16:04:01  BASE  1.02312  344  1.29948  24   -4.8  90    -6.1  188   0     991.0    NA       0.0000   9999     0     0     0    
2019/08/15  16:05:04  BASE  0.86436  353  1.29948  24   -4.8  91    -6.1  187   0     991.0    NA       0.0000   9999     0     0     0    
2019/08/15  16:06:04  BASE  0.91728  351  1.29948  24   -4.8  91    -6.1  187   0     991.0    NA       0.0000   9999     0     0     0    
2019/08/15  16:07:04  BASE  1.05252  342  1.27008  339  -4.8  91    -6.1  187   0     991.0    NA       0.0000   9999     0     0     0    
2019/08/15  16:08:05  BASE  1.09368  337  1.27008  338  -4.9  91    -6.1  187   0     991.0    NA       0.0000   9999     0     0     0    
2019/08/15  16:09:04  BASE  1.12308  337  1.27008  338  -4.9  91    -6.1  186   0     991.1    NA       0.0000   9999     0     0     0    
2019/08/15  16:10:04  BASE  1.06428  339  1.27008  338  -4.8  91    -6.1  186   0     991.2    NA       0.0000   9999     0     0     0    
2019/08/15  16:11:05  BASE  1.05252  351  1.27008  338  -4.8  91    -6.1  186   0     991.2    NA       0.0000   9999     0     0     0    
2019/08/15  16:12:04  BASE  1.0878   6    1.27008  338  -4.8  91    -6.1  176   0     991.2    NA       0.0000   9999     0     0     0    
2019/08/15  16:13:04  BASE  1.11132  18   1.27008  19   -4.9  90    -6.2  125   0     991.3    NA       0.0000   9999     0     0     0    
2019/08/15  16:14:04  BASE  1.24068  24   1.48176  20   -5.0  90    -6.4  152   0     991.3    NA       0.0000   9999     0     0     0    
2019/08/15  16:15:04  BASE  1.4406   21   1.60524  16   -5.1  90    -6.5  185   0     991.3    NA       0.0000   9999     0     0     0    
2019/08/15  16:16:04  BASE  1.54056  21   1.69344  28   -5.2  90    -6.6  185   0     991.4    NA       0.0000   9999     0     0     0    
2019/08/15  16:17:04  BASE  1.5876   22   1.75224  16   -5.4  90    -6.8  185   0     991.4    NA       0.0000   9999     0     0     0    
2019/08/15  16:18:04  BASE  1.64052  19   1.81692  18   -5.5  90    -6.9  185   0     991.4    NA       0.0000   9999     0     0     0    
2019/08/15  16:19:04  BASE  1.71696  17   1.81692  18   -5.6  90    -7.0  185   0     991.4    NA       0.0000   9999     0     0     0    
2019/08/15  16:20:04  BASE  1.75224  16   1.84632  16   -5.7  90    -7.0  185   0     991.3    NA       0.0000   9999     0     0     0    
2019/08/15  16:21:05  BASE  1.71108  17   1.84632  16   -5.8  91    -7.1  184   0     991.3    NA       0.0000   9999     0     0     0    
2019/08/15  16:22:04  BASE  1.80516  23   2.0874   31   -5.8  91    -7.1  184   0     991.3    NA       0.0000   9999     0     0     0    
2019/08/15  16:23:05  BASE  1.911    30   2.0874   31   -5.9  92    -7.1  184   0     991.3    NA       0.0000   9999     0     0     0    
2019/08/15  16:24:05  BASE  1.87572  36   2.0874   31   -6.0  92    -7.1  184   0     991.3    NA       0.0000   9999     0     0     0    
2019/08/15  16:25:04  BASE  1.93452  39   2.0874   39   -6.0  92    -7.1  185   0     991.2    NA       0.0000   9999     0     0     0    
2019/08/15  16:26:04  BASE  1.96392  40   2.0874   39   -6.0  92    -7.1  184   0     991.2    NA       0.0000   9999     0     0     0    
2019/08/15  16:27:04  BASE  1.92276  38   2.0874   39   -6.0  92    -7.0  184   0     991.2    NA       0.0000   9999     0     0     0    
2019/08/15  16:28:05  BASE  1.92864  34   2.0874   39   -5.9  92    -7.0  184   0     991.2    NA       0.0000   9999     0     0     0    
2019/08/15  16:29:04  BASE  1.98744  28   2.0874   30   -5.8  92    -6.9  184   0     991.2    NA       0.0000   9999     0     0     0    
2019/08/15  16:30:04  BASE  1.9698   22   2.1168   1    -5.7  91    -6.9  185   0     991.2    NA       0.0000   9999     0     0     0    
2019/08/15  16:31:04  BASE  1.89924  14   2.1168   1    -5.7  91    -6.9  184   0     991.2    NA       0.0000   9999     0     0     0    
2019/08/15  16:32:04  BASE  1.79928  3    2.1168   1    -5.6  91    -6.9  185   0     991.3    NA       0.0000   9999     0     0     0    
2019/08/15  16:33:04  BASE  1.764    359  2.1168   1    -5.6  90    -6.9  184   0     991.2    NA       0.0000   9999     0     0     0    
2019/08/15  16:34:04  BASE  1.7934   358  2.1168   1    -5.5  90    -6.9  184   0     991.3    NA       0.0000   9999     0     0     0    
2019/08/15  16:35:04  BASE  1.87572  351  2.1168   1    -5.5  89    -6.9  185   0     991.2    NA       0.0000   9999     0     0     0    
2019/08/15  16:36:04  BASE  1.90512  352  2.1168   1    -5.4  89    -6.9  185   0     991.3    NA       0.0000   9999     0     0     0    
2019/08/15  16:37:04  BASE  1.8522   347  2.1168   1    -5.4  88    -7.0  184   0     991.3    NA       0.0000   9999     0     0     0    
2019/08/15  16:38:04  BASE  1.81104  341  2.1168   1    -5.4  88    -7.1  184   0     991.3    NA       0.0000   9999     0     0     0    
2019/08/15  16:39:04  BASE  1.93452  339  2.26968  333  -5.4  87    -7.2  185   0     991.3    NA       0.0000   9999     0     0     0    
2019/08/15  16:40:04  BASE  2.11092  335  2.29908  333  -5.4  86    -7.3  184   0     991.3    NA       0.0000   9999     0     0     0    
2019/08/15  16:41:04  BASE  2.2638   333  2.59896  331  -5.4  86    -7.4  185   0     991.4    NA       0.0000   9999     0     0     0    
2019/08/15  16:42:04  BASE  2.42256  334  2.59896  331  -5.4  85    -7.5  185   0     991.4    NA       0.0000   9999     0     0     0    
2019/08/15  16:43:04  BASE  2.499    334  2.63424  336  -5.5  85    -7.6  186   0     991.4    NA       0.0000   9999     0     0     0    
2019/08/15  16:44:04  BASE  2.44608  330  2.63424  336  -5.6  85    -7.7  186   0     991.4    NA       0.0000   9999     0     0     0    
2019/08/15  16:45:04  BASE  2.31084  326  2.63424  336  -5.7  85    -7.8  191   0     991.4    NA       0.0000   9999     490   0     0    
2019/08/15  16:46:04  BASE  2.29908  325  2.63424  336  -5.9  85    -8.0  188   0     991.5    NA       0.0000   9999     520   0     0    
2019/08/15  16:47:04  BASE  2.2932   322  2.63424  336  -6.1  85    -8.2  186   0     991.5    NA       0.0000   9999     560   0     0    
2019/08/15  16:48:04  BASE  2.33436  325  2.66364  330  -6.3  86    -8.3  187   0     991.5    NA       0.0000   9999     0     0     0    
2019/08/15  16:49:04  BASE  2.52252  327  2.93412  326  -6.5  86    -8.4  186   0     991.5    NA       0.0000   9999     0     0     0    
2019/08/15  16:50:04  BASE  2.72832  328  3.1164   330  -6.7  87    -8.5  186   0     991.5    NA       0.0000   9999     0     0     0    
2019/08/15  16:51:04  BASE  2.98704  330  3.234    335  -6.8  88    -8.4  186   0     991.5    NA       0.0000   9999     0     0     0    
2019/08/15  16:52:04  BASE  3.0576   334  3.234    335  -6.8  89    -8.3  186   0     991.6    NA       0.0000   9999     0     0     0    
2019/08/15  16:53:04  BASE  2.9106   338  3.234    335  -6.8  90    -8.1  189   0     991.6    NA       0.0000   9999     0     0     0    
2019/08/15  16:54:04  BASE  2.92236  338  3.234    335  -6.7  91    -7.9  200   0     991.6    NA       0.0000   9999     0     0     0    
2019/08/15  16:55:04  BASE  3.08112  339  3.41628  340  -6.6  92    -7.7  139   0     991.6    NA       0.0000   9999     520   0     0    
2019/08/15  16:56:04  BASE  3.37512  339  3.69264  338  -6.5  92    -7.6  136   0     991.5    NA       0.0000   9999     460   0     0    
2019/08/15  16:57:04  BASE  3.69852  339  3.96312  337  -6.5  93    -7.5  130   0     991.5    NA       0.0000   9999     390   0     0    
2019/08/15  16:58:04  BASE  3.80436  340  3.96312  337  -6.5  93    -7.5  155   0     991.5    NA       0.0000   9999     390   0     0    
2019/08/15  16:59:04  BASE  3.65736  339  3.96312  337  -6.5  93    -7.5  181   0     991.6    NA       0.0000   9999     390   0     0    
2019/08/15  17:00:04  BASE  3.4692   340  3.96312  337  -6.5  93    -7.5  181   0     991.6    NA       0.0000   9999     430   0     0    
2019/08/15  17:01:05  BASE  3.32808  341  3.96312  337  -6.6  93    -7.4  175   0     991.6    NA       0.0000   9999     460   0     0    
2019/08/15  17:02:04  BASE  3.16932  343  3.96312  337  -6.6  94    -7.5  195   0     991.6    NA       0.0000   9999     490   0     0    
2019/08/15  17:03:05  BASE  2.91648  344  3.96312  337  -6.6  94    -7.5  136   0     991.6    NA       0.0000   9999     520   0     0    
2019/08/15  17:04:01  BASE  2.77536  345  3.96312  337  -6.7  94    -7.5  130   0     991.6    NA       0.0000   9999     520   0     0    
2019/08/15  17:05:04  BASE  2.89296  347  3.96312  337  -6.7  94    -7.5  129   0     991.7    NA       0.0000   9999     520   0     0    
2019/08/15  17:06:05  BASE  3.04584  349  3.96312  337  -6.7  94    -7.5  136   0     991.7    NA       0.0000   9999     520   0     0    
2019/08/15  17:07:04  BASE  3.13404  350  3.93372  340  -6.7  95    -7.4  134   0     991.7    NA       0.0000   9999     520   0     0    
2019/08/15  17:08:05  BASE  3.03996  350  3.69264  340  -6.7  95    -7.4  127   0     991.7    NA       0.0000   9999     520   0     0    
2019/08/15  17:09:04  BASE  2.74596  355  3.51036  341  -6.6  95    -7.3  121   0     991.7    NA       0.0000   9999     520   0     0    
2019/08/15  17:10:04  BASE  2.49312  359  3.38688  350  -6.6  95    -7.2  119   0     991.7    NA       0.0000   9999     520   0     0    
2019/08/15  17:11:04  BASE  2.49312  359  3.38688  350  -6.6  95    -7.2  116   0     991.7    NA       0.0000   9999     520   0     0    
2019/08/15  17:12:04  BASE  2.78124  354  3.38688  350  -6.6  95    -7.2  122   0     991.7    NA       0.0000   9999     520   0     0    
2019/08/15  17:13:04  BASE  3.03996  352  3.56916  350  -6.6  95    -7.2  131   0     991.6    NA       0.0000   9999     520   0     0    
2019/08/15  17:14:04  BASE  3.03996  354  3.56916  350  -6.6  95    -7.2  130   0     991.6    NA       0.0000   9999     520   0     0    
2019/08/15  17:15:04  BASE  2.75184  360  3.56916  350  -6.6  96    -7.2  124   0     991.6    NA       0.0000   9999     520   0     0    
2019/08/15  17:16:15  BASE  2.54604  3    3.56916  350  -6.6  96    -7.1  124   0     991.7    NA       0.0000   9999     520   0     0    
2019/08/15  17:17:04  BASE  2.64012  1    3.56916  350  -6.6  96    -7.1  128   0     991.7    NA       0.0000   9999     560   0     0    
2019/08/15  17:18:04  BASE  2.75184  1    3.56916  350  -6.6  96    -7.0  125   0     991.7    NA       0.0000   9999     520   0     0    
2019/08/15  17:19:05  BASE  2.75184  0    3.56916  350  -6.6  97    -7.0  114   0     991.7    NA       0.0000   9999     520   0     0    
2019/08/15  17:20:01  BASE  2.68716  1    3.56916  350  -6.5  97    -6.9  114   0     991.7    NA       0.0000   9999     520   0     0    
2019/08/15  17:21:04  BASE  2.72832  4    3.56916  350  -6.4  98    -6.7  118   0     991.7    NA       0.0000   9999     520   0     0    
2019/08/15  17:22:04  BASE  2.94     2    3.56916  350  -6.3  98    -6.6  120   0     991.7    NA       0.0000   9999     490   0     0    
2019/08/15  17:23:04  BASE  3.26928  356  3.59856  352  -6.2  99    -6.4  119   0     991.7    NA       0.0000   9999     520   0     0    
2019/08/15  17:24:04  BASE  3.4104   348  3.99252  331  -6.1  99    -6.2  111   0     991.7    NA       0.0000   9999     460   0     0    
2019/08/15  17:25:04  BASE  3.61032  345  4.32768  348  -5.9  99    -6.0  104   0     991.7    NA       0.0000   9999     520   0     0    
2019/08/15  17:26:04  BASE  3.56328  349  4.32768  348  -5.8  100   -5.8  102   0     991.7    NA       0.0000   9999     520   0     0    
2019/08/15  17:27:04  BASE  3.4986   351  4.32768  348  -5.6  100   -5.6  106   0     991.7    NA       0.0000   9999     560   0     0    
2019/08/15  17:28:04  BASE  3.83376  349  4.41588  345  -5.5  100   -5.5  111   0     991.7    NA       0.0000   9999     560   0     0    
2019/08/15  17:29:04  BASE  3.9102   348  4.59816  351  -5.5  100   -5.5  117   0     991.7    NA       0.0000   9999     520   0     0    
2019/08/15  17:30:04  BASE  3.61032  347  4.59816  351  -5.4  100   -5.4  116   0     991.7    NA       0.0000   9999     490   0     0    
2019/08/15  17:31:04  BASE  3.49272  343  4.59816  351  -5.4  100   -5.4  122   0     991.7    NA       0.0000   9999     520   0     0    
2019/08/15  17:32:04  BASE  3.53976  343  4.59816  351  -5.4  100   -5.4  120   0     991.7    NA       0.0000   9999     520   0     0    
2019/08/15  17:33:04  BASE  3.381    341  4.59816  351  -5.4  100   -5.4  132   0     991.7    NA       0.0000   9999     590   0     0    
2019/08/15  17:34:04  BASE  3.37512  341  4.59816  351  -5.4  100   -5.4  132   0     991.7    NA       0.0000   9999     590   0     0    
2019/08/15  17:35:04  BASE  3.4398   344  4.59816  351  -5.4  100   -5.4  135   0     991.7    NA       0.0000   9999     590   0     0    
2019/08/15  17:36:05  BASE  3.31044  342  4.59816  351  -5.5  100   -5.5  116   0     991.7    NA       0.0000   9999     490   0     0    
2019/08/15  17:37:04  BASE  3.22812  338  4.59816  351  -5.5  100   -5.5  115   0     991.6    NA       0.0000   9999     460   0     0    
2019/08/15  17:38:05  BASE  3.51036  340  4.59816  351  -5.5  100   -5.5  113   0     991.6    NA       0.0000   9999     460   0     0    
2019/08/15  17:39:04  BASE  3.86316  340  4.29828  342  -5.5  100   -5.5  107   0     991.6    NA       0.0000   9999     390   0     0    
2019/08/15  17:40:04  BASE  3.4986   344  4.29828  342  -5.5  100   -5.5  107   0     991.7    NA       0.0000   9999     560   0     0    
2019/08/15  17:41:04  BASE  2.9106   354  4.29828  342  -5.6  100   -5.6  106   0     991.7    NA       0.0000   9999     460   0     0    
2019/08/15  17:42:04  BASE  2.71068  352  4.29828  342  -5.6  100   -5.6  100   0     991.7    NA       0.0000   9999     430   0     0    
2019/08/15  17:43:04  BASE  2.68128  345  4.29828  342  -5.7  100   -5.7  100   0     991.7    NA       0.0000   9999     460   0     0    
2019/08/15  17:44:04  BASE  2.85768  340  4.29828  342  -5.8  100   -5.8  102   0     991.7    NA       0.0000   9999     360   0     0    
2019/08/15  17:45:04  BASE  3.02232  332  4.29828  342  -5.8  100   -5.8  98    0     991.7    NA       0.0000   9999     360   0     0    
2019/08/15  17:46:04  BASE  3.10464  326  4.29828  342  -5.8  100   -5.8  98    0     991.7    NA       0.0000   9999     300   0     0    
2019/08/15  17:47:04  BASE  3.27516  322  4.29828  342  -5.8  100   -5.8  93    0     991.7    NA       0.0000   9999     300   0     0    
2019/08/15  17:48:04  BASE  3.48096  321  4.2336   333  -5.7  100   -5.7  95    0     991.7    NA       0.0000   9999     300   0     0    
2019/08/15  17:49:04  BASE  3.65148  320  3.99252  313  -5.7  100   -5.7  91    0     991.8    NA       0.0000   9999     360   0     0    
2019/08/15  17:50:04  BASE  3.76908  317  4.47468  310  -5.6  100   -5.6  98    0     991.8    NA       0.0000   9999     360   0     0    
2019/08/15  17:51:04  BASE  4.11012  316  4.89804  317  -5.6  100   -5.6  105   0     991.8    NA       0.0000   9999     330   0     0    
2019/08/15  17:52:04  BASE  4.57464  321  5.145    332  -5.6  100   -5.6  107   0     991.8    NA       0.0000   9999     390   0     0    
2019/08/15  17:53:04  BASE  4.46292  331  5.145    332  -5.6  100   -5.6  104   0     991.8    NA       0.0000   9999     230   0     0    
2019/08/15  17:54:04  BASE  3.85728  337  5.145    332  -5.6  100   -5.6  93    0     991.8    NA       0.0000   9999     360   0     0    
2019/08/15  17:55:04  BASE  3.44568  329  5.145    332  -5.6  100   -5.6  91    0     991.8    NA       0.0000   9999     390   0     0    
2019/08/15  17:56:04  BASE  3.57504  316  5.145    332  -5.6  100   -5.6  96    0     991.8    NA       0.0000   9999     390   0     0    
2019/08/15  17:57:04  BASE  4.03956  312  5.145    332  -5.6  100   -5.6  98    0     991.8    NA       0.0000   9999     330   0     0    
2019/08/15  17:58:04  BASE  4.21596  317  5.145    332  -5.6  100   -5.6  96    0     991.8    NA       0.0000   9999     360   0     0    
2019/08/15  17:59:03  BASE  3.92784  328  5.145    332  -5.6  100   -5.6  96    0     991.8    NA       0.0000   9999     360   0     0    
2019/08/15  18:00:04  BASE  3.96312  336  5.145    332  -5.6  100   -5.6  94    0     991.7    NA       0.0000   9999     360   0     0    
2019/08/15  18:01:04  BASE  4.0572   338  5.145    332  -5.6  100   -5.6  90    0     991.7    NA       0.0000   9999     360   0     0    
2019/08/15  18:02:04  BASE  3.97488  335  5.05092  334  -5.7  100   -5.7  93    0     991.7    NA       0.0000   9999     330   0     0    
2019/08/15  18:03:05  BASE  3.75144  333  4.68636  314  -5.7  100   -5.7  97    0     991.7    NA       0.0000   9999     360   0     0    
2019/08/15  18:04:01  BASE  3.99252  333  4.89804  330  -5.7  100   -5.7  97    0     991.7    NA       0.0000   9999     430   0     0    
2019/08/15  18:05:04  BASE  4.42176  329  5.02152  323  -5.7  100   -5.7  93    0     991.7    NA       0.0000   9999     460   0     0    
2019/08/15  18:06:04  BASE  3.92784  330  5.02152  323  -5.7  100   -5.7  96    0     991.7    NA       0.0000   9999     490   0     0    
2019/08/15  18:07:04  BASE  3.50448  328  5.02152  323  -5.7  100   -5.7  99    0     991.8    NA       0.0000   9999     560   0     0    
2019/08/15  18:08:04  BASE  3.51624  323  5.02152  323  -5.8  100   -5.8  94    0     991.8    NA       0.0000   9999     560   0     0    
2019/08/15  18:09:04  BASE  3.77496  324  5.02152  323  -5.8  100   -5.8  88    0     991.8    NA       0.0000   9999     590   0     0    
2019/08/15  18:10:04  BASE  3.81612  326  5.02152  323  -5.9  100   -5.9  85    0     991.8    NA       0.0000   9999     560   0     0    
2019/08/15  18:11:04  BASE  3.41628  325  5.02152  323  -5.9  100   -5.9  86    0     991.9    NA       0.0000   9999     560   0     0    
2019/08/15  18:12:04  BASE  3.2046   320  5.02152  323  -5.9  100   -5.9  87    0     992.0    NA       0.0000   9999     520   0     0    
2019/08/15  18:13:04  BASE  3.18696  313  5.02152  323  -6.0  100   -6.0  84    0     992.0    NA       0.0000   9999     490   0     0    
2019/08/15  18:14:04  BASE  3.21636  308  5.02152  323  -6.0  100   -6.0  79    0     992.0    NA       0.0000   9999     430   0     0    
2019/08/15  18:15:04  BASE  3.63384  300  4.32768  299  -6.0  100   -6.0  78    0     992.1    NA       0.0000   9999     430   0     0    
2019/08/15  18:16:04  BASE  4.11012  295  4.38648  292  -6.0  100   -6.0  77    0     992.1    NA       0.0000   9999     390   0     0    
2019/08/15  18:17:04  BASE  4.25124  296  4.47468  293  -6.0  100   -6.0  76    0     992.1    NA       0.0000   9999     390   0     0    
2019/08/15  18:18:04  BASE  4.06896  300  4.47468  293  -6.0  100   -6.0  75    0     992.1    NA       0.0000   9999     430   0     0    
2019/08/15  18:19:04  BASE  3.92784  308  4.47468  293  -6.0  100   -6.0  69    0     992.1    NA       0.0000   9999     390   0     0    
2019/08/15  18:20:04  BASE  3.6456   311  4.47468  293  -6.0  100   -6.0  68    0     992.1    NA       0.0000   9999     390   0     0    
2019/08/15  18:21:05  BASE  3.28692  310  4.47468  293  -6.0  100   -6.0  71    0     992.1    NA       0.0000   9999     360   0     0    
2019/08/15  18:22:04  BASE  3.65736  309  4.62756  312  -6.1  100   -6.1  67    0     992.1    NA       0.0000   9999     330   0     0    
2019/08/15  18:23:04  BASE  4.1748   311  4.65696  317  -6.1  100   -6.1  66    0     992.2    NA       0.0000   9999     260   0     0    
2019/08/15  18:24:04  BASE  3.9984   306  4.65696  317  -6.1  100   -6.1  65    0     992.2    NA       0.0000   9999     300   0     0    
2019/08/15  18:25:04  BASE  3.57504  297  4.65696  317  -6.1  100   -6.1  64    0     992.2    NA       0.0000   9999     300   0     0    
2019/08/15  18:26:04  BASE  3.7926   297  4.65696  317  -6.1  100   -6.1  64    0     992.2    NA       0.0000   9999     330   0     0    
2019/08/15  18:27:03  BASE  4.30416  304  5.10972  305  -6.1  100   -6.1  62    0     992.2    NA       0.0000   9999     330   0     0    
2019/08/15  18:28:04  BASE  4.55112  306  5.10972  305  -6.1  100   -6.1  64    0     992.2    NA       0.0000   9999     300   0     0    
2019/08/15  18:29:04  BASE  4.52172  299  5.10972  305  -6.2  100   -6.2  63    0     992.2    NA       0.0000   9999     330   0     0    
2019/08/15  18:30:04  BASE  4.52172  294  5.10972  305  -6.2  100   -6.2  60    0     992.2    NA       0.0000   9999     390   0     0    
2019/08/15  18:31:04  BASE  4.54524  291  5.10972  305  -6.3  100   -6.3  62    0     992.2    NA       0.0000   9999     360   0     0    
2019/08/15  18:32:04  BASE  4.41588  292  5.10972  305  -6.3  100   -6.3  63    0     992.2    NA       0.0000   9999     360   0     0    
2019/08/15  18:33:04  BASE  4.28652  297  5.10972  305  -6.4  100   -6.4  60    0     992.2    NA       0.0000   9999     390   0     0    
2019/08/15  18:34:04  BASE  4.3806   300  5.10972  305  -6.4  100   -6.4  56    0     992.2    NA       0.0000   9999     360   0     0    
2019/08/15  18:35:04  BASE  4.38648  302  5.10972  305  -6.5  100   -6.5  53    0     992.2    NA       0.0000   9999     300   0     0    
2019/08/15  18:36:05  BASE  4.1454   302  5.10972  305  -6.5  100   -6.5  52    0     992.2    NA       0.0000   9999     300   0     0    
2019/08/15  18:37:04  BASE  4.04544  305  4.96272  288  -6.5  100   -6.5  54    0     992.2    NA       0.0000   9999     330   0     0    
2019/08/15  18:38:04  BASE  4.33944  307  4.96272  288  -6.6  100   -6.6  53    0     992.2    NA       0.0000   9999     360   0     0    
2019/08/15  18:39:04  BASE  4.50408  308  4.96272  288  -6.6  100   -6.6  55    0     992.2    NA       0.0000   9999     360   0     0    
2019/08/15  18:40:04  BASE  4.5864   308  5.35668  303  -6.6  100   -6.6  57    0     992.2    NA       0.0000   9999     360   0     0    
2019/08/15  18:41:04  BASE  4.7334   305  5.35668  303  -6.6  100   -6.6  57    0     992.2    NA       0.0000   9999     330   0     0    
2019/08/15  18:42:04  BASE  4.69812  303  5.35668  303  -6.6  100   -6.6  51    0     992.2    NA       0.0000   9999     330   0     0    
2019/08/15  18:43:04  BASE  4.6158   303  5.35668  303  -6.7  100   -6.7  49    0     992.2    NA       0.0000   9999     520   0     0    
2019/08/15  18:44:04  BASE  4.56288  303  5.35668  303  -6.7  100   -6.7  50    0     992.2    NA       0.0000   9999     460   0     0    
2019/08/15  18:45:04  BASE  4.60404  300  5.35668  303  -6.7  100   -6.7  52    0     992.2    NA       0.0000   9999     460   0     0    
2019/08/15  18:46:04  BASE  4.45704  299  5.35668  303  -6.7  100   -6.7  51    0     992.2    NA       0.0000   9999     460   0     0    
2019/08/15  18:47:04  BASE  4.42764  304  5.35668  303  -6.8  100   -6.8  51    0     992.2    NA       0.0000   9999     460   0     0    
2019/08/15  18:48:04  BASE  4.48644  307  5.35668  303  -6.8  100   -6.8  53    0     992.2    NA       0.0000   9999     460   0     0    
2019/08/15  18:49:03  BASE  4.7628   304  5.56836  299  -6.8  100   -6.8  51    0     992.2    NA       0.0000   9999     490   0     0    
2019/08/15  18:50:04  BASE  5.06268  304  5.56836  299  -6.8  100   -6.8  49    0     992.2    NA       0.0000   9999     490   0     0    
2019/08/15  18:51:05  BASE  4.89216  307  5.56836  299  -6.8  100   -6.8  50    0     992.2    NA       0.0000   9999     460   0     0    
2019/08/15  18:52:04  BASE  5.10384  310  5.92704  312  -6.8  100   -6.8  50    0     992.2    NA       0.0000   9999     460   0     0    
2019/08/15  18:53:04  BASE  5.30376  312  5.92704  312  -6.8  100   -6.8  47    0     992.2    NA       0.0000   9999     460   0     0    
2019/08/15  18:54:04  BASE  4.93332  314  5.92704  312  -6.9  100   -6.9  47    0     992.2    NA       0.0000   9999     360   0     0    
2019/08/15  18:55:04  BASE  4.63932  313  5.92704  312  -6.9  100   -6.9  49    0     992.2    NA       0.0000   9999     360   0     0    
2019/08/15  18:56:04  BASE  4.50996  310  5.92704  312  -6.9  100   -6.9  48    0     992.2    NA       0.0000   9999     460   0     0    
2019/08/15  18:57:04  BASE  4.63344  315  5.92704  312  -7.0  100   -7.0  48    0     992.2    NA       0.0000   9999     490   0     0    
2019/08/15  18:58:04  BASE  4.79808  318  5.92704  312  -7.0  100   -7.0  45    0     992.2    NA       0.0000   9999     430   0     0    
2019/08/15  18:59:04  BASE  5.0568   316  5.92704  312  -7.0  100   -7.0  44    0     992.2    NA       0.0000   9999     460   0     0    
2019/08/15  19:00:04  BASE  5.16264  314  5.92704  312  -7.0  100   -7.0  45    0     992.2    NA       0.0000   9999     390   0     0    
2019/08/15  19:01:04  BASE  4.80396  309  5.92704  312  -7.0  100   -7.0  45    0     992.2    NA       0.0000   9999     390   0     0    
2019/08/15  19:02:04  BASE  4.62756  311  5.53308  313  -7.1  100   -7.1  45    0     992.2    NA       0.0000   9999     430   0     0    
2019/08/15  19:03:05  BASE  4.72164  313  5.53308  313  -7.1  100   -7.1  41    0     992.2    NA       0.0000   9999     390   0     0    
2019/08/15  19:04:01  BASE  4.72164  308  5.53308  313  -7.1  100   -7.1  39    0     992.3    NA       0.0000   9999     430   0     0    
2019/08/15  19:05:04  BASE  4.68636  305  5.53308  313  -7.1  100   -7.1  41    0     992.3    NA       0.0000   9999     430   0     0    
2019/08/15  19:06:04  BASE  4.93332  307  5.56836  309  -7.0  100   -7.0  39    0     992.4    NA       0.0000   9999     460   0     0    
2019/08/15  19:07:04  BASE  4.96272  307  5.56836  309  -7.0  100   -7.0  37    0     992.4    NA       0.0000   9999     430   0     0    
2019/08/15  19:08:04  BASE  4.69224  304  5.56836  309  -7.0  100   -7.0  36    0     992.4    NA       0.0000   9999     460   0     0    
2019/08/15  19:09:04  BASE  4.40412  307  5.56836  309  -7.0  100   -7.0  34    0     992.5    NA       0.0000   9999     520   0     0    
2019/08/15  19:10:04  BASE  4.6158   312  5.68596  316  -7.0  100   -7.0  35    0     992.4    NA       0.0000   9999     490   0     0    
2019/08/15  19:11:04  BASE  4.9098   314  5.68596  316  -7.0  100   -7.0  34    0     992.4    NA       0.0000   9999     460   0     0    
2019/08/15  19:12:04  BASE  4.80984  316  5.68596  316  -7.1  100   -7.1  37    0     992.5    NA       0.0000   9999     520   0     0    
2019/08/15  19:13:04  BASE  4.33944  318  5.68596  316  -7.1  100   -7.1  33    0     992.5    NA       0.0000   9999     460   0     0    
2019/08/15  19:14:04  BASE  3.71616  319  5.68596  316  -7.1  100   -7.1  29    0     992.6    NA       0.0000   9999     390   0     0    
2019/08/15  19:15:04  BASE  3.9102   323  5.68596  316  -7.1  100   -7.1  27    0     992.5    NA       0.0000   9999     520   0     0    
2019/08/15  19:16:04  BASE  4.22184  328  5.68596  316  -7.1  100   -7.1  28    0     992.5    NA       0.0000   9999     560   0     0    
2019/08/15  19:17:04  BASE  3.90432  331  5.68596  316  -7.1  100   -7.1  31    0     992.6    NA       0.0000   9999     390   0     0    
2019/08/15  19:18:04  BASE  3.50448  333  5.68596  316  -7.1  100   -7.1  34    0     992.6    NA       0.0000   9999     330   0     0    
2019/08/15  19:19:04  BASE  3.7044   333  5.68596  316  -7.1  100   -7.1  35    0     992.6    NA       0.0000   9999     360   0     0    
2019/08/15  19:20:04  BASE  4.01016  331  5.47428  316  -7.1  100   -7.1  34    0     992.6    NA       0.0000   9999     520   0     0    
2019/08/15  19:21:04  BASE  3.97488  333  5.47428  316  -7.1  100   -7.1  33    0     992.5    NA       0.0000   9999     560   0     0    
2019/08/15  19:22:05  BASE  4.08072  337  4.65696  331  -7.2  100   -7.2  34    0     992.4    NA       0.0000   9999     560   0     0    
2019/08/15  19:23:04  BASE  4.28064  338  4.65696  337  -7.2  100   -7.2  36    0     992.4    NA       0.0000   9999     590   0     0    
2019/08/15  19:24:04  BASE  4.29828  337  4.65696  337  -7.2  100   -7.2  33    0     992.4    NA       0.0000   9999     560   0     0    
2019/08/15  19:25:04  BASE  4.1454   336  4.65696  337  -7.1  100   -7.1  29    0     992.4    NA       0.0000   9999     490   0     0    
2019/08/15  19:26:04  BASE  4.0278   336  4.65696  337  -7.1  100   -7.1  31    0     992.5    NA       0.0000   9999     460   0     0    
2019/08/15  19:27:04  BASE  3.97488  334  4.65696  337  -7.1  100   -7.1  31    0     992.5    NA       0.0000   9999     520   0     0    
2019/08/15  19:28:04  BASE  4.16304  333  4.68636  336  -7.1  100   -7.1  28    0     992.4    NA       0.0000   9999     430   0     0    
2019/08/15  19:29:04  BASE  4.43352  332  5.02152  334  -7.1  100   -7.1  28    0     992.4    NA       0.0000   9999     390   0     0    
2019/08/15  19:30:04  BASE  4.48644  330  5.145    326  -7.1  100   -7.1  32    0     992.4    NA       0.0000   9999     430   0     0    
2019/08/15  19:31:04  BASE  4.15716  332  5.145    326  -7.0  100   -7.0  34    0     992.3    NA       0.0000   9999     490   0     0    
2019/08/15  19:32:04  BASE  4.03368  336  5.145    326  -7.0  100   -7.0  33    0     992.3    NA       0.0000   9999     560   0     0    
2019/08/15  19:33:05  BASE  4.48644  338  5.145    326  -7.0  100   -7.0  35    0     992.3    NA       0.0000   9999     620   0     0    
2019/08/15  19:34:05  BASE  4.80984  338  5.68596  337  -7.1  100   -7.1  32    0     992.3    NA       0.0000   9999     590   0     0    
2019/08/15  19:35:04  BASE  5.15676  338  5.68596  337  -7.1  100   -7.1  29    0     992.2    NA       0.0000   9999     590   0     0    
2019/08/15  19:36:04  BASE  5.30376  339  5.68596  337  -7.1  100   -7.1  26    0     992.3    NA       0.0000   9999     590   0     0    
2019/08/15  19:37:04  BASE  5.1156   337  5.68596  337  -7.2  100   -7.2  24    0     992.3    NA       0.0000   9999     560   0     0    
2019/08/15  19:38:04  BASE  4.89804  335  5.68596  337  -7.2  100   -7.2  24    0     992.3    NA       0.0000   9999     560   0     0    
2019/08/15  19:39:03  BASE  4.68048  337  5.68596  337  -7.2  100   -7.2  25    0     992.4    NA       0.0000   9999     590   0     0    
2019/08/15  19:40:04  BASE  4.69224  340  5.68596  337  -7.2  100   -7.2  24    0     992.4    NA       0.0000   9999     560   0     0    
2019/08/15  19:41:04  BASE  4.48056  335  5.68596  337  -7.3  100   -7.3  23    0     992.4    NA       0.0000   9999     560   0     0    
2019/08/15  19:42:04  BASE  3.89256  332  5.68596  337  -7.3  100   -7.3  22    0     992.5    NA       0.0000   9999     590   0     0    
2019/08/15  19:43:04  BASE  3.56916  331  5.68596  337  -7.3  100   -7.3  20    0     992.6    NA       0.0000   9999     560   0     0    
2019/08/15  19:44:04  BASE  3.57504  330  5.53308  338  -7.3  100   -7.3  20    0     992.6    NA       0.0000   9999     560   0     0    
2019/08/15  19:45:04  BASE  3.62796  326  5.53308  338  -7.3  100   -7.3  21    0     992.7    NA       0.0000   9999     490   0     0    
2019/08/15  19:46:04  BASE  3.5868   321  5.2332   338  -7.3  100   -7.3  20    0     992.7    NA       0.0000   9999     560   0     0    
2019/08/15  19:47:04  BASE  3.48096  322  5.2332   338  -7.3  100   -7.3  21    0     992.7    NA       0.0000   9999     560   0     0    
2019/08/15  19:48:04  BASE  3.48096  322  5.2332   338  -7.3  100   -7.3  21    0     992.8    NA       0.0000   9999     520   0     0    
2019/08/15  19:49:04  BASE  3.42804  320  5.2332   338  -7.3  100   -7.3  20    0     992.8    NA       0.0000   9999     620   0     0    
2019/08/15  19:50:04  BASE  3.19872  315  4.65696  335  -7.3  100   -7.3  17    0     992.9    NA       0.0000   9999     620   0     0    
2019/08/15  19:51:04  BASE  3.4104   311  4.1748   305  -7.3  100   -7.3  15    0     992.9    NA       0.0000   9999     660   0     0    
2019/08/15  19:52:04  BASE  3.7632   308  4.1748   305  -7.3  100   -7.3  14    0     992.9    NA       0.0000   9999     660   0     0    
2019/08/15  19:53:04  BASE  3.61032  305  4.1748   305  -7.3  100   -7.3  14    0     992.9    NA       0.0000   9999     620   0     0    
2019/08/15  19:54:04  BASE  3.32808  306  4.1748   305  -7.4  100   -7.4  13    0     992.9    NA       0.0000   9999     590   0     0    
2019/08/15  19:55:04  BASE  3.15756  312  4.1748   305  -7.4  100   -7.4  13    0     992.9    NA       0.0000   9999     620   0     0    
2019/08/15  19:56:04  BASE  3.1458   315  4.1748   305  -7.4  100   -7.4  13    0     992.9    NA       0.0000   9999     620   0     0    
2019/08/15  19:57:04  BASE  3.528    315  4.1748   305  -7.5  100   -7.5  13    0     992.9    NA       0.0000   9999     560   0     0    
2019/08/15  19:58:04  BASE  3.6456   317  4.1748   305  -7.5  100   -7.5  13    0     992.9    NA       0.0000   9999     560   0     0    
2019/08/15  19:59:04  BASE  3.31632  319  4.1748   305  -7.5  100   -7.5  12    0     992.8    NA       0.0000   9999     590   0     0    
2019/08/15  20:00:04  BASE  3.11052  320  4.1748   305  -7.5  100   -7.5  12    0     992.8    NA       0.0000   9999     620   0     0    
2019/08/15  20:01:04  BASE  2.89296  327  4.1454   315  -7.5  100   -7.5  12    0     992.8    NA       0.0000   9999     620   0     0    
2019/08/15  20:02:04  BASE  2.76948  331  4.1454   315  -7.6  100   -7.6  12    0     992.9    NA       0.0000   9999     590   0     0    
2019/08/15  20:03:04  BASE  2.81064  328  4.1454   315  -7.6  100   -7.6  11    0     992.8    NA       0.0000   9999     590   0     0    
2019/08/15  20:04:01  BASE  2.69304  329  4.1454   315  -7.6  100   -7.6  11    0     992.9    NA       0.0000   9999     560   0     0    
2019/08/15  20:05:04  BASE  2.52252  325  4.1454   315  -7.6  100   -7.6  11    0     992.9    NA       0.0000   9999     590   0     0    
2019/08/15  20:06:04  BASE  2.3814   315  4.1454   315  -7.6  100   -7.6  11    0     992.9    NA       0.0000   9999     660   0     0    
2019/08/15  20:07:04  BASE  2.68716  301  3.86904  309  -7.6  100   -7.6  10    0     992.9    NA       0.0000   9999     620   0     0    
2019/08/15  20:08:04  BASE  3.11052  292  3.56916  313  -7.6  100   -7.6  10    0     992.9    NA       0.0000   9999     560   0     0    
2019/08/15  20:09:04  BASE  3.1752   291  3.51036  294  -7.6  100   -7.6  11    0     992.9    NA       0.0000   9999     560   0     0    
2019/08/15  20:10:04  BASE  3.03996  293  3.51036  294  -7.6  100   -7.6  12    0     992.9    NA       0.0000   9999     620   0     0    
2019/08/15  20:11:04  BASE  2.64012  298  3.51036  294  -7.6  100   -7.6  11    0     992.9    NA       0.0000   9999     660   0     0    
2019/08/15  20:12:04  BASE  2.45784  310  3.51036  294  -7.6  100   -7.6  10    0     992.9    NA       0.0000   9999     660   0     0    
2019/08/15  20:13:04  BASE  2.30496  321  3.51036  294  -7.6  100   -7.6  9     0     992.8    NA       0.0000   9999     590   0     0    
2019/08/15  20:14:04  BASE  2.00508  322  3.51036  294  -7.6  100   -7.6  9     0     992.9    NA       0.0000   9999     560   0     0    
2019/08/15  20:15:04  BASE  2.00508  322  3.51036  294  -7.6  100   -7.6  9     0     992.8    NA       0.0000   9999     790   0     0    
2019/08/15  20:16:04  BASE  2.57544  327  3.51036  294  -7.7  100   -7.7  8     0     992.8    NA       0.0000   9999     690   0     0    
2019/08/15  20:17:04  BASE  3.21636  330  3.59856  337  -7.7  100   -7.7  8     0     992.8    NA       0.0000   9999     660   0     0    
2019/08/15  20:18:04  BASE  3.53976  328  3.90432  324  -7.7  100   -7.7  7     0     992.8    NA       0.0000   9999     720   0     0    
2019/08/15  20:19:04  BASE  3.81024  325  4.2042   324  -7.8  100   -7.8  7     0     992.9    NA       0.0000   9999     720   0     0    
2019/08/15  20:20:04  BASE  3.822    324  4.2042   324  -7.8  100   -7.8  7     0     992.9    NA       0.0000   9999     720   0     0    
2019/08/15  20:21:04  BASE  3.65736  323  4.2042   324  -7.8  100   -7.8  7     0     992.9    NA       0.0000   9999     660   0     0    
2019/08/15  20:22:04  BASE  3.61032  324  4.2042   324  -7.8  100   -7.8  7     0     992.8    NA       0.0000   9999     620   0     0    
2019/08/15  20:23:04  BASE  3.66912  325  4.2042   324  -7.8  100   -7.8  6     0     992.7    NA       0.0000   9999     620   0     0    
2019/08/15  20:24:04  BASE  3.86316  327  4.2042   324  -7.8  100   -7.8  6     0     992.7    NA       0.0000   9999     660   0     0    
2019/08/15  20:25:04  BASE  4.01604  328  4.35708  326  -7.8  100   -7.8  6     0     992.7    NA       0.0000   9999     660   0     0    
2019/08/15  20:26:04  BASE  3.89256  331  4.35708  326  -7.8  100   -7.8  6     0     992.7    NA       0.0000   9999     690   0     0    
2019/08/15  20:27:04  BASE  3.78672  332  4.35708  326  -7.8  100   -7.8  6     0     992.7    NA       0.0000   9999     690   0     0    
2019/08/15  20:28:04  BASE  3.98664  327  4.56876  321  -7.8  100   -7.8  6     0     992.7    NA       0.0000   9999     660   0     0    
2019/08/15  20:29:04  BASE  4.22772  320  4.56876  321  -7.8  100   -7.8  6     0     992.7    NA       0.0000   9999     690   0     0    
2019/08/15  20:30:04  BASE  4.39824  320  4.78044  323  -7.8  100   -7.8  6     0     992.7    NA       0.0000   9999     690   0     0    
2019/08/15  20:31:04  BASE  4.63344  324  4.99212  325  -7.8  100   -7.8  5     0     992.6    NA       0.0000   9999     720   0     0    
2019/08/15  20:32:04  BASE  5.09796  328  5.74476  328  -7.8  100   -7.8  5     0     992.5    NA       0.0000   9999     620   0     0    
2019/08/15  20:33:04  BASE  5.48604  330  5.74476  330  -7.8  100   -7.8  5     0     992.4    NA       0.0000   9999     720   0     0    
2019/08/15  20:34:04  BASE  5.53308  330  5.86824  331  -7.8  100   -7.8  5     0     992.4    NA       0.0000   9999     620   0     0    
2019/08/15  20:35:04  BASE  5.4978   331  5.86824  331  -7.9  100   -7.9  5     0     992.4    NA       0.0000   9999     690   0     0    
2019/08/15  20:36:04  BASE  5.48016  332  5.99172  335  -7.9  100   -7.9  5     0     992.4    NA       0.0000   9999     690   0     0    
2019/08/15  20:37:04  BASE  5.51544  334  6.05052  329  -8.0  100   -8.0  5     0     992.3    NA       0.0000   9999     790   0     0    
2019/08/15  20:38:04  BASE  5.38608  334  6.05052  329  -8.0  100   -8.0  4     0     992.3    NA       0.0000   9999     720   0     0    
2019/08/15  20:39:04  BASE  5.34492  335  6.05052  329  -8.0  100   -8.0  4     0     992.3    NA       0.0000   9999     750   0     0    
2019/08/15  20:40:03  BASE  5.63304  336  6.16812  334  -8.0  100   -8.0  4     0     992.2    NA       0.0000   9999     720   0     0    
2019/08/15  20:41:04  BASE  5.74476  335  6.2034   335  -8.1  100   -8.1  4     0     992.2    NA       0.0000   9999     560   0     0    
2019/08/15  20:42:04  BASE  5.48016  332  6.2034   335  -8.1  100   -8.1  4     0     992.2    NA       0.0000   9999     720   0     0    
2019/08/15  20:43:04  BASE  5.39196  330  6.2034   335  -8.1  100   -8.1  4     0     992.2    NA       0.0000   9999     690   0     0    
2019/08/15  20:44:05  BASE  5.50956  329  6.2034   335  -8.1  100   -8.1  3     0     992.2    NA       0.0000   9999     560   0     0    
2019/08/15  20:45:04  BASE  5.439    331  6.2034   335  -8.1  100   -8.1  3     0     992.2    NA       0.0000   9999     720   0     0    
2019/08/15  20:46:04  BASE  5.5272   332  6.2034   335  -8.1  100   -8.1  3     0     992.2    NA       0.0000   9999     690   0     0    
2019/08/15  20:47:04  BASE  5.69184  334  6.2034   335  -8.1  100   -8.1  3     0     992.2    NA       0.0000   9999     660   0     0    
2019/08/15  20:48:04  BASE  5.92704  335  6.47388  337  -8.1  100   -8.1  3     0     992.2    NA       0.0000   9999     660   0     0    
2019/08/15  20:49:04  BASE  6.25044  332  6.74436  324  -8.1  100   -8.1  3     0     992.1    NA       0.0000   9999     660   0     0    
2019/08/15  20:50:03  BASE  6.26808  330  6.74436  324  -8.1  100   -8.1  2     0     992.2    NA       0.0000   9999     720   0     0    
2019/08/15  20:51:04  BASE  6.39156  332  7.07952  333  -8.1  100   -8.1  2     0     992.1    NA       0.0000   9999     620   0     0    
2019/08/15  20:52:05  BASE  6.51504  333  7.07952  333  -8.1  100   -8.1  2     0     992.1    NA       0.0000   9999     660   0     0    
2019/08/15  20:53:04  BASE  5.97996  336  7.07952  333  -8.1  100   -8.1  2     0     992.1    NA       0.0000   9999     660   0     0    
2019/08/15  20:54:04  BASE  5.63304  336  7.07952  333  -8.1  100   -8.1  2     0     992.2    NA       0.0000   9999     660   0     0    
2019/08/15  20:55:04  BASE  5.68596  333  7.07952  333  -8.1  100   -8.1  2     0     992.2    NA       0.0000   9999     720   0     0    
2019/08/15  20:56:04  BASE  5.60364  329  7.07952  333  -8.1  100   -8.1  2     0     992.2    NA       0.0000   9999     720   0     0    
2019/08/15  20:57:04  BASE  5.292    319  7.07952  333  -8.1  100   -8.1  2     0     992.1    NA       0.0000   9999     720   0     0    
2019/08/15  20:58:04  BASE  5.15088  311  7.07952  333  -8.1  100   -8.1  1     0     992.1    NA       0.0000   9999     690   0     0    
2019/08/15  20:59:04  BASE  5.63304  310  7.07952  333  -8.1  100   -8.1  1     0     992.1    NA       0.0000   9999     690   0     0    
2019/08/15  21:00:04  BASE  5.89764  311  7.07952  333  -8.1  100   -8.1  1     0     992.1    NA       0.0000   9999     690   0     0    
2019/08/15  21:01:04  BASE  5.70948  311  6.74436  335  -8.2  100   -8.2  1     0     992.1    NA       0.0000   9999     520   0     0    
2019/08/15  21:02:04  BASE  5.66832  311  6.2622   308  -8.2  100   -8.2  1     0     992.1    NA       0.0000   9999     660   0     0    
2019/08/15  21:03:05  BASE  5.586    314  6.2622   308  -8.2  100   -8.2  1     0     992.1    NA       0.0000   9999     590   0     0    
2019/08/15  21:04:01  BASE  5.57424  314  6.2916   316  -8.2  100   -8.2  0     0     992.1    NA       0.0000   9999     690   0     0    
2019/08/15  21:05:04  BASE  5.3802   316  6.2916   316  -8.2  100   -8.2  0     0     992.1    NA       0.0000   9999     620   0     0    
2019/08/15  21:06:04  BASE  5.27436  328  6.2916   316  -8.2  100   -8.2  0     0     992.1    NA       0.0000   9999     790   0     0    
2019/08/15  21:07:04  BASE  5.439    334  6.2916   316  -8.2  100   -8.2  0     0     992.1    NA       0.0000   9999     660   0     0    
2019/08/15  21:08:04  BASE  5.39784  334  6.2916   316  -8.2  100   -8.2  0     0     992.1    NA       0.0000   9999     620   0     0    
2019/08/15  21:09:04  BASE  5.49192  336  6.2916   316  -8.2  100   -8.2  0     0     992.1    NA       0.0000   9999     660   0     0    
2019/08/15  21:10:04  BASE  4.92744  337  6.2916   316  -8.2  100   -8.2  0     0     992.1    NA       0.0000   9999     590   0     0    
2019/08/15  21:11:04  BASE  4.28064  334  6.2916   316  -8.2  100   -8.2  0     0     992.2    NA       0.0000   9999     720   0     0    
2019/08/15  21:12:04  BASE  4.12188  330  6.2916   316  -8.2  100   -8.2  0     0     992.2    NA       0.0000   9999     690   0     0    
2019/08/15  21:13:03  BASE  3.90432  328  6.2916   316  -8.2  100   -8.2  0     0     992.2    NA       0.0000   9999     690   0     0    
2019/08/15  21:14:04  BASE  3.62796  328  5.95644  333  -8.2  100   -8.2  0     0     992.2    NA       0.0000   9999     720   0     0    
2019/08/15  21:15:04  BASE  3.41628  327  5.95644  333  -8.2  100   -8.2  0     0     992.2    NA       0.0000   9999     720   0     0    
2019/08/15  21:16:04  BASE  3.53976  326  5.95644  333  -8.2  100   -8.2  0     0     992.2    NA       0.0000   9999     720   0     0    
2019/08/15  21:17:04  BASE  3.56328  331  5.95644  333  -8.2  100   -8.2  0     0     992.3    NA       0.0000   9999     720   0     0    
2019/08/15  21:18:04  BASE  3.41628  336  5.89764  337  -8.2  100   -8.2  0     0     992.3    NA       0.0000   9999     690   0     0    
2019/08/15  21:19:04  BASE  3.37512  334  5.145    333  -8.3  100   -8.3  0     0     992.3    NA       0.0000   9999     660   0     0    
2019/08/15  21:20:04  BASE  3.46332  334  4.56876  330  -8.3  100   -8.3  0     0     992.3    NA       0.0000   9999     690   0     0    
2019/08/15  21:21:04  BASE  3.63384  330  4.29828  333  -8.3  100   -8.3  0     0     992.4    NA       0.0000   9999     620   0     0    
2019/08/15  21:22:04  BASE  3.42216  328  4.29828  333  -8.3  100   -8.3  0     0     992.4    NA       0.0000   9999     430   0     0    
2019/08/15  21:23:03  BASE  3.0282   327  4.08072  333  -8.4  100   -8.4  0     0     992.5    NA       0.0000   9999     560   0     0    
2019/08/15  21:24:04  BASE  2.83416  330  4.08072  333  -8.4  100   -8.4  0     0     992.6    NA       0.0000   9999     690   0     0    
2019/08/15  21:25:04  BASE  2.72832  334  4.08072  333  -8.4  100   -8.4  0     0     992.6    NA       0.0000   9999     720   0     0    
2019/08/15  21:26:04  BASE  2.94     331  4.05132  330  -8.3  100   -8.3  0     0     992.7    NA       0.0000   9999     720   0     0    
2019/08/15  21:27:04  BASE  3.06348  316  4.05132  330  -8.3  100   -8.3  0     0     992.7    NA       0.0000   9999     720   0     0    
2019/08/15  21:28:04  BASE  2.6754   307  4.05132  330  -8.3  100   -8.3  0     0     992.7    NA       0.0000   9999     720   0     0    
2019/08/15  21:29:04  BASE  2.36376  314  4.05132  330  -8.3  100   -8.3  0     0     992.7    NA       0.0000   9999     620   0     0    
2019/08/15  21:30:04  BASE  2.34612  322  4.05132  330  -8.3  100   -8.3  0     0     992.7    NA       0.0000   9999     590   0     0    
2019/08/15  21:31:04  BASE  2.27556  325  4.05132  330  -8.3  100   -8.3  0     0     992.8    NA       0.0000   9999     750   0     0    
2019/08/15  21:32:04  BASE  2.31084  315  4.05132  330  -8.3  100   -8.3  0     0     992.8    NA       0.0000   9999     750   0     0    
2019/08/15  21:33:04  BASE  2.78124  303  4.05132  330  -8.3  100   -8.3  0     0     992.9    NA       0.0000   9999     750   0     0    
2019/08/15  21:34:04  BASE  2.99292  301  4.05132  330  -8.3  100   -8.3  0     0     992.9    NA       0.0000   9999     590   0     0    
2019/08/15  21:35:04  BASE  2.75184  304  4.05132  330  -8.3  100   -8.3  0     0     992.9    NA       0.0000   9999     590   0     0    
2019/08/15  21:36:05  BASE  2.66952  311  3.62796  318  -8.3  100   -8.3  0     0     992.9    NA       0.0000   9999     720   0     0    
2019/08/15  21:37:04  BASE  2.86944  310  3.86904  303  -8.3  100   -8.3  0     0     992.9    NA       0.0000   9999     720   0     0    
2019/08/15  21:38:04  BASE  3.00468  295  3.86904  303  -8.3  100   -8.3  0     0     993.0    NA       0.0000   9999     750   0     0    
2019/08/15  21:39:04  BASE  3.02232  277  3.86904  303  -8.4  100   -8.4  0     0     993.1    NA       0.0000   9999     750   0     0    
2019/08/15  21:40:04  BASE  2.8812   271  3.86904  303  -8.4  100   -8.4  0     0     993.2    NA       0.0000   9999     690   0     0    
2019/08/15  21:41:04  BASE  2.78712  278  3.96312  281  -8.5  100   -8.5  0     0     993.2    NA       0.0000   9999     720   0     0    
2019/08/15  21:42:04  BASE  3.16932  279  3.96312  281  -8.5  100   -8.5  0     0     993.2    NA       0.0000   9999     790   0     0    
2019/08/15  21:43:04  BASE  3.4398   278  3.96312  281  -8.6  100   -8.6  0     0     993.2    NA       0.0000   9999     660   0     0    
2019/08/15  21:44:05  BASE  3.23988  278  3.96312  281  -8.6  100   -8.6  0     0     993.2    NA       0.0000   9999     660   0     0    
2019/08/15  21:45:04  BASE  3.0576   273  3.96312  281  -8.6  100   -8.6  0     0     993.2    NA       0.0000   9999     690   0     0    
2019/08/15  21:46:04  BASE  3.16344  273  3.96312  281  -8.6  100   -8.6  0     0     993.3    NA       0.0000   9999     720   0     0    
2019/08/15  21:47:04  BASE  3.18108  274  3.96312  281  -8.6  100   -8.6  0     0     993.3    NA       0.0000   9999     590   0     0    
2019/08/15  21:48:04  BASE  3.15168  274  3.96312  281  -8.7  100   -8.7  0     0     993.4    NA       0.0000   9999     560   0     0    
2019/08/15  21:49:04  BASE  3.36336  273  4.263    282  -8.7  100   -8.7  0     0     993.3    NA       0.0000   9999     490   0     0    
2019/08/15  21:50:04  BASE  3.66912  274  4.263    274  -8.7  100   -8.7  0     0     993.3    NA       0.0000   9999     590   0     0    
2019/08/15  21:51:04  BASE  3.69852  275  4.263    274  -8.8  100   -8.8  0     0     993.3    NA       0.0000   9999     430   0     0    
2019/08/15  21:52:04  BASE  3.6162   277  4.263    274  -8.8  100   -8.8  0     0     993.3    NA       0.0000   9999     460   0     0    
2019/08/15  21:53:04  BASE  3.56916  281  4.263    274  -8.8  100   -8.8  0     0     993.3    NA       0.0000   9999     520   0     0    
2019/08/15  21:54:03  BASE  3.51624  281  4.263    274  -8.8  100   -8.8  0     0     993.3    NA       0.0000   9999     430   0     0    
2019/08/15  21:55:04  BASE  3.51624  277  4.263    274  -8.8  100   -8.8  0     0     993.4    NA       0.0000   9999     390   0     0    
2019/08/15  21:56:04  BASE  3.51624  275  4.29828  264  -8.9  100   -8.9  0     0     993.4    NA       0.0000   9999     430   0     0    
2019/08/15  21:57:04  BASE  3.39276  271  4.29828  264  -8.9  100   -8.9  0     0     993.4    NA       0.0000   9999     390   0     0    
2019/08/15  21:58:04  BASE  3.11052  270  4.29828  264  -8.9  100   -8.9  0     0     993.4    NA       0.0000   9999     360   0     0    
2019/08/15  21:59:04  BASE  2.75772  273  4.29828  264  -8.9  100   -8.9  0     0     993.4    NA       0.0000   9999     390   0     0    
2019/08/15  22:00:04  BASE  2.60484  275  4.29828  264  -8.9  100   -8.9  0     0     993.4    NA       0.0000   9999     460   0     0    
2019/08/15  22:01:04  BASE  2.24616  270  4.29828  264  -9.0  100   -9.0  0     0     993.4    NA       0.0000   9999     430   0     0    
2019/08/15  22:02:04  BASE  2.45196  260  4.29828  264  -9.0  100   -9.0  0     0     993.4    NA       0.0000   9999     520   0     0    
2019/08/15  22:03:04  BASE  2.94     254  4.29828  264  -9.0  100   -9.0  0     0     993.5    NA       0.0000   9999     560   0     0    
2019/08/15  22:04:01  BASE  3.02232  250  4.29828  264  -9.0  100   -9.0  0     0     993.5    NA       0.0000   9999     660   0     0    
2019/08/15  22:05:04  BASE  2.98116  248  4.29828  264  -9.0  100   -9.0  0     0     993.5    NA       0.0000   9999     590   0     0    
2019/08/15  22:06:04  BASE  3.08112  251  4.1454   269  -9.0  100   -9.0  0     0     993.5    NA       0.0000   9999     620   0     0    
2019/08/15  22:07:04  BASE  3.4104   256  3.83964  253  -9.1  100   -9.1  0     0     993.5    NA       0.0000   9999     660   0     0    
2019/08/15  22:08:04  BASE  3.42804  259  3.86904  253  -9.1  100   -9.1  0     0     993.5    NA       0.0000   9999     660   0     0    
2019/08/15  22:09:04  BASE  3.54564  259  4.2042   252  -9.1  100   -9.1  0     0     993.5    NA       0.0000   9999     720   0     0    
2019/08/15  22:10:04  BASE  3.56916  259  4.2042   252  -9.2  100   -9.2  0     0     993.5    NA       0.0000   9999     690   0     0    
2019/08/15  22:11:04  BASE  3.31632  263  4.2042   252  -9.2  100   -9.2  0     0     993.4    NA       0.0000   9999     690   0     0    
2019/08/15  22:12:04  BASE  3.24576  275  4.2042   252  -9.2  100   -9.2  0     0     993.4    NA       0.0000   9999     690   0     0    
2019/08/15  22:13:04  BASE  3.31044  280  4.2042   252  -9.2  100   -9.2  0     0     993.4    NA       0.0000   9999     750   0     0    
2019/08/15  22:14:04  BASE  3.4986   281  4.2042   252  -9.2  100   -9.2  0     0     993.3    NA       0.0000   9999     720   0     0    
2019/08/15  22:15:04  BASE  3.66324  280  4.2042   252  -9.2  100   -9.2  0     0     993.3    NA       0.0000   9999     690   0     0    
2019/08/15  22:16:05  BASE  3.47508  281  4.2042   252  -9.2  100   -9.2  0     0     993.3    NA       0.0000   9999     720   0     0    
2019/08/15  22:17:04  BASE  3.76908  291  4.41588  294  -9.2  100   -9.2  0     0     993.3    NA       0.0000   9999     690   0     0    
2019/08/15  22:18:04  BASE  3.9396   294  4.41588  294  -9.2  100   -9.2  0     0     993.3    NA       0.0000   9999     690   0     0    
2019/08/15  22:19:04  BASE  3.27516  293  4.41588  294  -9.2  100   -9.2  0     0     993.4    NA       0.0000   9999     690   0     0    
2019/08/15  22:20:04  BASE  2.77536  290  4.41588  294  -9.2  100   -9.2  0     0     993.4    NA       0.0000   9999     690   0     0    
2019/08/15  22:21:04  BASE  2.74008  282  4.41588  294  -9.2  100   -9.2  0     0     993.4    NA       0.0000   9999     720   0     0    
2019/08/15  22:22:04  BASE  2.95176  274  4.41588  294  -9.3  100   -9.3  0     0     993.4    NA       0.0000   9999     660   0     0    
2019/08/15  22:23:04  BASE  3.22224  272  4.41588  294  -9.3  100   -9.3  0     0     993.4    NA       0.0000   9999     560   0     0    
2019/08/15  22:24:04  BASE  3.33396  276  4.41588  294  -9.3  100   -9.3  0     0     993.4    NA       0.0000   9999     690   0     0    
2019/08/15  22:25:04  BASE  3.09876  273  4.41588  294  -9.4  100   -9.4  0     0     993.4    NA       0.0000   9999     660   0     0    
2019/08/15  22:26:04  BASE  3.23988  268  4.41588  294  -9.4  100   -9.4  0     0     993.4    NA       0.0000   9999     660   0     0    
2019/08/15  22:27:04  BASE  3.31632  275  4.1454   268  -9.5  100   -9.5  0     0     993.4    NA       0.0000   9999     620   0     0    
2019/08/15  22:28:04  BASE  3.18108  279  4.1454   268  -9.5  100   -9.5  0     0     993.4    NA       0.0000   9999     590   0     0    
2019/08/15  22:29:04  BASE  3.47508  281  4.1454   268  -9.5  100   -9.5  0     0     993.4    NA       0.0000   9999     590   0     0    
2019/08/15  22:30:04  BASE  3.4398   287  4.1454   268  -9.5  100   -9.5  0     0     993.3    NA       0.0000   9999     520   0     0    
2019/08/15  22:31:04  BASE  3.39864  291  4.1454   268  -9.5  100   -9.5  0     0     993.3    NA       0.0000   9999     560   0     0    
2019/08/15  22:32:04  BASE  3.5868   295  4.1454   268  -9.5  100   -9.5  0     0     993.3    NA       0.0000   9999     590   0     0    
2019/08/15  22:33:04  BASE  3.81612  304  4.263    312  -9.5  100   -9.5  0     0     993.2    NA       0.0000   9999     620   0     0    
2019/08/15  22:34:05  BASE  4.25712  306  4.68636  298  -9.5  100   -9.5  0     0     993.2    NA       0.0000   9999     620   0     0    
2019/08/15  22:35:04  BASE  4.32768  304  4.68636  298  -9.5  100   -9.5  0     0     993.2    NA       0.0000   9999     560   0     0    
2019/08/15  22:36:04  BASE  4.44528  306  5.56836  309  -9.5  100   -9.5  0     0     993.1    NA       0.0000   9999     620   0     0    
2019/08/15  22:37:04  BASE  4.60404  311  5.56836  309  -9.5  100   -9.5  0     0     993.2    NA       0.0000   9999     620   0     0    
2019/08/15  22:38:04  BASE  4.0278   316  5.56836  309  -9.6  100   -9.6  0     0     993.2    NA       0.0000   9999     620   0     0    
2019/08/15  22:39:03  BASE  3.675    312  5.56836  309  -9.6  100   -9.6  0     0     993.2    NA       0.0000   9999     620   0     0    
2019/08/15  22:40:03  BASE  3.72204  309  5.56836  309  -9.6  100   -9.6  0     0     993.1    NA       0.0000   9999     620   0     0    
2019/08/15  22:41:04  BASE  3.78084  309  5.56836  309  -9.6  100   -9.6  0     0     993.0    NA       0.0000   9999     590   0     0    
2019/08/15  22:42:03  BASE  4.24536  315  5.56836  309  -9.6  100   -9.6  0     0     993.0    NA       0.0000   9999     620   0     0    
2019/08/15  22:43:04  BASE  4.86864  320  5.56836  309  -9.6  100   -9.6  0     0     992.9    NA       0.0000   9999     620   0     0    
2019/08/15  22:44:04  BASE  4.9098   317  5.80944  314  -9.6  100   -9.6  0     0     992.9    NA       0.0000   9999     590   0     0    
2019/08/15  22:45:04  BASE  4.42764  318  5.80944  314  -9.6  100   -9.6  0     0     992.9    NA       0.0000   9999     490   0     0    
2019/08/15  22:46:04  BASE  4.31004  322  5.80944  314  -9.6  100   -9.6  0     0     992.9    NA       0.0000   9999     590   0     0    
2019/08/15  22:47:04  BASE  4.32768  322  5.80944  314  -9.6  100   -9.6  0     0     992.9    NA       0.0000   9999     620   0     0    
2019/08/15  22:48:05  BASE  4.53936  319  5.80944  314  -9.6  100   -9.6  0     0     992.9    NA       0.0000   9999     590   0     0    
2019/08/15  22:49:04  BASE  5.37432  320  6.59148  316  -9.6  100   -9.6  0     0     992.9    NA       0.0000   9999     590   0     0    
2019/08/15  22:50:03  BASE  5.41548  324  6.59148  316  -9.6  100   -9.6  0     0     992.9    NA       0.0000   9999     560   0     0    
2019/08/15  22:51:04  BASE  5.29788  320  6.65616  317  -9.6  100   -9.6  0     0     992.9    NA       0.0000   9999     590   0     0    
2019/08/15  22:52:04  BASE  5.89176  317  6.80316  314  -9.6  100   -9.6  0     0     992.9    NA       0.0000   9999     560   0     0    
2019/08/15  22:53:03  BASE  5.92704  316  6.80316  314  -9.6  100   -9.6  0     0     992.9    NA       0.0000   9999     560   0     0    
2019/08/15  22:54:04  BASE  5.72124  313  6.80316  314  -9.6  100   -9.6  0     0     992.9    NA       0.0000   9999     560   0     0    
2019/08/15  22:55:04  BASE  6.027    315  7.13832  320  -9.6  100   -9.6  0     0     992.9    NA       0.0000   9999     590   0     0    
2019/08/15  22:56:04  BASE  6.10932  317  7.13832  320  -9.6  100   -9.6  0     0     993.0    NA       0.0000   9999     590   0     0    
2019/08/15  22:57:04  BASE  6.09168  318  7.2324   313  -9.7  100   -9.7  0     0     993.0    NA       0.0000   9999     590   0     0    
2019/08/15  22:58:04  BASE  5.87412  321  7.2324   313  -9.7  100   -9.7  0     0     993.0    NA       0.0000   9999     620   0     0    
2019/08/15  22:59:04  BASE  5.15088  321  7.2324   313  -9.7  100   -9.7  0     0     993.0    NA       0.0000   9999     560   0     0    
2019/08/15  23:00:04  BASE  4.91568  319  7.2324   313  -9.7  100   -9.7  0     0     993.0    NA       0.0000   9999     560   0     0    
2019/08/15  23:01:04  BASE  4.8804   318  7.2324   313  -9.7  100   -9.7  0     0     993.0    NA       0.0000   9999     520   0     0    
2019/08/15  23:02:04  BASE  5.0568   316  7.2324   313  -9.7  100   -9.7  0     0     992.9    NA       0.0000   9999     560   0     0    
2019/08/15  23:03:05  BASE  5.0568   319  7.2324   313  -9.7  100   -9.7  0     0     992.9    NA       0.0000   9999     560   0     0    
2019/08/15  23:04:01  BASE  4.78632  318  7.2324   313  -9.7  100   -9.7  0     0     992.9    NA       0.0000   9999     590   0     0    
2019/08/15  23:05:03  BASE  4.99212  316  7.2324   313  -9.7  100   -9.7  0     0     993.0    NA       0.0000   9999     560   0     0    
2019/08/15  23:06:04  BASE  4.8804   320  7.2324   313  -9.7  100   -9.7  0     0     993.0    NA       0.0000   9999     590   0     0    
2019/08/15  23:07:04  BASE  4.91568  324  6.56208  321  -9.8  100   -9.8  0     0     992.9    NA       0.0000   9999     590   0     0    
2019/08/15  23:08:04  BASE  5.4978   325  6.56208  321  -9.8  100   -9.8  0     0     992.9    NA       0.0000   9999     490   0     0    
2019/08/15  23:09:04  BASE  5.50368  325  6.56208  321  -9.8  100   -9.8  0     0     992.9    NA       0.0000   9999     460   0     0    
2019/08/15  23:10:03  BASE  4.9392   322  6.56208  321  -9.8  100   -9.8  0     0     992.9    NA       0.0000   9999     460   0     0    
2019/08/15  23:11:04  BASE  4.21596  319  6.56208  321  -9.8  100   -9.8  0     0     993.0    NA       0.0000   9999     560   0     0    
2019/08/15  23:12:04  BASE  3.63972  317  6.13872  330  -9.9  100   -9.9  0     0     993.0    NA       0.0000   9999     590   0     0    
2019/08/15  23:13:04  BASE  3.75144  317  6.13872  330  -9.9  100   -9.9  0     0     993.0    NA       0.0000   9999     620   0     0    
2019/08/15  23:14:04  BASE  4.16304  320  6.13872  330  -9.9  100   -9.9  0     0     993.0    NA       0.0000   9999     590   0     0    
2019/08/15  23:15:04  BASE  4.86276  325  6.13872  330  -9.9  100   -9.9  0     0     992.9    NA       0.0000   9999     660   0     0    
2019/08/15  23:16:04  BASE  5.40372  325  6.13872  330  -9.8  100   -9.8  0     0     992.9    NA       0.0000   9999     560   0     0    
2019/08/15  23:17:03  BASE  5.39196  325  6.3504   331  -9.8  100   -9.8  0     0     992.9    NA       0.0000   9999     520   0     0    
2019/08/15  23:18:04  BASE  5.37432  330  6.3504   331  -9.9  100   -9.9  0     0     992.9    NA       0.0000   9999     490   0     0    
2019/08/15  23:19:04  BASE  5.35668  324  6.3504   331  -9.9  100   -9.9  0     0     992.9    NA       0.0000   9999     460   0     0    
2019/08/15  23:20:03  BASE  5.00388  319  6.3504   331  -9.9  100   -9.9  0     0     992.9    NA       0.0000   9999     490   0     0    
2019/08/15  23:21:04  BASE  4.92156  319  6.3504   331  -9.9  100   -9.9  0     0     992.9    NA       0.0000   9999     520   0     0    
2019/08/15  23:22:04  BASE  5.60364  319  6.44448  317  -9.9  100   -9.9  0     0     992.9    NA       0.0000   9999     490   0     0    
2019/08/15  23:23:04  BASE  5.95644  318  6.53268  310  -9.9  100   -9.9  0     0     992.9    NA       0.0000   9999     520   0     0    
2019/08/15  23:24:04  BASE  5.59776  318  6.53268  310  -9.9  100   -9.9  0     0     992.9    NA       0.0000   9999     520   0     0    
2019/08/15  23:25:04  BASE  5.45076  320  6.53268  310  -9.9  100   -9.9  0     0     992.9    NA       0.0000   9999     460   0     0    
2019/08/15  23:26:04  BASE  6.00348  322  6.65616  323  -9.9  100   -9.9  0     0     992.9    NA       0.0000   9999     490   0     0    
2019/08/15  23:27:03  BASE  6.05052  328  6.65616  323  -9.9  100   -9.9  0     0     993.0    NA       0.0000   9999     390   0     0    
2019/08/15  23:28:04  BASE  5.47428  333  6.65616  323  -10.0 100   -10.0 0     0     992.9    NA       0.0000   9999     460   0     0    
2019/08/15  23:29:03  BASE  5.63892  334  6.65616  323  -10.0 100   -10.0 0     0     993.0    NA       0.0000   9999     430   0     0    
2019/08/15  23:30:04  BASE  5.89176  331  6.65616  323  -10.0 100   -10.0 0     0     993.0    NA       0.0000   9999     360   0     0    
2019/08/15  23:31:03  BASE  5.59776  326  6.65616  323  -10.1 100   -10.1 0     0     993.0    NA       0.0000   9999     460   0     0    
2019/08/15  23:32:04  BASE  5.40372  327  6.65616  323  -10.1 100   -10.1 0     0     993.0    NA       0.0000   9999     430   0     0    
2019/08/15  23:33:04  BASE  5.50368  332  6.65616  323  -10.1 100   -10.1 0     0     992.9    NA       0.0000   9999     390   0     0    
2019/08/15  23:34:04  BASE  5.30964  331  6.65616  323  -10.1 100   -10.1 0     0     993.0    NA       0.0000   9999     360   0     0    
2019/08/15  23:35:04  BASE  4.8804   321  6.65616  323  -10.1 100   -10.1 0     0     993.0    NA       0.0000   9999     460   0     0    
2019/08/15  23:36:04  BASE  5.18616  313  6.62676  335  -10.1 100   -10.1 0     0     993.0    NA       0.0000   9999     460   0     0    
2019/08/15  23:37:04  BASE  5.45076  313  6.62676  335  -10.1 100   -10.1 0     0     993.0    NA       0.0000   9999     330   0     0    
2019/08/15  23:38:03  BASE  5.6448   314  6.62676  335  -10.1 100   -10.1 0     0     993.0    NA       0.0000   9999     430   0     0    
2019/08/15  23:39:03  BASE  5.91528  321  6.41508  314  -10.1 100   -10.1 0     0     993.0    NA       0.0000   9999     390   0     0    
2019/08/15  23:40:04  BASE  5.8506   331  6.47388  339  -10.1 100   -10.1 0     0     993.0    NA       0.0000   9999     430   0     0    
2019/08/15  23:41:04  BASE  5.36844  335  6.47388  339  -10.2 100   -10.2 0     0     993.0    NA       0.0000   9999     460   0     0    
2019/08/15  23:42:04  BASE  4.80396  339  6.47388  339  -10.2 100   -10.2 0     0     992.9    NA       0.0000   9999     460   0     0    
2019/08/15  23:43:04  BASE  4.851    342  6.47388  339  -10.2 100   -10.2 0     0     992.9    NA       0.0000   9999     460   0     0    
2019/08/15  23:44:04  BASE  5.00388  340  6.47388  339  -10.3 100   -10.3 0     0     992.9    NA       0.0000   9999     460   0     0    
2019/08/15  23:45:03  BASE  5.0862   336  6.47388  339  -10.2 100   -10.2 0     0     992.9    NA       0.0000   9999     490   0     0    
2019/08/15  23:46:04  BASE  5.10972  333  6.47388  339  -10.2 100   -10.2 0     0     993.0    NA       0.0000   9999     490   0     0    
2019/08/15  23:47:04  BASE  5.0568   331  6.47388  339  -10.2 100   -10.2 0     0     993.0    NA       0.0000   9999     520   0     0    
2019/08/15  23:48:04  BASE  4.9686   322  6.47388  339  -10.2 100   -10.2 0     0     993.1    NA       0.0000   9999     520   0     0    
2019/08/15  23:49:04  BASE  5.24496  311  6.47388  339  -10.2 100   -10.2 0     0     993.1    NA       0.0000   9999     460   0     0    
2019/08/15  23:50:04  BASE  5.33904  310  5.99172  306  -10.2 100   -10.2 0     0     993.2    NA       0.0000   9999     490   0     0    
2019/08/15  23:51:04  BASE  5.21556  314  5.99172  306  -10.2 100   -10.2 0     0     993.2    NA       0.0000   9999     560   0     0    
2019/08/15  23:52:04  BASE  5.25084  324  5.99172  306  -10.2 100   -10.2 0     0     993.2    NA       0.0000   9999     460   0     0    
2019/08/15  23:53:04  BASE  5.34492  328  5.99172  306  -10.2 100   -10.3 0     0     993.2    NA       0.0000   9999     590   0     0    
2019/08/15  23:54:04  BASE  5.42136  324  5.99172  306  -10.3 100   -10.3 0     0     993.2    NA       0.0000   9999     660   0     0    
2019/08/15  23:55:04  BASE  5.33904  324  6.13872  323  -10.3 100   -10.3 0     0     993.2    NA       0.0000   9999     720   0     0    
2019/08/15  23:56:04  BASE  5.88     328  6.77376  332  -10.3 100   -10.3 0     0     993.2    NA       0.0000   9999     690   0     0    
2019/08/15  23:57:04  BASE  6.28572  334  6.77376  332  -10.3 100   -10.3 0     0     993.2    NA       0.0000   9999     690   0     0    
2019/08/15  23:58:04  BASE  6.2328   332  7.07952  327  -10.3 100   -10.3 0     0     993.2    NA       0.0000   9999     690   0     0    
2019/08/15  23:59:04  BASE  5.83296  325  7.07952  327  -10.4 100   -10.4 0     0     993.2    NA       0.0000   9999     720   0     0